<?xml version="1.0" encoding="UTF-8" ?>
<gpx
 version="1.0"
 creator="Maverick - http://www.maverickgps.com"
 xmlns:xsi="http://www.w3.org/2001/XMLSchema-instance"
 xmlns="http://www.topografix.com/GPX/1/0"
 xsi:schemaLocation="http://www.topografix.com/GPX/1/0 http://www.topografix.com/GPX/1/0/gpx.xsd">
<time>2014-12-07T10:37:19Z</time>
<trk>
 <name>2014-12-07 @ 13-37-19</name>
 <trkseg>
  <trkpt lat="43.500570" lon="39.913335">
    <ele>40</ele>
    <time>2014-12-07T10:37:19Z</time>
    <speed>0.0</speed>
  </trkpt>
  <trkpt lat="43.500609" lon="39.913371">
    <ele>41</ele>
    <time>2014-12-07T10:37:32Z</time>
    <speed>0.40195593</speed>
  </trkpt>
  <trkpt lat="43.500673" lon="39.913593">
    <ele>40</ele>
    <time>2014-12-07T10:37:34Z</time>
    <speed>8.0</speed>
  </trkpt>
  <trkpt lat="43.500706" lon="39.913772">
    <ele>39</ele>
    <time>2014-12-07T10:37:36Z</time>
    <speed>6.75</speed>
  </trkpt>
  <trkpt lat="43.500759" lon="39.913887">
    <ele>39</ele>
    <time>2014-12-07T10:37:38Z</time>
    <speed>4.5</speed>
  </trkpt>
  <trkpt lat="43.500821" lon="39.913942">
    <ele>37</ele>
    <time>2014-12-07T10:37:40Z</time>
    <speed>4.0</speed>
  </trkpt>
  <trkpt lat="43.500897" lon="39.913995">
    <ele>38</ele>
    <time>2014-12-07T10:37:42Z</time>
    <speed>4.5</speed>
  </trkpt>
  <trkpt lat="43.501020" lon="39.914036">
    <ele>38</ele>
    <time>2014-12-07T10:37:46Z</time>
    <speed>3.75</speed>
  </trkpt>
  <trkpt lat="43.501081" lon="39.914046">
    <ele>38</ele>
    <time>2014-12-07T10:37:48Z</time>
    <speed>3.5</speed>
  </trkpt>
  <trkpt lat="43.501143" lon="39.914074">
    <ele>36</ele>
    <time>2014-12-07T10:37:50Z</time>
    <speed>4.25</speed>
  </trkpt>
  <trkpt lat="43.501198" lon="39.914156">
    <ele>37</ele>
    <time>2014-12-07T10:37:52Z</time>
    <speed>5.5</speed>
  </trkpt>
  <trkpt lat="43.501276" lon="39.914391">
    <ele>37</ele>
    <time>2014-12-07T10:37:55Z</time>
    <speed>7.5</speed>
  </trkpt>
  <trkpt lat="43.501328" lon="39.914556">
    <ele>36</ele>
    <time>2014-12-07T10:37:57Z</time>
    <speed>7.25</speed>
  </trkpt>
  <trkpt lat="43.501391" lon="39.914717">
    <ele>35</ele>
    <time>2014-12-07T10:37:59Z</time>
    <speed>7.75</speed>
  </trkpt>
  <trkpt lat="43.501496" lon="39.914869">
    <ele>35</ele>
    <time>2014-12-07T10:38:01Z</time>
    <speed>8.75</speed>
  </trkpt>
  <trkpt lat="43.501638" lon="39.915058">
    <ele>37</ele>
    <time>2014-12-07T10:38:03Z</time>
    <speed>11.5</speed>
  </trkpt>
  <trkpt lat="43.501840" lon="39.915298">
    <ele>34</ele>
    <time>2014-12-07T10:38:05Z</time>
    <speed>14.75</speed>
  </trkpt>
  <trkpt lat="43.502012" lon="39.915561">
    <ele>35</ele>
    <time>2014-12-07T10:38:07Z</time>
    <speed>14.5</speed>
  </trkpt>
  <trkpt lat="43.502278" lon="39.915936">
    <ele>34</ele>
    <time>2014-12-07T10:38:10Z</time>
    <speed>13.0</speed>
  </trkpt>
  <trkpt lat="43.502698" lon="39.916437">
    <ele>38</ele>
    <time>2014-12-07T10:38:15Z</time>
    <speed>12.0</speed>
  </trkpt>
  <trkpt lat="43.502835" lon="39.916621">
    <ele>37</ele>
    <time>2014-12-07T10:38:17Z</time>
    <speed>10.25</speed>
  </trkpt>
  <trkpt lat="43.503025" lon="39.916788">
    <ele>37</ele>
    <time>2014-12-07T10:38:19Z</time>
    <speed>13.5</speed>
  </trkpt>
  <trkpt lat="43.503278" lon="39.917022">
    <ele>38</ele>
    <time>2014-12-07T10:38:21Z</time>
    <speed>16.0</speed>
  </trkpt>
  <trkpt lat="43.503552" lon="39.917297">
    <ele>42</ele>
    <time>2014-12-07T10:38:24Z</time>
    <speed>13.0</speed>
  </trkpt>
  <trkpt lat="43.503747" lon="39.917500">
    <ele>42</ele>
    <time>2014-12-07T10:38:26Z</time>
    <speed>12.75</speed>
  </trkpt>
  <trkpt lat="43.504148" lon="39.917735">
    <ele>41</ele>
    <time>2014-12-07T10:38:30Z</time>
    <speed>11.0</speed>
  </trkpt>
  <trkpt lat="43.504465" lon="39.917712">
    <ele>39</ele>
    <time>2014-12-07T10:38:34Z</time>
    <speed>9.0</speed>
  </trkpt>
  <trkpt lat="43.504579" lon="39.917638">
    <ele>40</ele>
    <time>2014-12-07T10:38:36Z</time>
    <speed>8.0</speed>
  </trkpt>
  <trkpt lat="43.504717" lon="39.917629">
    <ele>41</ele>
    <time>2014-12-07T10:38:38Z</time>
    <speed>7.5</speed>
  </trkpt>
  <trkpt lat="43.505141" lon="39.917852">
    <ele>41</ele>
    <time>2014-12-07T10:38:45Z</time>
    <speed>4.75</speed>
  </trkpt>
  <trkpt lat="43.505186" lon="39.917929">
    <ele>41</ele>
    <time>2014-12-07T10:38:47Z</time>
    <speed>3.5</speed>
  </trkpt>
  <trkpt lat="43.505227" lon="39.917996">
    <ele>39</ele>
    <time>2014-12-07T10:38:49Z</time>
    <speed>3.0</speed>
  </trkpt>
  <trkpt lat="43.505222" lon="39.918073">
    <ele>39</ele>
    <time>2014-12-07T10:38:51Z</time>
    <speed>2.5</speed>
  </trkpt>
  <trkpt lat="43.505213" lon="39.918137">
    <ele>40</ele>
    <time>2014-12-07T10:38:53Z</time>
    <speed>2.75</speed>
  </trkpt>
  <trkpt lat="43.505213" lon="39.918220">
    <ele>41</ele>
    <time>2014-12-07T10:38:55Z</time>
    <speed>2.75</speed>
  </trkpt>
  <trkpt lat="43.505260" lon="39.918269">
    <ele>41</ele>
    <time>2014-12-07T10:38:57Z</time>
    <speed>3.0</speed>
  </trkpt>
  <trkpt lat="43.505330" lon="39.918321">
    <ele>42</ele>
    <time>2014-12-07T10:38:59Z</time>
    <speed>3.75</speed>
  </trkpt>
  <trkpt lat="43.505467" lon="39.918370">
    <ele>43</ele>
    <time>2014-12-07T10:39:01Z</time>
    <speed>4.25</speed>
  </trkpt>
  <trkpt lat="43.505588" lon="39.918432">
    <ele>44</ele>
    <time>2014-12-07T10:39:04Z</time>
    <speed>4.75</speed>
  </trkpt>
  <trkpt lat="43.505781" lon="39.918528">
    <ele>44</ele>
    <time>2014-12-07T10:39:07Z</time>
    <speed>6.25</speed>
  </trkpt>
  <trkpt lat="43.505992" lon="39.918447">
    <ele>48</ele>
    <time>2014-12-07T10:39:12Z</time>
    <speed>3.75</speed>
  </trkpt>
  <trkpt lat="43.506069" lon="39.918446">
    <ele>49</ele>
    <time>2014-12-07T10:39:14Z</time>
    <speed>4.0</speed>
  </trkpt>
  <trkpt lat="43.506117" lon="39.918440">
    <ele>50</ele>
    <time>2014-12-07T10:39:16Z</time>
    <speed>3.25</speed>
  </trkpt>
  <trkpt lat="43.506197" lon="39.918422">
    <ele>51</ele>
    <time>2014-12-07T10:39:18Z</time>
    <speed>3.25</speed>
  </trkpt>
  <trkpt lat="43.506330" lon="39.918395">
    <ele>51</ele>
    <time>2014-12-07T10:39:21Z</time>
    <speed>4.0</speed>
  </trkpt>
  <trkpt lat="43.506396" lon="39.918390">
    <ele>50</ele>
    <time>2014-12-07T10:39:23Z</time>
    <speed>4.0</speed>
  </trkpt>
  <trkpt lat="43.506455" lon="39.918380">
    <ele>52</ele>
    <time>2014-12-07T10:39:25Z</time>
    <speed>3.75</speed>
  </trkpt>
  <trkpt lat="43.506504" lon="39.918375">
    <ele>49</ele>
    <time>2014-12-07T10:39:29Z</time>
    <speed>1.25</speed>
  </trkpt>
  <trkpt lat="43.506546" lon="39.918425">
    <ele>52</ele>
    <time>2014-12-07T10:40:07Z</time>
    <speed>1.5</speed>
  </trkpt>
  <trkpt lat="43.506599" lon="39.918396">
    <ele>50</ele>
    <time>2014-12-07T10:40:17Z</time>
    <speed>2.5</speed>
  </trkpt>
  <trkpt lat="43.506661" lon="39.918324">
    <ele>50</ele>
    <time>2014-12-07T10:40:19Z</time>
    <speed>3.75</speed>
  </trkpt>
  <trkpt lat="43.506749" lon="39.918303">
    <ele>46</ele>
    <time>2014-12-07T10:40:21Z</time>
    <speed>3.75</speed>
  </trkpt>
  <trkpt lat="43.506852" lon="39.918324">
    <ele>47</ele>
    <time>2014-12-07T10:40:23Z</time>
    <speed>4.0</speed>
  </trkpt>
  <trkpt lat="43.506964" lon="39.918345">
    <ele>44</ele>
    <time>2014-12-07T10:40:25Z</time>
    <speed>4.75</speed>
  </trkpt>
  <trkpt lat="43.507078" lon="39.918324">
    <ele>42</ele>
    <time>2014-12-07T10:40:27Z</time>
    <speed>4.5</speed>
  </trkpt>
  <trkpt lat="43.507168" lon="39.918295">
    <ele>40</ele>
    <time>2014-12-07T10:40:29Z</time>
    <speed>4.25</speed>
  </trkpt>
  <trkpt lat="43.507242" lon="39.918281">
    <ele>40</ele>
    <time>2014-12-07T10:40:31Z</time>
    <speed>3.5</speed>
  </trkpt>
  <trkpt lat="43.507303" lon="39.918271">
    <ele>39</ele>
    <time>2014-12-07T10:40:33Z</time>
    <speed>3.0</speed>
  </trkpt>
  <trkpt lat="43.507357" lon="39.918276">
    <ele>36</ele>
    <time>2014-12-07T10:40:35Z</time>
    <speed>2.5</speed>
  </trkpt>
  <trkpt lat="43.507409" lon="39.918288">
    <ele>34</ele>
    <time>2014-12-07T10:40:37Z</time>
    <speed>2.25</speed>
  </trkpt>
  <trkpt lat="43.507476" lon="39.918290">
    <ele>33</ele>
    <time>2014-12-07T10:40:40Z</time>
    <speed>2.25</speed>
  </trkpt>
  <trkpt lat="43.507526" lon="39.918278">
    <ele>34</ele>
    <time>2014-12-07T10:40:42Z</time>
    <speed>2.25</speed>
  </trkpt>
  <trkpt lat="43.507581" lon="39.918262">
    <ele>34</ele>
    <time>2014-12-07T10:40:44Z</time>
    <speed>2.5</speed>
  </trkpt>
  <trkpt lat="43.507667" lon="39.918251">
    <ele>37</ele>
    <time>2014-12-07T10:40:46Z</time>
    <speed>3.5</speed>
  </trkpt>
  <trkpt lat="43.507769" lon="39.918234">
    <ele>40</ele>
    <time>2014-12-07T10:40:48Z</time>
    <speed>4.0</speed>
  </trkpt>
  <trkpt lat="43.507880" lon="39.918181">
    <ele>42</ele>
    <time>2014-12-07T10:40:50Z</time>
    <speed>5.25</speed>
  </trkpt>
  <trkpt lat="43.508010" lon="39.918034">
    <ele>41</ele>
    <time>2014-12-07T10:40:52Z</time>
    <speed>5.25</speed>
  </trkpt>
  <trkpt lat="43.508058" lon="39.917997">
    <ele>47</ele>
    <time>2014-12-07T10:40:55Z</time>
    <speed>2.25</speed>
  </trkpt>
  <trkpt lat="43.508099" lon="39.917899">
    <ele>52</ele>
    <time>2014-12-07T10:40:57Z</time>
    <speed>4.0</speed>
  </trkpt>
  <trkpt lat="43.508146" lon="39.917827">
    <ele>53</ele>
    <time>2014-12-07T10:40:59Z</time>
    <speed>2.5</speed>
  </trkpt>
  <trkpt lat="43.508196" lon="39.917784">
    <ele>52</ele>
    <time>2014-12-07T10:41:03Z</time>
    <speed>1.5</speed>
  </trkpt>
  <trkpt lat="43.508250" lon="39.917746">
    <ele>52</ele>
    <time>2014-12-07T10:41:06Z</time>
    <speed>2.0</speed>
  </trkpt>
  <trkpt lat="43.508330" lon="39.917677">
    <ele>52</ele>
    <time>2014-12-07T10:41:08Z</time>
    <speed>3.75</speed>
  </trkpt>
  <trkpt lat="43.508409" lon="39.917599">
    <ele>56</ele>
    <time>2014-12-07T10:41:10Z</time>
    <speed>3.75</speed>
  </trkpt>
  <trkpt lat="43.508467" lon="39.917510">
    <ele>58</ele>
    <time>2014-12-07T10:41:12Z</time>
    <speed>3.25</speed>
  </trkpt>
  <trkpt lat="43.508501" lon="39.917445">
    <ele>57</ele>
    <time>2014-12-07T10:41:14Z</time>
    <speed>2.0</speed>
  </trkpt>
  <trkpt lat="43.508544" lon="39.917401">
    <ele>58</ele>
    <time>2014-12-07T10:41:16Z</time>
    <speed>2.0</speed>
  </trkpt>
  <trkpt lat="43.508589" lon="39.917376">
    <ele>55</ele>
    <time>2014-12-07T10:41:18Z</time>
    <speed>1.75</speed>
  </trkpt>
  <trkpt lat="43.508652" lon="39.917359">
    <ele>52</ele>
    <time>2014-12-07T10:41:29Z</time>
    <speed>1.5</speed>
  </trkpt>
  <trkpt lat="43.508718" lon="39.917369">
    <ele>52</ele>
    <time>2014-12-07T10:41:31Z</time>
    <speed>2.75</speed>
  </trkpt>
  <trkpt lat="43.508768" lon="39.917334">
    <ele>55</ele>
    <time>2014-12-07T10:41:33Z</time>
    <speed>2.25</speed>
  </trkpt>
  <trkpt lat="43.508812" lon="39.917291">
    <ele>56</ele>
    <time>2014-12-07T10:41:35Z</time>
    <speed>2.25</speed>
  </trkpt>
  <trkpt lat="43.508865" lon="39.917262">
    <ele>60</ele>
    <time>2014-12-07T10:41:38Z</time>
    <speed>1.25</speed>
  </trkpt>
  <trkpt lat="43.508917" lon="39.917275">
    <ele>58</ele>
    <time>2014-12-07T10:41:41Z</time>
    <speed>0.0</speed>
  </trkpt>
  <trkpt lat="43.508966" lon="39.917273">
    <ele>55</ele>
    <time>2014-12-07T10:41:49Z</time>
    <speed>0.66781443</speed>
  </trkpt>
  <trkpt lat="43.509028" lon="39.917278">
    <ele>53</ele>
    <time>2014-12-07T10:41:53Z</time>
    <speed>1.5</speed>
  </trkpt>
  <trkpt lat="43.509058" lon="39.917365">
    <ele>49</ele>
    <time>2014-12-07T10:42:00Z</time>
    <speed>1.5</speed>
  </trkpt>
  <trkpt lat="43.509096" lon="39.917424">
    <ele>47</ele>
    <time>2014-12-07T10:42:02Z</time>
    <speed>1.5</speed>
  </trkpt>
  <trkpt lat="43.509120" lon="39.917487">
    <ele>45</ele>
    <time>2014-12-07T10:42:04Z</time>
    <speed>1.5</speed>
  </trkpt>
  <trkpt lat="43.509141" lon="39.917544">
    <ele>41</ele>
    <time>2014-12-07T10:42:06Z</time>
    <speed>1.25</speed>
  </trkpt>
  <trkpt lat="43.509181" lon="39.917610">
    <ele>37</ele>
    <time>2014-12-07T10:42:09Z</time>
    <speed>1.5</speed>
  </trkpt>
  <trkpt lat="43.509228" lon="39.917657">
    <ele>32</ele>
    <time>2014-12-07T10:42:11Z</time>
    <speed>1.75</speed>
  </trkpt>
  <trkpt lat="43.509278" lon="39.917765">
    <ele>33</ele>
    <time>2014-12-07T10:42:13Z</time>
    <speed>4.25</speed>
  </trkpt>
  <trkpt lat="43.509327" lon="39.917863">
    <ele>34</ele>
    <time>2014-12-07T10:42:15Z</time>
    <speed>4.0</speed>
  </trkpt>
  <trkpt lat="43.509377" lon="39.917945">
    <ele>35</ele>
    <time>2014-12-07T10:42:17Z</time>
    <speed>3.75</speed>
  </trkpt>
  <trkpt lat="43.509427" lon="39.918009">
    <ele>33</ele>
    <time>2014-12-07T10:42:19Z</time>
    <speed>3.0</speed>
  </trkpt>
  <trkpt lat="43.509486" lon="39.918054">
    <ele>34</ele>
    <time>2014-12-07T10:42:21Z</time>
    <speed>3.0</speed>
  </trkpt>
  <trkpt lat="43.509547" lon="39.918097">
    <ele>34</ele>
    <time>2014-12-07T10:42:23Z</time>
    <speed>3.0</speed>
  </trkpt>
  <trkpt lat="43.509587" lon="39.918169">
    <ele>33</ele>
    <time>2014-12-07T10:42:25Z</time>
    <speed>3.0</speed>
  </trkpt>
  <trkpt lat="43.509607" lon="39.918255">
    <ele>33</ele>
    <time>2014-12-07T10:42:27Z</time>
    <speed>3.0</speed>
  </trkpt>
  <trkpt lat="43.509624" lon="39.918333">
    <ele>30</ele>
    <time>2014-12-07T10:42:29Z</time>
    <speed>3.0</speed>
  </trkpt>
  <trkpt lat="43.509644" lon="39.918401">
    <ele>29</ele>
    <time>2014-12-07T10:42:31Z</time>
    <speed>2.5</speed>
  </trkpt>
  <trkpt lat="43.509671" lon="39.918458">
    <ele>28</ele>
    <time>2014-12-07T10:42:33Z</time>
    <speed>2.5</speed>
  </trkpt>
  <trkpt lat="43.509706" lon="39.918501">
    <ele>28</ele>
    <time>2014-12-07T10:42:35Z</time>
    <speed>2.5</speed>
  </trkpt>
  <trkpt lat="43.509746" lon="39.918568">
    <ele>27</ele>
    <time>2014-12-07T10:42:38Z</time>
    <speed>2.25</speed>
  </trkpt>
  <trkpt lat="43.509797" lon="39.918639">
    <ele>26</ele>
    <time>2014-12-07T10:42:41Z</time>
    <speed>2.25</speed>
  </trkpt>
  <trkpt lat="43.509847" lon="39.918705">
    <ele>26</ele>
    <time>2014-12-07T10:42:43Z</time>
    <speed>3.0</speed>
  </trkpt>
  <trkpt lat="43.509899" lon="39.918778">
    <ele>26</ele>
    <time>2014-12-07T10:42:45Z</time>
    <speed>3.25</speed>
  </trkpt>
  <trkpt lat="43.509939" lon="39.918871">
    <ele>26</ele>
    <time>2014-12-07T10:42:47Z</time>
    <speed>3.5</speed>
  </trkpt>
  <trkpt lat="43.509960" lon="39.918963">
    <ele>24</ele>
    <time>2014-12-07T10:42:49Z</time>
    <speed>3.25</speed>
  </trkpt>
  <trkpt lat="43.509918" lon="39.918989">
    <ele>21</ele>
    <time>2014-12-07T10:42:53Z</time>
    <speed>0.0</speed>
  </trkpt>
  <trkpt lat="43.509966" lon="39.919011">
    <ele>31</ele>
    <time>2014-12-07T10:44:15Z</time>
    <speed>0.06917164</speed>
  </trkpt>
  <trkpt lat="43.510022" lon="39.919007">
    <ele>29</ele>
    <time>2014-12-07T10:44:17Z</time>
    <speed>1.75</speed>
  </trkpt>
  <trkpt lat="43.510107" lon="39.918982">
    <ele>29</ele>
    <time>2014-12-07T10:44:19Z</time>
    <speed>2.5</speed>
  </trkpt>
  <trkpt lat="43.510177" lon="39.918929">
    <ele>30</ele>
    <time>2014-12-07T10:44:21Z</time>
    <speed>2.5</speed>
  </trkpt>
  <trkpt lat="43.510237" lon="39.918876">
    <ele>35</ele>
    <time>2014-12-07T10:44:23Z</time>
    <speed>2.5</speed>
  </trkpt>
  <trkpt lat="43.510297" lon="39.918832">
    <ele>38</ele>
    <time>2014-12-07T10:44:25Z</time>
    <speed>2.25</speed>
  </trkpt>
  <trkpt lat="43.510351" lon="39.918805">
    <ele>42</ele>
    <time>2014-12-07T10:44:27Z</time>
    <speed>2.25</speed>
  </trkpt>
  <trkpt lat="43.510396" lon="39.918790">
    <ele>46</ele>
    <time>2014-12-07T10:44:29Z</time>
    <speed>1.75</speed>
  </trkpt>
  <trkpt lat="43.510453" lon="39.918746">
    <ele>46</ele>
    <time>2014-12-07T10:44:32Z</time>
    <speed>2.0</speed>
  </trkpt>
  <trkpt lat="43.510496" lon="39.918719">
    <ele>49</ele>
    <time>2014-12-07T10:44:34Z</time>
    <speed>2.0</speed>
  </trkpt>
  <trkpt lat="43.510544" lon="39.918678">
    <ele>53</ele>
    <time>2014-12-07T10:44:37Z</time>
    <speed>1.5</speed>
  </trkpt>
  <trkpt lat="43.510593" lon="39.918655">
    <ele>51</ele>
    <time>2014-12-07T10:44:40Z</time>
    <speed>1.25</speed>
  </trkpt>
  <trkpt lat="43.510636" lon="39.918590">
    <ele>53</ele>
    <time>2014-12-07T10:44:43Z</time>
    <speed>2.0</speed>
  </trkpt>
  <trkpt lat="43.510665" lon="39.918510">
    <ele>52</ele>
    <time>2014-12-07T10:44:45Z</time>
    <speed>3.0</speed>
  </trkpt>
  <trkpt lat="43.510713" lon="39.918399">
    <ele>51</ele>
    <time>2014-12-07T10:44:47Z</time>
    <speed>4.25</speed>
  </trkpt>
  <trkpt lat="43.510765" lon="39.918302">
    <ele>52</ele>
    <time>2014-12-07T10:44:49Z</time>
    <speed>4.25</speed>
  </trkpt>
  <trkpt lat="43.510812" lon="39.918198">
    <ele>49</ele>
    <time>2014-12-07T10:44:51Z</time>
    <speed>4.25</speed>
  </trkpt>
  <trkpt lat="43.510866" lon="39.918105">
    <ele>54</ele>
    <time>2014-12-07T10:44:53Z</time>
    <speed>4.25</speed>
  </trkpt>
  <trkpt lat="43.510926" lon="39.918040">
    <ele>56</ele>
    <time>2014-12-07T10:44:55Z</time>
    <speed>3.5</speed>
  </trkpt>
  <trkpt lat="43.510969" lon="39.917980">
    <ele>58</ele>
    <time>2014-12-07T10:44:57Z</time>
    <speed>3.25</speed>
  </trkpt>
  <trkpt lat="43.511001" lon="39.917899">
    <ele>56</ele>
    <time>2014-12-07T10:44:59Z</time>
    <speed>3.5</speed>
  </trkpt>
  <trkpt lat="43.511023" lon="39.917812">
    <ele>54</ele>
    <time>2014-12-07T10:45:01Z</time>
    <speed>3.5</speed>
  </trkpt>
  <trkpt lat="43.511032" lon="39.917736">
    <ele>55</ele>
    <time>2014-12-07T10:45:03Z</time>
    <speed>3.0</speed>
  </trkpt>
  <trkpt lat="43.511046" lon="39.917647">
    <ele>52</ele>
    <time>2014-12-07T10:45:06Z</time>
    <speed>2.5</speed>
  </trkpt>
  <trkpt lat="43.511065" lon="39.917585">
    <ele>51</ele>
    <time>2014-12-07T10:45:08Z</time>
    <speed>2.75</speed>
  </trkpt>
  <trkpt lat="43.511084" lon="39.917528">
    <ele>51</ele>
    <time>2014-12-07T10:45:10Z</time>
    <speed>2.5</speed>
  </trkpt>
  <trkpt lat="43.511130" lon="39.917479">
    <ele>52</ele>
    <time>2014-12-07T10:45:13Z</time>
    <speed>2.25</speed>
  </trkpt>
  <trkpt lat="43.511175" lon="39.917459">
    <ele>51</ele>
    <time>2014-12-07T10:45:15Z</time>
    <speed>2.25</speed>
  </trkpt>
  <trkpt lat="43.511218" lon="39.917435">
    <ele>50</ele>
    <time>2014-12-07T10:45:17Z</time>
    <speed>2.0</speed>
  </trkpt>
  <trkpt lat="43.511278" lon="39.917383">
    <ele>51</ele>
    <time>2014-12-07T10:45:20Z</time>
    <speed>2.25</speed>
  </trkpt>
  <trkpt lat="43.511333" lon="39.917310">
    <ele>51</ele>
    <time>2014-12-07T10:45:22Z</time>
    <speed>4.0</speed>
  </trkpt>
  <trkpt lat="43.511366" lon="39.917240">
    <ele>51</ele>
    <time>2014-12-07T10:45:24Z</time>
    <speed>3.0</speed>
  </trkpt>
  <trkpt lat="43.511387" lon="39.917173">
    <ele>53</ele>
    <time>2014-12-07T10:45:26Z</time>
    <speed>3.0</speed>
  </trkpt>
  <trkpt lat="43.511414" lon="39.917101">
    <ele>56</ele>
    <time>2014-12-07T10:45:28Z</time>
    <speed>3.0</speed>
  </trkpt>
  <trkpt lat="43.511464" lon="39.917021">
    <ele>60</ele>
    <time>2014-12-07T10:45:30Z</time>
    <speed>4.0</speed>
  </trkpt>
  <trkpt lat="43.511544" lon="39.916962">
    <ele>61</ele>
    <time>2014-12-07T10:45:32Z</time>
    <speed>4.25</speed>
  </trkpt>
  <trkpt lat="43.511752" lon="39.916985">
    <ele>58</ele>
    <time>2014-12-07T10:45:34Z</time>
    <speed>5.75</speed>
  </trkpt>
  <trkpt lat="43.511821" lon="39.916953">
    <ele>60</ele>
    <time>2014-12-07T10:45:36Z</time>
    <speed>3.25</speed>
  </trkpt>
  <trkpt lat="43.511885" lon="39.916932">
    <ele>59</ele>
    <time>2014-12-07T10:45:39Z</time>
    <speed>3.75</speed>
  </trkpt>
  <trkpt lat="43.511925" lon="39.916892">
    <ele>60</ele>
    <time>2014-12-07T10:45:41Z</time>
    <speed>2.5</speed>
  </trkpt>
  <trkpt lat="43.511950" lon="39.916840">
    <ele>61</ele>
    <time>2014-12-07T10:45:43Z</time>
    <speed>2.75</speed>
  </trkpt>
  <trkpt lat="43.511997" lon="39.916781">
    <ele>61</ele>
    <time>2014-12-07T10:45:45Z</time>
    <speed>2.75</speed>
  </trkpt>
  <trkpt lat="43.512025" lon="39.916721">
    <ele>62</ele>
    <time>2014-12-07T10:45:47Z</time>
    <speed>2.5</speed>
  </trkpt>
  <trkpt lat="43.512026" lon="39.916653">
    <ele>62</ele>
    <time>2014-12-07T10:45:49Z</time>
    <speed>2.75</speed>
  </trkpt>
  <trkpt lat="43.512032" lon="39.916571">
    <ele>61</ele>
    <time>2014-12-07T10:45:51Z</time>
    <speed>2.75</speed>
  </trkpt>
  <trkpt lat="43.512045" lon="39.916471">
    <ele>61</ele>
    <time>2014-12-07T10:45:53Z</time>
    <speed>3.75</speed>
  </trkpt>
  <trkpt lat="43.512047" lon="39.916373">
    <ele>62</ele>
    <time>2014-12-07T10:45:55Z</time>
    <speed>3.75</speed>
  </trkpt>
  <trkpt lat="43.512076" lon="39.916304">
    <ele>60</ele>
    <time>2014-12-07T10:45:57Z</time>
    <speed>3.25</speed>
  </trkpt>
  <trkpt lat="43.512131" lon="39.916274">
    <ele>60</ele>
    <time>2014-12-07T10:45:59Z</time>
    <speed>3.5</speed>
  </trkpt>
  <trkpt lat="43.512218" lon="39.916226">
    <ele>61</ele>
    <time>2014-12-07T10:46:01Z</time>
    <speed>4.25</speed>
  </trkpt>
  <trkpt lat="43.512390" lon="39.916154">
    <ele>60</ele>
    <time>2014-12-07T10:46:03Z</time>
    <speed>6.5</speed>
  </trkpt>
  <trkpt lat="43.512487" lon="39.916072">
    <ele>62</ele>
    <time>2014-12-07T10:46:05Z</time>
    <speed>5.75</speed>
  </trkpt>
  <trkpt lat="43.512582" lon="39.916001">
    <ele>61</ele>
    <time>2014-12-07T10:46:07Z</time>
    <speed>6.0</speed>
  </trkpt>
  <trkpt lat="43.512685" lon="39.915945">
    <ele>62</ele>
    <time>2014-12-07T10:46:09Z</time>
    <speed>5.75</speed>
  </trkpt>
  <trkpt lat="43.512737" lon="39.915875">
    <ele>61</ele>
    <time>2014-12-07T10:46:11Z</time>
    <speed>3.0</speed>
  </trkpt>
  <trkpt lat="43.512788" lon="39.915823">
    <ele>60</ele>
    <time>2014-12-07T10:46:13Z</time>
    <speed>3.0</speed>
  </trkpt>
  <trkpt lat="43.512845" lon="39.915747">
    <ele>60</ele>
    <time>2014-12-07T10:46:15Z</time>
    <speed>4.0</speed>
  </trkpt>
  <trkpt lat="43.512890" lon="39.915682">
    <ele>60</ele>
    <time>2014-12-07T10:46:18Z</time>
    <speed>2.5</speed>
  </trkpt>
  <trkpt lat="43.512975" lon="39.915624">
    <ele>63</ele>
    <time>2014-12-07T10:46:20Z</time>
    <speed>3.75</speed>
  </trkpt>
  <trkpt lat="43.513041" lon="39.915546">
    <ele>61</ele>
    <time>2014-12-07T10:46:22Z</time>
    <speed>4.25</speed>
  </trkpt>
  <trkpt lat="43.513098" lon="39.915424">
    <ele>60</ele>
    <time>2014-12-07T10:46:24Z</time>
    <speed>5.0</speed>
  </trkpt>
  <trkpt lat="43.513146" lon="39.915354">
    <ele>56</ele>
    <time>2014-12-07T10:46:26Z</time>
    <speed>3.5</speed>
  </trkpt>
  <trkpt lat="43.513230" lon="39.915284">
    <ele>56</ele>
    <time>2014-12-07T10:46:28Z</time>
    <speed>4.25</speed>
  </trkpt>
  <trkpt lat="43.513281" lon="39.915223">
    <ele>57</ele>
    <time>2014-12-07T10:46:30Z</time>
    <speed>3.5</speed>
  </trkpt>
  <trkpt lat="43.513322" lon="39.915171">
    <ele>61</ele>
    <time>2014-12-07T10:46:33Z</time>
    <speed>2.25</speed>
  </trkpt>
  <trkpt lat="43.513357" lon="39.915130">
    <ele>63</ele>
    <time>2014-12-07T10:46:35Z</time>
    <speed>2.25</speed>
  </trkpt>
  <trkpt lat="43.513398" lon="39.915094">
    <ele>63</ele>
    <time>2014-12-07T10:46:38Z</time>
    <speed>1.5</speed>
  </trkpt>
  <trkpt lat="43.513468" lon="39.915129">
    <ele>65</ele>
    <time>2014-12-07T10:46:41Z</time>
    <speed>2.75</speed>
  </trkpt>
  <trkpt lat="43.513535" lon="39.915188">
    <ele>63</ele>
    <time>2014-12-07T10:46:43Z</time>
    <speed>3.0</speed>
  </trkpt>
  <trkpt lat="43.513594" lon="39.915233">
    <ele>66</ele>
    <time>2014-12-07T10:46:45Z</time>
    <speed>3.0</speed>
  </trkpt>
  <trkpt lat="43.513637" lon="39.915254">
    <ele>64</ele>
    <time>2014-12-07T10:46:47Z</time>
    <speed>2.0</speed>
  </trkpt>
  <trkpt lat="43.513691" lon="39.915246">
    <ele>59</ele>
    <time>2014-12-07T10:46:49Z</time>
    <speed>2.5</speed>
  </trkpt>
  <trkpt lat="43.513748" lon="39.915209">
    <ele>60</ele>
    <time>2014-12-07T10:46:51Z</time>
    <speed>2.75</speed>
  </trkpt>
  <trkpt lat="43.513813" lon="39.915150">
    <ele>60</ele>
    <time>2014-12-07T10:46:53Z</time>
    <speed>3.75</speed>
  </trkpt>
  <trkpt lat="43.513872" lon="39.915100">
    <ele>60</ele>
    <time>2014-12-07T10:46:55Z</time>
    <speed>3.25</speed>
  </trkpt>
  <trkpt lat="43.513920" lon="39.915024">
    <ele>60</ele>
    <time>2014-12-07T10:46:57Z</time>
    <speed>3.5</speed>
  </trkpt>
  <trkpt lat="43.513965" lon="39.914952">
    <ele>59</ele>
    <time>2014-12-07T10:46:59Z</time>
    <speed>3.5</speed>
  </trkpt>
  <trkpt lat="43.514014" lon="39.914886">
    <ele>60</ele>
    <time>2014-12-07T10:47:01Z</time>
    <speed>3.5</speed>
  </trkpt>
  <trkpt lat="43.514064" lon="39.914824">
    <ele>60</ele>
    <time>2014-12-07T10:47:03Z</time>
    <speed>3.5</speed>
  </trkpt>
  <trkpt lat="43.514109" lon="39.914751">
    <ele>60</ele>
    <time>2014-12-07T10:47:05Z</time>
    <speed>3.5</speed>
  </trkpt>
  <trkpt lat="43.514150" lon="39.914640">
    <ele>59</ele>
    <time>2014-12-07T10:47:07Z</time>
    <speed>4.5</speed>
  </trkpt>
  <trkpt lat="43.514182" lon="39.914531">
    <ele>61</ele>
    <time>2014-12-07T10:47:09Z</time>
    <speed>4.5</speed>
  </trkpt>
  <trkpt lat="43.514222" lon="39.914438">
    <ele>57</ele>
    <time>2014-12-07T10:47:11Z</time>
    <speed>4.25</speed>
  </trkpt>
  <trkpt lat="43.514259" lon="39.914373">
    <ele>60</ele>
    <time>2014-12-07T10:47:13Z</time>
    <speed>3.5</speed>
  </trkpt>
  <trkpt lat="43.514325" lon="39.914319">
    <ele>62</ele>
    <time>2014-12-07T10:47:15Z</time>
    <speed>4.0</speed>
  </trkpt>
  <trkpt lat="43.514428" lon="39.914272">
    <ele>63</ele>
    <time>2014-12-07T10:47:17Z</time>
    <speed>5.75</speed>
  </trkpt>
  <trkpt lat="43.514523" lon="39.914207">
    <ele>65</ele>
    <time>2014-12-07T10:47:19Z</time>
    <speed>5.0</speed>
  </trkpt>
  <trkpt lat="43.514590" lon="39.914116">
    <ele>65</ele>
    <time>2014-12-07T10:47:21Z</time>
    <speed>5.0</speed>
  </trkpt>
  <trkpt lat="43.514708" lon="39.914004">
    <ele>67</ele>
    <time>2014-12-07T10:47:23Z</time>
    <speed>5.5</speed>
  </trkpt>
  <trkpt lat="43.514731" lon="39.913924">
    <ele>72</ele>
    <time>2014-12-07T10:47:25Z</time>
    <speed>3.25</speed>
  </trkpt>
  <trkpt lat="43.514774" lon="39.913853">
    <ele>72</ele>
    <time>2014-12-07T10:47:27Z</time>
    <speed>3.25</speed>
  </trkpt>
  <trkpt lat="43.514819" lon="39.913812">
    <ele>73</ele>
    <time>2014-12-07T10:47:29Z</time>
    <speed>2.75</speed>
  </trkpt>
  <trkpt lat="43.514856" lon="39.913771">
    <ele>71</ele>
    <time>2014-12-07T10:47:32Z</time>
    <speed>1.25</speed>
  </trkpt>
  <trkpt lat="43.514890" lon="39.913719">
    <ele>70</ele>
    <time>2014-12-07T10:47:35Z</time>
    <speed>1.75</speed>
  </trkpt>
  <trkpt lat="43.514928" lon="39.913646">
    <ele>72</ele>
    <time>2014-12-07T10:47:38Z</time>
    <speed>2.25</speed>
  </trkpt>
  <trkpt lat="43.514973" lon="39.913578">
    <ele>69</ele>
    <time>2014-12-07T10:47:40Z</time>
    <speed>3.75</speed>
  </trkpt>
  <trkpt lat="43.515030" lon="39.913519">
    <ele>71</ele>
    <time>2014-12-07T10:47:42Z</time>
    <speed>3.5</speed>
  </trkpt>
  <trkpt lat="43.515087" lon="39.913491">
    <ele>71</ele>
    <time>2014-12-07T10:47:44Z</time>
    <speed>3.25</speed>
  </trkpt>
  <trkpt lat="43.515135" lon="39.913461">
    <ele>68</ele>
    <time>2014-12-07T10:47:46Z</time>
    <speed>2.75</speed>
  </trkpt>
  <trkpt lat="43.515177" lon="39.913412">
    <ele>69</ele>
    <time>2014-12-07T10:47:48Z</time>
    <speed>2.75</speed>
  </trkpt>
  <trkpt lat="43.515209" lon="39.913349">
    <ele>68</ele>
    <time>2014-12-07T10:47:50Z</time>
    <speed>3.0</speed>
  </trkpt>
  <trkpt lat="43.515245" lon="39.913291">
    <ele>68</ele>
    <time>2014-12-07T10:47:52Z</time>
    <speed>2.75</speed>
  </trkpt>
  <trkpt lat="43.515274" lon="39.913213">
    <ele>69</ele>
    <time>2014-12-07T10:47:55Z</time>
    <speed>2.5</speed>
  </trkpt>
  <trkpt lat="43.515322" lon="39.913168">
    <ele>70</ele>
    <time>2014-12-07T10:47:58Z</time>
    <speed>2.25</speed>
  </trkpt>
  <trkpt lat="43.515369" lon="39.913168">
    <ele>70</ele>
    <time>2014-12-07T10:48:00Z</time>
    <speed>2.25</speed>
  </trkpt>
  <trkpt lat="43.515421" lon="39.913164">
    <ele>69</ele>
    <time>2014-12-07T10:48:02Z</time>
    <speed>2.25</speed>
  </trkpt>
  <trkpt lat="43.515471" lon="39.913158">
    <ele>69</ele>
    <time>2014-12-07T10:48:04Z</time>
    <speed>2.0</speed>
  </trkpt>
  <trkpt lat="43.515525" lon="39.913154">
    <ele>69</ele>
    <time>2014-12-07T10:48:07Z</time>
    <speed>1.25</speed>
  </trkpt>
  <trkpt lat="43.515574" lon="39.913150">
    <ele>69</ele>
    <time>2014-12-07T10:48:09Z</time>
    <speed>2.0</speed>
  </trkpt>
  <trkpt lat="43.515653" lon="39.913150">
    <ele>68</ele>
    <time>2014-12-07T10:48:11Z</time>
    <speed>3.5</speed>
  </trkpt>
  <trkpt lat="43.515729" lon="39.913142">
    <ele>69</ele>
    <time>2014-12-07T10:48:13Z</time>
    <speed>3.25</speed>
  </trkpt>
  <trkpt lat="43.515792" lon="39.913115">
    <ele>70</ele>
    <time>2014-12-07T10:48:15Z</time>
    <speed>3.0</speed>
  </trkpt>
  <trkpt lat="43.515860" lon="39.913099">
    <ele>69</ele>
    <time>2014-12-07T10:48:17Z</time>
    <speed>3.0</speed>
  </trkpt>
  <trkpt lat="43.515927" lon="39.913087">
    <ele>68</ele>
    <time>2014-12-07T10:48:19Z</time>
    <speed>3.0</speed>
  </trkpt>
  <trkpt lat="43.515992" lon="39.913076">
    <ele>69</ele>
    <time>2014-12-07T10:48:21Z</time>
    <speed>3.25</speed>
  </trkpt>
  <trkpt lat="43.516063" lon="39.913072">
    <ele>68</ele>
    <time>2014-12-07T10:48:23Z</time>
    <speed>3.25</speed>
  </trkpt>
  <trkpt lat="43.516153" lon="39.913080">
    <ele>68</ele>
    <time>2014-12-07T10:48:25Z</time>
    <speed>3.75</speed>
  </trkpt>
  <trkpt lat="43.516252" lon="39.913096">
    <ele>68</ele>
    <time>2014-12-07T10:48:27Z</time>
    <speed>4.0</speed>
  </trkpt>
  <trkpt lat="43.516349" lon="39.913134">
    <ele>68</ele>
    <time>2014-12-07T10:48:29Z</time>
    <speed>3.75</speed>
  </trkpt>
  <trkpt lat="43.516436" lon="39.913165">
    <ele>68</ele>
    <time>2014-12-07T10:48:31Z</time>
    <speed>3.75</speed>
  </trkpt>
  <trkpt lat="43.516504" lon="39.913215">
    <ele>69</ele>
    <time>2014-12-07T10:48:33Z</time>
    <speed>3.5</speed>
  </trkpt>
  <trkpt lat="43.516562" lon="39.913289">
    <ele>72</ele>
    <time>2014-12-07T10:48:35Z</time>
    <speed>3.75</speed>
  </trkpt>
  <trkpt lat="43.516631" lon="39.913312">
    <ele>74</ele>
    <time>2014-12-07T10:48:37Z</time>
    <speed>3.5</speed>
  </trkpt>
  <trkpt lat="43.516682" lon="39.913315">
    <ele>74</ele>
    <time>2014-12-07T10:48:39Z</time>
    <speed>2.25</speed>
  </trkpt>
  <trkpt lat="43.516752" lon="39.913335">
    <ele>74</ele>
    <time>2014-12-07T10:48:42Z</time>
    <speed>2.5</speed>
  </trkpt>
  <trkpt lat="43.516822" lon="39.913359">
    <ele>71</ele>
    <time>2014-12-07T10:48:44Z</time>
    <speed>3.5</speed>
  </trkpt>
  <trkpt lat="43.516896" lon="39.913364">
    <ele>69</ele>
    <time>2014-12-07T10:48:46Z</time>
    <speed>3.5</speed>
  </trkpt>
  <trkpt lat="43.516966" lon="39.913362">
    <ele>68</ele>
    <time>2014-12-07T10:48:48Z</time>
    <speed>3.25</speed>
  </trkpt>
  <trkpt lat="43.517041" lon="39.913383">
    <ele>69</ele>
    <time>2014-12-07T10:48:50Z</time>
    <speed>3.5</speed>
  </trkpt>
  <trkpt lat="43.517132" lon="39.913405">
    <ele>69</ele>
    <time>2014-12-07T10:48:52Z</time>
    <speed>4.5</speed>
  </trkpt>
  <trkpt lat="43.517225" lon="39.913421">
    <ele>72</ele>
    <time>2014-12-07T10:48:54Z</time>
    <speed>4.5</speed>
  </trkpt>
  <trkpt lat="43.517321" lon="39.913448">
    <ele>70</ele>
    <time>2014-12-07T10:48:56Z</time>
    <speed>4.5</speed>
  </trkpt>
  <trkpt lat="43.517404" lon="39.913480">
    <ele>69</ele>
    <time>2014-12-07T10:48:58Z</time>
    <speed>4.0</speed>
  </trkpt>
  <trkpt lat="43.517448" lon="39.913517">
    <ele>69</ele>
    <time>2014-12-07T10:49:00Z</time>
    <speed>2.75</speed>
  </trkpt>
  <trkpt lat="43.517507" lon="39.913539">
    <ele>70</ele>
    <time>2014-12-07T10:49:02Z</time>
    <speed>3.0</speed>
  </trkpt>
  <trkpt lat="43.517571" lon="39.913535">
    <ele>71</ele>
    <time>2014-12-07T10:49:04Z</time>
    <speed>3.0</speed>
  </trkpt>
  <trkpt lat="43.517631" lon="39.913558">
    <ele>70</ele>
    <time>2014-12-07T10:49:06Z</time>
    <speed>3.0</speed>
  </trkpt>
  <trkpt lat="43.517692" lon="39.913614">
    <ele>67</ele>
    <time>2014-12-07T10:49:08Z</time>
    <speed>3.25</speed>
  </trkpt>
  <trkpt lat="43.517770" lon="39.913702">
    <ele>59</ele>
    <time>2014-12-07T10:49:10Z</time>
    <speed>4.25</speed>
  </trkpt>
  <trkpt lat="43.517905" lon="39.913885">
    <ele>59</ele>
    <time>2014-12-07T10:49:12Z</time>
    <speed>5.25</speed>
  </trkpt>
  <trkpt lat="43.517962" lon="39.913959">
    <ele>59</ele>
    <time>2014-12-07T10:49:14Z</time>
    <speed>4.5</speed>
  </trkpt>
  <trkpt lat="43.517995" lon="39.914026">
    <ele>59</ele>
    <time>2014-12-07T10:49:16Z</time>
    <speed>2.75</speed>
  </trkpt>
  <trkpt lat="43.518040" lon="39.914126">
    <ele>57</ele>
    <time>2014-12-07T10:49:18Z</time>
    <speed>3.25</speed>
  </trkpt>
  <trkpt lat="43.518076" lon="39.914258">
    <ele>58</ele>
    <time>2014-12-07T10:49:20Z</time>
    <speed>4.25</speed>
  </trkpt>
  <trkpt lat="43.518126" lon="39.914341">
    <ele>57</ele>
    <time>2014-12-07T10:49:22Z</time>
    <speed>3.75</speed>
  </trkpt>
  <trkpt lat="43.518154" lon="39.914392">
    <ele>60</ele>
    <time>2014-12-07T10:49:24Z</time>
    <speed>2.75</speed>
  </trkpt>
  <trkpt lat="43.518197" lon="39.914412">
    <ele>59</ele>
    <time>2014-12-07T10:49:29Z</time>
    <speed>0.5</speed>
  </trkpt>
  <trkpt lat="43.518258" lon="39.914410">
    <ele>58</ele>
    <time>2014-12-07T10:49:34Z</time>
    <speed>1.75</speed>
  </trkpt>
  <trkpt lat="43.518302" lon="39.914441">
    <ele>61</ele>
    <time>2014-12-07T10:49:36Z</time>
    <speed>2.25</speed>
  </trkpt>
  <trkpt lat="43.518345" lon="39.914492">
    <ele>62</ele>
    <time>2014-12-07T10:49:38Z</time>
    <speed>2.25</speed>
  </trkpt>
  <trkpt lat="43.518378" lon="39.914559">
    <ele>61</ele>
    <time>2014-12-07T10:49:40Z</time>
    <speed>2.5</speed>
  </trkpt>
  <trkpt lat="43.518421" lon="39.914672">
    <ele>61</ele>
    <time>2014-12-07T10:49:42Z</time>
    <speed>4.25</speed>
  </trkpt>
  <trkpt lat="43.518454" lon="39.914916">
    <ele>63</ele>
    <time>2014-12-07T10:49:44Z</time>
    <speed>4.75</speed>
  </trkpt>
  <trkpt lat="43.518461" lon="39.915058">
    <ele>65</ele>
    <time>2014-12-07T10:49:46Z</time>
    <speed>5.0</speed>
  </trkpt>
  <trkpt lat="43.518558" lon="39.915139">
    <ele>65</ele>
    <time>2014-12-07T10:49:48Z</time>
    <speed>4.75</speed>
  </trkpt>
  <trkpt lat="43.518563" lon="39.915233">
    <ele>66</ele>
    <time>2014-12-07T10:49:50Z</time>
    <speed>3.75</speed>
  </trkpt>
  <trkpt lat="43.518633" lon="39.915255">
    <ele>68</ele>
    <time>2014-12-07T10:49:52Z</time>
    <speed>2.75</speed>
  </trkpt>
  <trkpt lat="43.518629" lon="39.915328">
    <ele>71</ele>
    <time>2014-12-07T10:49:54Z</time>
    <speed>2.75</speed>
  </trkpt>
  <trkpt lat="43.518659" lon="39.915375">
    <ele>75</ele>
    <time>2014-12-07T10:49:57Z</time>
    <speed>1.5</speed>
  </trkpt>
  <trkpt lat="43.518717" lon="39.915335">
    <ele>71</ele>
    <time>2014-12-07T10:50:00Z</time>
    <speed>2.0</speed>
  </trkpt>
  <trkpt lat="43.518764" lon="39.915274">
    <ele>71</ele>
    <time>2014-12-07T10:50:02Z</time>
    <speed>2.25</speed>
  </trkpt>
  <trkpt lat="43.518811" lon="39.915214">
    <ele>70</ele>
    <time>2014-12-07T10:50:04Z</time>
    <speed>2.5</speed>
  </trkpt>
  <trkpt lat="43.518882" lon="39.915175">
    <ele>68</ele>
    <time>2014-12-07T10:50:06Z</time>
    <speed>3.75</speed>
  </trkpt>
  <trkpt lat="43.518972" lon="39.915160">
    <ele>69</ele>
    <time>2014-12-07T10:50:08Z</time>
    <speed>4.5</speed>
  </trkpt>
  <trkpt lat="43.519112" lon="39.915166">
    <ele>70</ele>
    <time>2014-12-07T10:50:10Z</time>
    <speed>4.25</speed>
  </trkpt>
  <trkpt lat="43.519177" lon="39.915143">
    <ele>70</ele>
    <time>2014-12-07T10:50:12Z</time>
    <speed>3.25</speed>
  </trkpt>
  <trkpt lat="43.519241" lon="39.915129">
    <ele>72</ele>
    <time>2014-12-07T10:50:14Z</time>
    <speed>3.25</speed>
  </trkpt>
  <trkpt lat="43.519282" lon="39.915168">
    <ele>70</ele>
    <time>2014-12-07T10:50:16Z</time>
    <speed>2.5</speed>
  </trkpt>
  <trkpt lat="43.519326" lon="39.915182">
    <ele>68</ele>
    <time>2014-12-07T10:50:18Z</time>
    <speed>2.5</speed>
  </trkpt>
  <trkpt lat="43.519383" lon="39.915199">
    <ele>71</ele>
    <time>2014-12-07T10:50:20Z</time>
    <speed>2.75</speed>
  </trkpt>
  <trkpt lat="43.519452" lon="39.915216">
    <ele>72</ele>
    <time>2014-12-07T10:50:22Z</time>
    <speed>3.25</speed>
  </trkpt>
  <trkpt lat="43.519507" lon="39.915241">
    <ele>71</ele>
    <time>2014-12-07T10:50:24Z</time>
    <speed>2.75</speed>
  </trkpt>
  <trkpt lat="43.519568" lon="39.915247">
    <ele>71</ele>
    <time>2014-12-07T10:50:26Z</time>
    <speed>2.75</speed>
  </trkpt>
  <trkpt lat="43.519657" lon="39.915232">
    <ele>74</ele>
    <time>2014-12-07T10:50:28Z</time>
    <speed>3.5</speed>
  </trkpt>
  <trkpt lat="43.519841" lon="39.915191">
    <ele>78</ele>
    <time>2014-12-07T10:50:30Z</time>
    <speed>3.25</speed>
  </trkpt>
  <trkpt lat="43.519889" lon="39.915210">
    <ele>77</ele>
    <time>2014-12-07T10:50:33Z</time>
    <speed>0.0</speed>
  </trkpt>
  <trkpt lat="43.519933" lon="39.915229">
    <ele>76</ele>
    <time>2014-12-07T10:50:41Z</time>
    <speed>0.6345367</speed>
  </trkpt>
  <trkpt lat="43.519895" lon="39.915315">
    <ele>83</ele>
    <time>2014-12-07T10:52:00Z</time>
    <speed>2.5</speed>
  </trkpt>
  <trkpt lat="43.519877" lon="39.915404">
    <ele>84</ele>
    <time>2014-12-07T10:52:03Z</time>
    <speed>2.25</speed>
  </trkpt>
  <trkpt lat="43.519886" lon="39.915477">
    <ele>85</ele>
    <time>2014-12-07T10:52:05Z</time>
    <speed>2.75</speed>
  </trkpt>
  <trkpt lat="43.519942" lon="39.915596">
    <ele>84</ele>
    <time>2014-12-07T10:52:07Z</time>
    <speed>5.25</speed>
  </trkpt>
  <trkpt lat="43.520031" lon="39.915746">
    <ele>84</ele>
    <time>2014-12-07T10:52:09Z</time>
    <speed>5.5</speed>
  </trkpt>
  <trkpt lat="43.520128" lon="39.915875">
    <ele>82</ele>
    <time>2014-12-07T10:52:11Z</time>
    <speed>6.25</speed>
  </trkpt>
  <trkpt lat="43.520210" lon="39.915939">
    <ele>80</ele>
    <time>2014-12-07T10:52:13Z</time>
    <speed>5.0</speed>
  </trkpt>
  <trkpt lat="43.520314" lon="39.915945">
    <ele>83</ele>
    <time>2014-12-07T10:52:15Z</time>
    <speed>5.25</speed>
  </trkpt>
  <trkpt lat="43.520365" lon="39.915877">
    <ele>82</ele>
    <time>2014-12-07T10:52:17Z</time>
    <speed>5.0</speed>
  </trkpt>
  <trkpt lat="43.520458" lon="39.915797">
    <ele>81</ele>
    <time>2014-12-07T10:52:19Z</time>
    <speed>4.25</speed>
  </trkpt>
  <trkpt lat="43.520518" lon="39.915746">
    <ele>83</ele>
    <time>2014-12-07T10:52:21Z</time>
    <speed>4.25</speed>
  </trkpt>
  <trkpt lat="43.520597" lon="39.915696">
    <ele>75</ele>
    <time>2014-12-07T10:52:23Z</time>
    <speed>4.5</speed>
  </trkpt>
  <trkpt lat="43.520640" lon="39.915640">
    <ele>76</ele>
    <time>2014-12-07T10:52:25Z</time>
    <speed>3.75</speed>
  </trkpt>
  <trkpt lat="43.520668" lon="39.915580">
    <ele>77</ele>
    <time>2014-12-07T10:52:27Z</time>
    <speed>3.0</speed>
  </trkpt>
  <trkpt lat="43.520722" lon="39.915567">
    <ele>79</ele>
    <time>2014-12-07T10:52:29Z</time>
    <speed>3.0</speed>
  </trkpt>
  <trkpt lat="43.520789" lon="39.915538">
    <ele>80</ele>
    <time>2014-12-07T10:52:31Z</time>
    <speed>3.5</speed>
  </trkpt>
  <trkpt lat="43.520859" lon="39.915471">
    <ele>82</ele>
    <time>2014-12-07T10:52:33Z</time>
    <speed>4.25</speed>
  </trkpt>
  <trkpt lat="43.520922" lon="39.915388">
    <ele>81</ele>
    <time>2014-12-07T10:52:35Z</time>
    <speed>4.25</speed>
  </trkpt>
  <trkpt lat="43.520970" lon="39.915306">
    <ele>82</ele>
    <time>2014-12-07T10:52:37Z</time>
    <speed>4.0</speed>
  </trkpt>
  <trkpt lat="43.520997" lon="39.915243">
    <ele>82</ele>
    <time>2014-12-07T10:52:39Z</time>
    <speed>2.5</speed>
  </trkpt>
  <trkpt lat="43.520947" lon="39.915232">
    <ele>86</ele>
    <time>2014-12-07T10:52:41Z</time>
    <speed>2.0</speed>
  </trkpt>
  <trkpt lat="43.520868" lon="39.915251">
    <ele>88</ele>
    <time>2014-12-07T10:52:43Z</time>
    <speed>2.75</speed>
  </trkpt>
  <trkpt lat="43.520759" lon="39.915267">
    <ele>88</ele>
    <time>2014-12-07T10:52:45Z</time>
    <speed>4.0</speed>
  </trkpt>
  <trkpt lat="43.520673" lon="39.915238">
    <ele>92</ele>
    <time>2014-12-07T10:52:47Z</time>
    <speed>3.75</speed>
  </trkpt>
  <trkpt lat="43.520626" lon="39.915147">
    <ele>92</ele>
    <time>2014-12-07T10:52:49Z</time>
    <speed>3.75</speed>
  </trkpt>
  <trkpt lat="43.520565" lon="39.915056">
    <ele>96</ele>
    <time>2014-12-07T10:52:51Z</time>
    <speed>4.0</speed>
  </trkpt>
  <trkpt lat="43.520489" lon="39.914988">
    <ele>98</ele>
    <time>2014-12-07T10:52:53Z</time>
    <speed>3.75</speed>
  </trkpt>
  <trkpt lat="43.520422" lon="39.914921">
    <ele>102</ele>
    <time>2014-12-07T10:52:55Z</time>
    <speed>3.75</speed>
  </trkpt>
  <trkpt lat="43.520383" lon="39.914865">
    <ele>101</ele>
    <time>2014-12-07T10:52:57Z</time>
    <speed>3.25</speed>
  </trkpt>
  <trkpt lat="43.520347" lon="39.914765">
    <ele>100</ele>
    <time>2014-12-07T10:53:03Z</time>
    <speed>3.25</speed>
  </trkpt>
  <trkpt lat="43.520314" lon="39.914648">
    <ele>100</ele>
    <time>2014-12-07T10:53:05Z</time>
    <speed>3.75</speed>
  </trkpt>
  <trkpt lat="43.520316" lon="39.914510">
    <ele>98</ele>
    <time>2014-12-07T10:53:07Z</time>
    <speed>4.0</speed>
  </trkpt>
  <trkpt lat="43.520345" lon="39.914386">
    <ele>100</ele>
    <time>2014-12-07T10:53:09Z</time>
    <speed>4.0</speed>
  </trkpt>
  <trkpt lat="43.520390" lon="39.914267">
    <ele>98</ele>
    <time>2014-12-07T10:53:11Z</time>
    <speed>4.25</speed>
  </trkpt>
  <trkpt lat="43.520435" lon="39.914174">
    <ele>99</ele>
    <time>2014-12-07T10:53:13Z</time>
    <speed>4.0</speed>
  </trkpt>
  <trkpt lat="43.520468" lon="39.914095">
    <ele>100</ele>
    <time>2014-12-07T10:53:16Z</time>
    <speed>2.25</speed>
  </trkpt>
  <trkpt lat="43.520492" lon="39.914013">
    <ele>97</ele>
    <time>2014-12-07T10:53:18Z</time>
    <speed>3.25</speed>
  </trkpt>
  <trkpt lat="43.520528" lon="39.913931">
    <ele>100</ele>
    <time>2014-12-07T10:53:20Z</time>
    <speed>3.25</speed>
  </trkpt>
  <trkpt lat="43.520561" lon="39.913855">
    <ele>101</ele>
    <time>2014-12-07T10:53:22Z</time>
    <speed>3.25</speed>
  </trkpt>
  <trkpt lat="43.520577" lon="39.913784">
    <ele>103</ele>
    <time>2014-12-07T10:53:24Z</time>
    <speed>2.75</speed>
  </trkpt>
  <trkpt lat="43.520622" lon="39.913788">
    <ele>106</ele>
    <time>2014-12-07T10:53:45Z</time>
    <speed>0.0</speed>
  </trkpt>
  <trkpt lat="43.520598" lon="39.913736">
    <ele>102</ele>
    <time>2014-12-07T10:54:16Z</time>
    <speed>0.16329004</speed>
  </trkpt>
  <trkpt lat="43.520624" lon="39.913680">
    <ele>103</ele>
    <time>2014-12-07T10:54:32Z</time>
    <speed>0.75</speed>
  </trkpt>
  <trkpt lat="43.520622" lon="39.913606">
    <ele>99</ele>
    <time>2014-12-07T10:54:35Z</time>
    <speed>1.5</speed>
  </trkpt>
  <trkpt lat="43.520632" lon="39.913535">
    <ele>103</ele>
    <time>2014-12-07T10:54:37Z</time>
    <speed>2.5</speed>
  </trkpt>
  <trkpt lat="43.520634" lon="39.913444">
    <ele>101</ele>
    <time>2014-12-07T10:54:39Z</time>
    <speed>2.75</speed>
  </trkpt>
  <trkpt lat="43.520653" lon="39.913322">
    <ele>101</ele>
    <time>2014-12-07T10:54:41Z</time>
    <speed>4.5</speed>
  </trkpt>
  <trkpt lat="43.520670" lon="39.913198">
    <ele>104</ele>
    <time>2014-12-07T10:54:43Z</time>
    <speed>4.25</speed>
  </trkpt>
  <trkpt lat="43.520660" lon="39.913073">
    <ele>105</ele>
    <time>2014-12-07T10:54:45Z</time>
    <speed>4.25</speed>
  </trkpt>
  <trkpt lat="43.520652" lon="39.912896">
    <ele>105</ele>
    <time>2014-12-07T10:54:47Z</time>
    <speed>3.75</speed>
  </trkpt>
  <trkpt lat="43.520649" lon="39.912819">
    <ele>105</ele>
    <time>2014-12-07T10:54:49Z</time>
    <speed>2.5</speed>
  </trkpt>
  <trkpt lat="43.520583" lon="39.912769">
    <ele>109</ele>
    <time>2014-12-07T10:54:52Z</time>
    <speed>2.5</speed>
  </trkpt>
  <trkpt lat="43.520512" lon="39.912703">
    <ele>111</ele>
    <time>2014-12-07T10:54:54Z</time>
    <speed>4.25</speed>
  </trkpt>
  <trkpt lat="43.520392" lon="39.912630">
    <ele>111</ele>
    <time>2014-12-07T10:54:56Z</time>
    <speed>4.75</speed>
  </trkpt>
  <trkpt lat="43.520334" lon="39.912525">
    <ele>113</ele>
    <time>2014-12-07T10:54:58Z</time>
    <speed>5.25</speed>
  </trkpt>
  <trkpt lat="43.520286" lon="39.912429">
    <ele>118</ele>
    <time>2014-12-07T10:55:00Z</time>
    <speed>4.5</speed>
  </trkpt>
  <trkpt lat="43.520279" lon="39.912294">
    <ele>118</ele>
    <time>2014-12-07T10:55:02Z</time>
    <speed>4.5</speed>
  </trkpt>
  <trkpt lat="43.520296" lon="39.912133">
    <ele>118</ele>
    <time>2014-12-07T10:55:04Z</time>
    <speed>5.5</speed>
  </trkpt>
  <trkpt lat="43.520302" lon="39.912003">
    <ele>121</ele>
    <time>2014-12-07T10:55:06Z</time>
    <speed>4.5</speed>
  </trkpt>
  <trkpt lat="43.520303" lon="39.911867">
    <ele>126</ele>
    <time>2014-12-07T10:55:08Z</time>
    <speed>4.75</speed>
  </trkpt>
  <trkpt lat="43.520289" lon="39.911731">
    <ele>127</ele>
    <time>2014-12-07T10:55:10Z</time>
    <speed>4.5</speed>
  </trkpt>
  <trkpt lat="43.520213" lon="39.911682">
    <ele>127</ele>
    <time>2014-12-07T10:55:12Z</time>
    <speed>2.75</speed>
  </trkpt>
  <trkpt lat="43.520210" lon="39.911553">
    <ele>113</ele>
    <time>2014-12-07T10:55:14Z</time>
    <speed>5.25</speed>
  </trkpt>
  <trkpt lat="43.520214" lon="39.911414">
    <ele>117</ele>
    <time>2014-12-07T10:55:16Z</time>
    <speed>4.75</speed>
  </trkpt>
  <trkpt lat="43.520214" lon="39.911334">
    <ele>119</ele>
    <time>2014-12-07T10:55:18Z</time>
    <speed>3.0</speed>
  </trkpt>
  <trkpt lat="43.520189" lon="39.911280">
    <ele>121</ele>
    <time>2014-12-07T10:55:20Z</time>
    <speed>1.75</speed>
  </trkpt>
  <trkpt lat="43.520119" lon="39.911137">
    <ele>122</ele>
    <time>2014-12-07T10:55:22Z</time>
    <speed>4.75</speed>
  </trkpt>
  <trkpt lat="43.520071" lon="39.911005">
    <ele>126</ele>
    <time>2014-12-07T10:55:24Z</time>
    <speed>4.75</speed>
  </trkpt>
  <trkpt lat="43.520014" lon="39.910902">
    <ele>128</ele>
    <time>2014-12-07T10:55:26Z</time>
    <speed>4.0</speed>
  </trkpt>
  <trkpt lat="43.519934" lon="39.910841">
    <ele>127</ele>
    <time>2014-12-07T10:55:28Z</time>
    <speed>3.25</speed>
  </trkpt>
  <trkpt lat="43.519882" lon="39.910772">
    <ele>127</ele>
    <time>2014-12-07T10:55:30Z</time>
    <speed>3.5</speed>
  </trkpt>
  <trkpt lat="43.519845" lon="39.910703">
    <ele>131</ele>
    <time>2014-12-07T10:55:32Z</time>
    <speed>3.25</speed>
  </trkpt>
  <trkpt lat="43.519734" lon="39.910587">
    <ele>131</ele>
    <time>2014-12-07T10:55:34Z</time>
    <speed>3.75</speed>
  </trkpt>
  <trkpt lat="43.519688" lon="39.910472">
    <ele>134</ele>
    <time>2014-12-07T10:55:36Z</time>
    <speed>3.5</speed>
  </trkpt>
  <trkpt lat="43.519683" lon="39.910392">
    <ele>138</ele>
    <time>2014-12-07T10:55:38Z</time>
    <speed>2.25</speed>
  </trkpt>
  <trkpt lat="43.519674" lon="39.910317">
    <ele>143</ele>
    <time>2014-12-07T10:55:40Z</time>
    <speed>2.0</speed>
  </trkpt>
  <trkpt lat="43.519652" lon="39.910234">
    <ele>146</ele>
    <time>2014-12-07T10:55:42Z</time>
    <speed>3.0</speed>
  </trkpt>
  <trkpt lat="43.519640" lon="39.910132">
    <ele>152</ele>
    <time>2014-12-07T10:55:44Z</time>
    <speed>3.5</speed>
  </trkpt>
  <trkpt lat="43.519639" lon="39.910023">
    <ele>155</ele>
    <time>2014-12-07T10:55:46Z</time>
    <speed>3.75</speed>
  </trkpt>
  <trkpt lat="43.519642" lon="39.909929">
    <ele>152</ele>
    <time>2014-12-07T10:55:48Z</time>
    <speed>3.5</speed>
  </trkpt>
  <trkpt lat="43.519620" lon="39.909862">
    <ele>154</ele>
    <time>2014-12-07T10:55:50Z</time>
    <speed>2.75</speed>
  </trkpt>
  <trkpt lat="43.519562" lon="39.909813">
    <ele>157</ele>
    <time>2014-12-07T10:55:52Z</time>
    <speed>3.0</speed>
  </trkpt>
  <trkpt lat="43.519524" lon="39.909734">
    <ele>158</ele>
    <time>2014-12-07T10:55:54Z</time>
    <speed>3.25</speed>
  </trkpt>
  <trkpt lat="43.519519" lon="39.909629">
    <ele>159</ele>
    <time>2014-12-07T10:55:56Z</time>
    <speed>3.5</speed>
  </trkpt>
  <trkpt lat="43.519562" lon="39.909459">
    <ele>159</ele>
    <time>2014-12-07T10:55:58Z</time>
    <speed>6.5</speed>
  </trkpt>
  <trkpt lat="43.519654" lon="39.909221">
    <ele>157</ele>
    <time>2014-12-07T10:56:00Z</time>
    <speed>11.5</speed>
  </trkpt>
  <trkpt lat="43.519744" lon="39.909018">
    <ele>160</ele>
    <time>2014-12-07T10:56:02Z</time>
    <speed>9.75</speed>
  </trkpt>
  <trkpt lat="43.519779" lon="39.908827">
    <ele>162</ele>
    <time>2014-12-07T10:56:04Z</time>
    <speed>6.5</speed>
  </trkpt>
  <trkpt lat="43.519797" lon="39.908688">
    <ele>163</ele>
    <time>2014-12-07T10:56:06Z</time>
    <speed>5.0</speed>
  </trkpt>
  <trkpt lat="43.519771" lon="39.908562">
    <ele>165</ele>
    <time>2014-12-07T10:56:08Z</time>
    <speed>4.5</speed>
  </trkpt>
  <trkpt lat="43.519743" lon="39.908500">
    <ele>168</ele>
    <time>2014-12-07T10:56:11Z</time>
    <speed>1.75</speed>
  </trkpt>
  <trkpt lat="43.519726" lon="39.908564">
    <ele>168</ele>
    <time>2014-12-07T10:56:14Z</time>
    <speed>2.0</speed>
  </trkpt>
  <trkpt lat="43.519750" lon="39.908624">
    <ele>168</ele>
    <time>2014-12-07T10:56:16Z</time>
    <speed>2.5</speed>
  </trkpt>
  <trkpt lat="43.519756" lon="39.908721">
    <ele>168</ele>
    <time>2014-12-07T10:56:18Z</time>
    <speed>3.25</speed>
  </trkpt>
  <trkpt lat="43.519745" lon="39.908837">
    <ele>166</ele>
    <time>2014-12-07T10:56:20Z</time>
    <speed>4.0</speed>
  </trkpt>
  <trkpt lat="43.519681" lon="39.909022">
    <ele>162</ele>
    <time>2014-12-07T10:56:22Z</time>
    <speed>6.0</speed>
  </trkpt>
  <trkpt lat="43.519635" lon="39.909138">
    <ele>157</ele>
    <time>2014-12-07T10:56:24Z</time>
    <speed>6.0</speed>
  </trkpt>
  <trkpt lat="43.519569" lon="39.909282">
    <ele>156</ele>
    <time>2014-12-07T10:56:26Z</time>
    <speed>7.5</speed>
  </trkpt>
  <trkpt lat="43.519509" lon="39.909424">
    <ele>154</ele>
    <time>2014-12-07T10:56:28Z</time>
    <speed>7.0</speed>
  </trkpt>
  <trkpt lat="43.519460" lon="39.909538">
    <ele>154</ele>
    <time>2014-12-07T10:56:30Z</time>
    <speed>4.75</speed>
  </trkpt>
  <trkpt lat="43.519452" lon="39.909627">
    <ele>149</ele>
    <time>2014-12-07T10:56:32Z</time>
    <speed>4.0</speed>
  </trkpt>
  <trkpt lat="43.519452" lon="39.909725">
    <ele>150</ele>
    <time>2014-12-07T10:56:34Z</time>
    <speed>3.75</speed>
  </trkpt>
  <trkpt lat="43.519464" lon="39.909820">
    <ele>150</ele>
    <time>2014-12-07T10:56:36Z</time>
    <speed>3.75</speed>
  </trkpt>
  <trkpt lat="43.519520" lon="39.909861">
    <ele>148</ele>
    <time>2014-12-07T10:56:38Z</time>
    <speed>3.0</speed>
  </trkpt>
  <trkpt lat="43.519533" lon="39.909931">
    <ele>150</ele>
    <time>2014-12-07T10:56:41Z</time>
    <speed>1.75</speed>
  </trkpt>
  <trkpt lat="43.519521" lon="39.909993">
    <ele>149</ele>
    <time>2014-12-07T10:56:44Z</time>
    <speed>1.75</speed>
  </trkpt>
  <trkpt lat="43.519517" lon="39.910060">
    <ele>151</ele>
    <time>2014-12-07T10:56:47Z</time>
    <speed>1.75</speed>
  </trkpt>
  <trkpt lat="43.519532" lon="39.910120">
    <ele>150</ele>
    <time>2014-12-07T10:56:50Z</time>
    <speed>1.75</speed>
  </trkpt>
  <trkpt lat="43.519539" lon="39.910187">
    <ele>151</ele>
    <time>2014-12-07T10:56:53Z</time>
    <speed>1.75</speed>
  </trkpt>
  <trkpt lat="43.519538" lon="39.910250">
    <ele>151</ele>
    <time>2014-12-07T10:56:55Z</time>
    <speed>2.5</speed>
  </trkpt>
  <trkpt lat="43.519537" lon="39.910335">
    <ele>151</ele>
    <time>2014-12-07T10:56:58Z</time>
    <speed>2.0</speed>
  </trkpt>
  <trkpt lat="43.519554" lon="39.910419">
    <ele>152</ele>
    <time>2014-12-07T10:57:01Z</time>
    <speed>2.25</speed>
  </trkpt>
  <trkpt lat="43.519601" lon="39.910493">
    <ele>150</ele>
    <time>2014-12-07T10:57:03Z</time>
    <speed>3.0</speed>
  </trkpt>
  <trkpt lat="43.519634" lon="39.910562">
    <ele>149</ele>
    <time>2014-12-07T10:57:05Z</time>
    <speed>2.75</speed>
  </trkpt>
  <trkpt lat="43.519666" lon="39.910654">
    <ele>151</ele>
    <time>2014-12-07T10:57:07Z</time>
    <speed>3.25</speed>
  </trkpt>
  <trkpt lat="43.519706" lon="39.910729">
    <ele>147</ele>
    <time>2014-12-07T10:57:09Z</time>
    <speed>3.0</speed>
  </trkpt>
  <trkpt lat="43.519751" lon="39.910794">
    <ele>142</ele>
    <time>2014-12-07T10:57:11Z</time>
    <speed>3.0</speed>
  </trkpt>
  <trkpt lat="43.519799" lon="39.910883">
    <ele>138</ele>
    <time>2014-12-07T10:57:13Z</time>
    <speed>3.25</speed>
  </trkpt>
  <trkpt lat="43.519847" lon="39.911008">
    <ele>143</ele>
    <time>2014-12-07T10:57:15Z</time>
    <speed>4.0</speed>
  </trkpt>
  <trkpt lat="43.519887" lon="39.911117">
    <ele>141</ele>
    <time>2014-12-07T10:57:17Z</time>
    <speed>3.75</speed>
  </trkpt>
  <trkpt lat="43.519931" lon="39.911200">
    <ele>142</ele>
    <time>2014-12-07T10:57:19Z</time>
    <speed>3.5</speed>
  </trkpt>
  <trkpt lat="43.519971" lon="39.911254">
    <ele>141</ele>
    <time>2014-12-07T10:57:21Z</time>
    <speed>2.75</speed>
  </trkpt>
  <trkpt lat="43.519992" lon="39.911321">
    <ele>141</ele>
    <time>2014-12-07T10:57:23Z</time>
    <speed>2.75</speed>
  </trkpt>
  <trkpt lat="43.519990" lon="39.911410">
    <ele>144</ele>
    <time>2014-12-07T10:57:25Z</time>
    <speed>3.0</speed>
  </trkpt>
  <trkpt lat="43.519989" lon="39.911523">
    <ele>142</ele>
    <time>2014-12-07T10:57:27Z</time>
    <speed>3.75</speed>
  </trkpt>
  <trkpt lat="43.520007" lon="39.911632">
    <ele>141</ele>
    <time>2014-12-07T10:57:29Z</time>
    <speed>3.5</speed>
  </trkpt>
  <trkpt lat="43.520029" lon="39.911723">
    <ele>141</ele>
    <time>2014-12-07T10:57:31Z</time>
    <speed>3.0</speed>
  </trkpt>
  <trkpt lat="43.520042" lon="39.911787">
    <ele>144</ele>
    <time>2014-12-07T10:57:33Z</time>
    <speed>2.0</speed>
  </trkpt>
  <trkpt lat="43.520059" lon="39.911846">
    <ele>145</ele>
    <time>2014-12-07T10:57:36Z</time>
    <speed>1.5</speed>
  </trkpt>
  <trkpt lat="43.520069" lon="39.911907">
    <ele>140</ele>
    <time>2014-12-07T10:57:39Z</time>
    <speed>1.75</speed>
  </trkpt>
  <trkpt lat="43.520070" lon="39.912001">
    <ele>139</ele>
    <time>2014-12-07T10:57:41Z</time>
    <speed>4.0</speed>
  </trkpt>
  <trkpt lat="43.520064" lon="39.912151">
    <ele>138</ele>
    <time>2014-12-07T10:57:43Z</time>
    <speed>6.0</speed>
  </trkpt>
  <trkpt lat="43.520107" lon="39.912322">
    <ele>133</ele>
    <time>2014-12-07T10:57:45Z</time>
    <speed>4.75</speed>
  </trkpt>
  <trkpt lat="43.520160" lon="39.912432">
    <ele>132</ele>
    <time>2014-12-07T10:57:47Z</time>
    <speed>4.5</speed>
  </trkpt>
  <trkpt lat="43.520243" lon="39.912529">
    <ele>126</ele>
    <time>2014-12-07T10:57:49Z</time>
    <speed>4.75</speed>
  </trkpt>
  <trkpt lat="43.520317" lon="39.912612">
    <ele>127</ele>
    <time>2014-12-07T10:57:51Z</time>
    <speed>4.75</speed>
  </trkpt>
  <trkpt lat="43.520355" lon="39.912687">
    <ele>128</ele>
    <time>2014-12-07T10:57:53Z</time>
    <speed>3.75</speed>
  </trkpt>
  <trkpt lat="43.520416" lon="39.912758">
    <ele>127</ele>
    <time>2014-12-07T10:57:55Z</time>
    <speed>4.0</speed>
  </trkpt>
  <trkpt lat="43.520480" lon="39.912812">
    <ele>129</ele>
    <time>2014-12-07T10:57:57Z</time>
    <speed>4.0</speed>
  </trkpt>
  <trkpt lat="43.520518" lon="39.912866">
    <ele>125</ele>
    <time>2014-12-07T10:57:59Z</time>
    <speed>2.5</speed>
  </trkpt>
  <trkpt lat="43.520524" lon="39.912938">
    <ele>122</ele>
    <time>2014-12-07T10:58:02Z</time>
    <speed>2.25</speed>
  </trkpt>
  <trkpt lat="43.520533" lon="39.913017">
    <ele>121</ele>
    <time>2014-12-07T10:58:05Z</time>
    <speed>2.5</speed>
  </trkpt>
  <trkpt lat="43.520553" lon="39.913100">
    <ele>118</ele>
    <time>2014-12-07T10:58:08Z</time>
    <speed>2.5</speed>
  </trkpt>
  <trkpt lat="43.520562" lon="39.913166">
    <ele>115</ele>
    <time>2014-12-07T10:58:10Z</time>
    <speed>2.5</speed>
  </trkpt>
  <trkpt lat="43.520558" lon="39.913232">
    <ele>116</ele>
    <time>2014-12-07T10:58:12Z</time>
    <speed>2.5</speed>
  </trkpt>
  <trkpt lat="43.520545" lon="39.913295">
    <ele>118</ele>
    <time>2014-12-07T10:58:14Z</time>
    <speed>2.5</speed>
  </trkpt>
  <trkpt lat="43.520537" lon="39.913375">
    <ele>117</ele>
    <time>2014-12-07T10:58:17Z</time>
    <speed>1.75</speed>
  </trkpt>
  <trkpt lat="43.520535" lon="39.913451">
    <ele>113</ele>
    <time>2014-12-07T10:58:20Z</time>
    <speed>1.75</speed>
  </trkpt>
  <trkpt lat="43.520533" lon="39.913537">
    <ele>117</ele>
    <time>2014-12-07T10:58:23Z</time>
    <speed>2.0</speed>
  </trkpt>
  <trkpt lat="43.520502" lon="39.913618">
    <ele>117</ele>
    <time>2014-12-07T10:58:26Z</time>
    <speed>2.0</speed>
  </trkpt>
  <trkpt lat="43.520490" lon="39.913681">
    <ele>117</ele>
    <time>2014-12-07T10:58:28Z</time>
    <speed>2.0</speed>
  </trkpt>
  <trkpt lat="43.520480" lon="39.913743">
    <ele>116</ele>
    <time>2014-12-07T10:58:30Z</time>
    <speed>2.0</speed>
  </trkpt>
  <trkpt lat="43.520460" lon="39.913829">
    <ele>114</ele>
    <time>2014-12-07T10:58:33Z</time>
    <speed>2.0</speed>
  </trkpt>
  <trkpt lat="43.520449" lon="39.913911">
    <ele>112</ele>
    <time>2014-12-07T10:58:35Z</time>
    <speed>2.75</speed>
  </trkpt>
  <trkpt lat="43.520440" lon="39.914005">
    <ele>112</ele>
    <time>2014-12-07T10:58:37Z</time>
    <speed>3.0</speed>
  </trkpt>
  <trkpt lat="43.520424" lon="39.914101">
    <ele>113</ele>
    <time>2014-12-07T10:58:39Z</time>
    <speed>3.0</speed>
  </trkpt>
  <trkpt lat="43.520408" lon="39.914193">
    <ele>113</ele>
    <time>2014-12-07T10:58:41Z</time>
    <speed>3.0</speed>
  </trkpt>
  <trkpt lat="43.520393" lon="39.914286">
    <ele>109</ele>
    <time>2014-12-07T10:58:43Z</time>
    <speed>3.0</speed>
  </trkpt>
  <trkpt lat="43.520374" lon="39.914391">
    <ele>109</ele>
    <time>2014-12-07T10:58:45Z</time>
    <speed>3.25</speed>
  </trkpt>
  <trkpt lat="43.520333" lon="39.914506">
    <ele>108</ele>
    <time>2014-12-07T10:58:47Z</time>
    <speed>3.5</speed>
  </trkpt>
  <trkpt lat="43.520296" lon="39.914582">
    <ele>106</ele>
    <time>2014-12-07T10:58:49Z</time>
    <speed>2.75</speed>
  </trkpt>
  <trkpt lat="43.520269" lon="39.914634">
    <ele>106</ele>
    <time>2014-12-07T10:58:51Z</time>
    <speed>2.25</speed>
  </trkpt>
  <trkpt lat="43.520242" lon="39.914689">
    <ele>104</ele>
    <time>2014-12-07T10:58:53Z</time>
    <speed>2.25</speed>
  </trkpt>
  <trkpt lat="43.520249" lon="39.914772">
    <ele>102</ele>
    <time>2014-12-07T10:58:56Z</time>
    <speed>2.25</speed>
  </trkpt>
  <trkpt lat="43.520289" lon="39.914835">
    <ele>98</ele>
    <time>2014-12-07T10:58:58Z</time>
    <speed>3.0</speed>
  </trkpt>
  <trkpt lat="43.520337" lon="39.914913">
    <ele>96</ele>
    <time>2014-12-07T10:59:00Z</time>
    <speed>3.25</speed>
  </trkpt>
  <trkpt lat="43.520394" lon="39.914990">
    <ele>95</ele>
    <time>2014-12-07T10:59:02Z</time>
    <speed>3.25</speed>
  </trkpt>
  <trkpt lat="43.520453" lon="39.915034">
    <ele>92</ele>
    <time>2014-12-07T10:59:04Z</time>
    <speed>3.25</speed>
  </trkpt>
  <trkpt lat="43.520505" lon="39.915084">
    <ele>91</ele>
    <time>2014-12-07T10:59:07Z</time>
    <speed>2.0</speed>
  </trkpt>
  <trkpt lat="43.520541" lon="39.915163">
    <ele>92</ele>
    <time>2014-12-07T10:59:10Z</time>
    <speed>2.25</speed>
  </trkpt>
  <trkpt lat="43.520572" lon="39.915216">
    <ele>93</ele>
    <time>2014-12-07T10:59:12Z</time>
    <speed>2.25</speed>
  </trkpt>
  <trkpt lat="43.520630" lon="39.915241">
    <ele>90</ele>
    <time>2014-12-07T10:59:15Z</time>
    <speed>2.25</speed>
  </trkpt>
  <trkpt lat="43.520677" lon="39.915216">
    <ele>90</ele>
    <time>2014-12-07T10:59:18Z</time>
    <speed>1.75</speed>
  </trkpt>
  <trkpt lat="43.520723" lon="39.915240">
    <ele>87</ele>
    <time>2014-12-07T10:59:24Z</time>
    <speed>1.25</speed>
  </trkpt>
  <trkpt lat="43.520770" lon="39.915255">
    <ele>85</ele>
    <time>2014-12-07T10:59:26Z</time>
    <speed>1.75</speed>
  </trkpt>
  <trkpt lat="43.520836" lon="39.915273">
    <ele>82</ele>
    <time>2014-12-07T10:59:28Z</time>
    <speed>2.5</speed>
  </trkpt>
  <trkpt lat="43.520910" lon="39.915270">
    <ele>80</ele>
    <time>2014-12-07T10:59:30Z</time>
    <speed>3.0</speed>
  </trkpt>
  <trkpt lat="43.520976" lon="39.915226">
    <ele>76</ele>
    <time>2014-12-07T10:59:32Z</time>
    <speed>2.75</speed>
  </trkpt>
  <trkpt lat="43.521021" lon="39.915189">
    <ele>72</ele>
    <time>2014-12-07T10:59:34Z</time>
    <speed>2.25</speed>
  </trkpt>
  <trkpt lat="43.521066" lon="39.915184">
    <ele>71</ele>
    <time>2014-12-07T10:59:37Z</time>
    <speed>0.0</speed>
  </trkpt>
  <trkpt lat="43.521112" lon="39.915190">
    <ele>71</ele>
    <time>2014-12-07T10:59:44Z</time>
    <speed>0.73564285</speed>
  </trkpt>
  <trkpt lat="43.521158" lon="39.915180">
    <ele>69</ele>
    <time>2014-12-07T10:59:52Z</time>
    <speed>0.5</speed>
  </trkpt>
  <trkpt lat="43.521187" lon="39.915096">
    <ele>70</ele>
    <time>2014-12-07T10:59:55Z</time>
    <speed>3.25</speed>
  </trkpt>
  <trkpt lat="43.521230" lon="39.915018">
    <ele>70</ele>
    <time>2014-12-07T10:59:57Z</time>
    <speed>3.25</speed>
  </trkpt>
  <trkpt lat="43.521310" lon="39.914938">
    <ele>70</ele>
    <time>2014-12-07T10:59:59Z</time>
    <speed>4.5</speed>
  </trkpt>
  <trkpt lat="43.521406" lon="39.914885">
    <ele>72</ele>
    <time>2014-12-07T11:00:01Z</time>
    <speed>4.25</speed>
  </trkpt>
  <trkpt lat="43.521486" lon="39.914849">
    <ele>73</ele>
    <time>2014-12-07T11:00:03Z</time>
    <speed>4.0</speed>
  </trkpt>
  <trkpt lat="43.521602" lon="39.914774">
    <ele>73</ele>
    <time>2014-12-07T11:00:05Z</time>
    <speed>5.5</speed>
  </trkpt>
  <trkpt lat="43.521727" lon="39.914720">
    <ele>74</ele>
    <time>2014-12-07T11:00:07Z</time>
    <speed>6.0</speed>
  </trkpt>
  <trkpt lat="43.521794" lon="39.914712">
    <ele>71</ele>
    <time>2014-12-07T11:00:09Z</time>
    <speed>0.0</speed>
  </trkpt>
  <trkpt lat="43.521838" lon="39.914726">
    <ele>72</ele>
    <time>2014-12-07T11:00:12Z</time>
    <speed>1.7083955</speed>
  </trkpt>
  <trkpt lat="43.521999" lon="39.914773">
    <ele>68</ele>
    <time>2014-12-07T11:00:14Z</time>
    <speed>5.0</speed>
  </trkpt>
  <trkpt lat="43.522103" lon="39.914713">
    <ele>70</ele>
    <time>2014-12-07T11:00:16Z</time>
    <speed>6.0</speed>
  </trkpt>
  <trkpt lat="43.522160" lon="39.914652">
    <ele>75</ele>
    <time>2014-12-07T11:00:18Z</time>
    <speed>3.5</speed>
  </trkpt>
  <trkpt lat="43.522239" lon="39.914591">
    <ele>76</ele>
    <time>2014-12-07T11:00:20Z</time>
    <speed>3.5</speed>
  </trkpt>
  <trkpt lat="43.522357" lon="39.914540">
    <ele>81</ele>
    <time>2014-12-07T11:00:22Z</time>
    <speed>5.75</speed>
  </trkpt>
  <trkpt lat="43.522469" lon="39.914558">
    <ele>84</ele>
    <time>2014-12-07T11:00:24Z</time>
    <speed>6.5</speed>
  </trkpt>
  <trkpt lat="43.522612" lon="39.914633">
    <ele>81</ele>
    <time>2014-12-07T11:00:26Z</time>
    <speed>7.5</speed>
  </trkpt>
  <trkpt lat="43.522729" lon="39.914699">
    <ele>83</ele>
    <time>2014-12-07T11:00:28Z</time>
    <speed>5.0</speed>
  </trkpt>
  <trkpt lat="43.522868" lon="39.914650">
    <ele>82</ele>
    <time>2014-12-07T11:00:30Z</time>
    <speed>6.0</speed>
  </trkpt>
  <trkpt lat="43.522989" lon="39.914594">
    <ele>82</ele>
    <time>2014-12-07T11:00:32Z</time>
    <speed>5.75</speed>
  </trkpt>
  <trkpt lat="43.523082" lon="39.914525">
    <ele>83</ele>
    <time>2014-12-07T11:00:34Z</time>
    <speed>5.25</speed>
  </trkpt>
  <trkpt lat="43.523188" lon="39.914438">
    <ele>84</ele>
    <time>2014-12-07T11:00:36Z</time>
    <speed>6.0</speed>
  </trkpt>
  <trkpt lat="43.523276" lon="39.914353">
    <ele>82</ele>
    <time>2014-12-07T11:00:38Z</time>
    <speed>5.25</speed>
  </trkpt>
  <trkpt lat="43.523335" lon="39.914279">
    <ele>81</ele>
    <time>2014-12-07T11:00:40Z</time>
    <speed>4.25</speed>
  </trkpt>
  <trkpt lat="43.523340" lon="39.914201">
    <ele>86</ele>
    <time>2014-12-07T11:00:42Z</time>
    <speed>3.25</speed>
  </trkpt>
  <trkpt lat="43.523368" lon="39.914105">
    <ele>88</ele>
    <time>2014-12-07T11:00:44Z</time>
    <speed>4.0</speed>
  </trkpt>
  <trkpt lat="43.523383" lon="39.913997">
    <ele>87</ele>
    <time>2014-12-07T11:00:46Z</time>
    <speed>4.5</speed>
  </trkpt>
  <trkpt lat="43.523437" lon="39.913882">
    <ele>86</ele>
    <time>2014-12-07T11:00:48Z</time>
    <speed>4.25</speed>
  </trkpt>
  <trkpt lat="43.523481" lon="39.913790">
    <ele>89</ele>
    <time>2014-12-07T11:00:50Z</time>
    <speed>4.0</speed>
  </trkpt>
  <trkpt lat="43.523584" lon="39.913719">
    <ele>91</ele>
    <time>2014-12-07T11:00:52Z</time>
    <speed>4.25</speed>
  </trkpt>
  <trkpt lat="43.523693" lon="39.913692">
    <ele>93</ele>
    <time>2014-12-07T11:00:54Z</time>
    <speed>4.5</speed>
  </trkpt>
  <trkpt lat="43.523827" lon="39.913749">
    <ele>91</ele>
    <time>2014-12-07T11:00:56Z</time>
    <speed>7.25</speed>
  </trkpt>
  <trkpt lat="43.524012" lon="39.913822">
    <ele>94</ele>
    <time>2014-12-07T11:00:58Z</time>
    <speed>9.75</speed>
  </trkpt>
  <trkpt lat="43.524173" lon="39.913855">
    <ele>94</ele>
    <time>2014-12-07T11:01:00Z</time>
    <speed>7.25</speed>
  </trkpt>
  <trkpt lat="43.524284" lon="39.913827">
    <ele>96</ele>
    <time>2014-12-07T11:01:02Z</time>
    <speed>5.25</speed>
  </trkpt>
  <trkpt lat="43.524362" lon="39.913830">
    <ele>99</ele>
    <time>2014-12-07T11:01:04Z</time>
    <speed>4.75</speed>
  </trkpt>
  <trkpt lat="43.524484" lon="39.913784">
    <ele>97</ele>
    <time>2014-12-07T11:01:06Z</time>
    <speed>6.0</speed>
  </trkpt>
  <trkpt lat="43.524603" lon="39.913693">
    <ele>97</ele>
    <time>2014-12-07T11:01:08Z</time>
    <speed>7.0</speed>
  </trkpt>
  <trkpt lat="43.524679" lon="39.913596">
    <ele>101</ele>
    <time>2014-12-07T11:01:10Z</time>
    <speed>5.75</speed>
  </trkpt>
  <trkpt lat="43.524730" lon="39.913530">
    <ele>104</ele>
    <time>2014-12-07T11:01:12Z</time>
    <speed>4.0</speed>
  </trkpt>
  <trkpt lat="43.524781" lon="39.913470">
    <ele>102</ele>
    <time>2014-12-07T11:01:14Z</time>
    <speed>3.5</speed>
  </trkpt>
  <trkpt lat="43.524844" lon="39.913421">
    <ele>105</ele>
    <time>2014-12-07T11:01:16Z</time>
    <speed>3.5</speed>
  </trkpt>
  <trkpt lat="43.524903" lon="39.913370">
    <ele>108</ele>
    <time>2014-12-07T11:01:18Z</time>
    <speed>2.25</speed>
  </trkpt>
  <trkpt lat="43.524951" lon="39.913336">
    <ele>112</ele>
    <time>2014-12-07T11:01:20Z</time>
    <speed>2.75</speed>
  </trkpt>
  <trkpt lat="43.525015" lon="39.913309">
    <ele>112</ele>
    <time>2014-12-07T11:01:22Z</time>
    <speed>2.75</speed>
  </trkpt>
  <trkpt lat="43.525061" lon="39.913290">
    <ele>114</ele>
    <time>2014-12-07T11:01:24Z</time>
    <speed>2.5</speed>
  </trkpt>
  <trkpt lat="43.525116" lon="39.913254">
    <ele>112</ele>
    <time>2014-12-07T11:01:27Z</time>
    <speed>2.25</speed>
  </trkpt>
  <trkpt lat="43.525175" lon="39.913216">
    <ele>114</ele>
    <time>2014-12-07T11:01:30Z</time>
    <speed>2.25</speed>
  </trkpt>
  <trkpt lat="43.525116" lon="39.913241">
    <ele>113</ele>
    <time>2014-12-07T11:01:36Z</time>
    <speed>2.5</speed>
  </trkpt>
  <trkpt lat="43.525096" lon="39.913356">
    <ele>113</ele>
    <time>2014-12-07T11:01:38Z</time>
    <speed>3.75</speed>
  </trkpt>
  <trkpt lat="43.525078" lon="39.913462">
    <ele>116</ele>
    <time>2014-12-07T11:01:40Z</time>
    <speed>3.75</speed>
  </trkpt>
  <trkpt lat="43.525092" lon="39.913574">
    <ele>114</ele>
    <time>2014-12-07T11:01:42Z</time>
    <speed>4.0</speed>
  </trkpt>
  <trkpt lat="43.525145" lon="39.913688">
    <ele>112</ele>
    <time>2014-12-07T11:01:44Z</time>
    <speed>4.5</speed>
  </trkpt>
  <trkpt lat="43.525194" lon="39.913804">
    <ele>112</ele>
    <time>2014-12-07T11:01:46Z</time>
    <speed>4.5</speed>
  </trkpt>
  <trkpt lat="43.525324" lon="39.913916">
    <ele>113</ele>
    <time>2014-12-07T11:01:48Z</time>
    <speed>5.75</speed>
  </trkpt>
  <trkpt lat="43.525364" lon="39.914026">
    <ele>111</ele>
    <time>2014-12-07T11:01:50Z</time>
    <speed>3.75</speed>
  </trkpt>
  <trkpt lat="43.525412" lon="39.914033">
    <ele>112</ele>
    <time>2014-12-07T11:01:52Z</time>
    <speed>3.0</speed>
  </trkpt>
  <trkpt lat="43.525465" lon="39.913956">
    <ele>114</ele>
    <time>2014-12-07T11:01:55Z</time>
    <speed>3.25</speed>
  </trkpt>
  <trkpt lat="43.525508" lon="39.913925">
    <ele>115</ele>
    <time>2014-12-07T11:01:58Z</time>
    <speed>1.5</speed>
  </trkpt>
  <trkpt lat="43.525486" lon="39.913848">
    <ele>116</ele>
    <time>2014-12-07T11:02:11Z</time>
    <speed>1.75</speed>
  </trkpt>
  <trkpt lat="43.525495" lon="39.913783">
    <ele>117</ele>
    <time>2014-12-07T11:02:24Z</time>
    <speed>1.25</speed>
  </trkpt>
  <trkpt lat="43.525480" lon="39.913709">
    <ele>119</ele>
    <time>2014-12-07T11:02:28Z</time>
    <speed>1.5</speed>
  </trkpt>
  <trkpt lat="43.525444" lon="39.913640">
    <ele>117</ele>
    <time>2014-12-07T11:02:31Z</time>
    <speed>2.0</speed>
  </trkpt>
  <trkpt lat="43.525415" lon="39.913578">
    <ele>116</ele>
    <time>2014-12-07T11:02:34Z</time>
    <speed>1.5</speed>
  </trkpt>
  <trkpt lat="43.525367" lon="39.913534">
    <ele>116</ele>
    <time>2014-12-07T11:02:38Z</time>
    <speed>1.25</speed>
  </trkpt>
  <trkpt lat="43.525318" lon="39.913509">
    <ele>116</ele>
    <time>2014-12-07T11:02:42Z</time>
    <speed>1.25</speed>
  </trkpt>
  <trkpt lat="43.525243" lon="39.913477">
    <ele>114</ele>
    <time>2014-12-07T11:02:45Z</time>
    <speed>3.0</speed>
  </trkpt>
  <trkpt lat="43.525141" lon="39.913450">
    <ele>115</ele>
    <time>2014-12-07T11:02:47Z</time>
    <speed>4.5</speed>
  </trkpt>
  <trkpt lat="43.525051" lon="39.913415">
    <ele>116</ele>
    <time>2014-12-07T11:02:49Z</time>
    <speed>4.25</speed>
  </trkpt>
  <trkpt lat="43.524976" lon="39.913401">
    <ele>116</ele>
    <time>2014-12-07T11:02:51Z</time>
    <speed>3.5</speed>
  </trkpt>
  <trkpt lat="43.524906" lon="39.913408">
    <ele>116</ele>
    <time>2014-12-07T11:02:53Z</time>
    <speed>3.25</speed>
  </trkpt>
  <trkpt lat="43.524747" lon="39.913478">
    <ele>119</ele>
    <time>2014-12-07T11:02:55Z</time>
    <speed>5.25</speed>
  </trkpt>
  <trkpt lat="43.524680" lon="39.913536">
    <ele>120</ele>
    <time>2014-12-07T11:02:57Z</time>
    <speed>3.0</speed>
  </trkpt>
  <trkpt lat="43.524660" lon="39.913596">
    <ele>119</ele>
    <time>2014-12-07T11:03:00Z</time>
    <speed>1.5</speed>
  </trkpt>
  <trkpt lat="43.524631" lon="39.913644">
    <ele>120</ele>
    <time>2014-12-07T11:03:04Z</time>
    <speed>0.5</speed>
  </trkpt>
  <trkpt lat="43.524627" lon="39.913706">
    <ele>117</ele>
    <time>2014-12-07T11:03:28Z</time>
    <speed>0.0</speed>
  </trkpt>
  <trkpt lat="43.524592" lon="39.913798">
    <ele>121</ele>
    <time>2014-12-07T11:03:44Z</time>
    <speed>0.5207638</speed>
  </trkpt>
  <trkpt lat="43.524604" lon="39.913871">
    <ele>121</ele>
    <time>2014-12-07T11:03:46Z</time>
    <speed>1.25</speed>
  </trkpt>
  <trkpt lat="43.524657" lon="39.913862">
    <ele>121</ele>
    <time>2014-12-07T11:03:49Z</time>
    <speed>1.5</speed>
  </trkpt>
  <trkpt lat="43.524700" lon="39.913905">
    <ele>124</ele>
    <time>2014-12-07T11:03:52Z</time>
    <speed>1.5</speed>
  </trkpt>
  <trkpt lat="43.524729" lon="39.913963">
    <ele>124</ele>
    <time>2014-12-07T11:03:54Z</time>
    <speed>1.75</speed>
  </trkpt>
  <trkpt lat="43.524800" lon="39.913979">
    <ele>121</ele>
    <time>2014-12-07T11:03:57Z</time>
    <speed>2.25</speed>
  </trkpt>
  <trkpt lat="43.524960" lon="39.913943">
    <ele>115</ele>
    <time>2014-12-07T11:03:59Z</time>
    <speed>3.75</speed>
  </trkpt>
  <trkpt lat="43.525043" lon="39.913934">
    <ele>115</ele>
    <time>2014-12-07T11:04:01Z</time>
    <speed>4.5</speed>
  </trkpt>
  <trkpt lat="43.525121" lon="39.913928">
    <ele>114</ele>
    <time>2014-12-07T11:04:03Z</time>
    <speed>3.75</speed>
  </trkpt>
  <trkpt lat="43.525185" lon="39.913951">
    <ele>114</ele>
    <time>2014-12-07T11:04:06Z</time>
    <speed>1.5</speed>
  </trkpt>
  <trkpt lat="43.525252" lon="39.913969">
    <ele>109</ele>
    <time>2014-12-07T11:04:08Z</time>
    <speed>1.25</speed>
  </trkpt>
  <trkpt lat="43.525193" lon="39.913976">
    <ele>118</ele>
    <time>2014-12-07T11:04:16Z</time>
    <speed>2.25</speed>
  </trkpt>
  <trkpt lat="43.525161" lon="39.914020">
    <ele>119</ele>
    <time>2014-12-07T11:04:18Z</time>
    <speed>1.75</speed>
  </trkpt>
  <trkpt lat="43.525113" lon="39.914067">
    <ele>122</ele>
    <time>2014-12-07T11:04:22Z</time>
    <speed>1.5</speed>
  </trkpt>
  <trkpt lat="43.525065" lon="39.914089">
    <ele>121</ele>
    <time>2014-12-07T11:04:24Z</time>
    <speed>2.25</speed>
  </trkpt>
  <trkpt lat="43.525015" lon="39.914107">
    <ele>121</ele>
    <time>2014-12-07T11:04:26Z</time>
    <speed>2.5</speed>
  </trkpt>
  <trkpt lat="43.525021" lon="39.914176">
    <ele>123</ele>
    <time>2014-12-07T11:04:37Z</time>
    <speed>0.75</speed>
  </trkpt>
  <trkpt lat="43.525015" lon="39.914254">
    <ele>123</ele>
    <time>2014-12-07T11:04:42Z</time>
    <speed>1.0</speed>
  </trkpt>
  <trkpt lat="43.525013" lon="39.914318">
    <ele>124</ele>
    <time>2014-12-07T11:04:44Z</time>
    <speed>2.0</speed>
  </trkpt>
  <trkpt lat="43.525004" lon="39.914390">
    <ele>124</ele>
    <time>2014-12-07T11:04:46Z</time>
    <speed>2.0</speed>
  </trkpt>
  <trkpt lat="43.524994" lon="39.914456">
    <ele>125</ele>
    <time>2014-12-07T11:04:48Z</time>
    <speed>2.0</speed>
  </trkpt>
  <trkpt lat="43.524982" lon="39.914525">
    <ele>126</ele>
    <time>2014-12-07T11:04:51Z</time>
    <speed>0.75</speed>
  </trkpt>
  <trkpt lat="43.524935" lon="39.914582">
    <ele>124</ele>
    <time>2014-12-07T11:04:54Z</time>
    <speed>1.0</speed>
  </trkpt>
  <trkpt lat="43.524917" lon="39.914656">
    <ele>125</ele>
    <time>2014-12-07T11:04:57Z</time>
    <speed>1.0</speed>
  </trkpt>
  <trkpt lat="43.524903" lon="39.914715">
    <ele>128</ele>
    <time>2014-12-07T11:05:00Z</time>
    <speed>1.0</speed>
  </trkpt>
  <trkpt lat="43.524899" lon="39.914637">
    <ele>132</ele>
    <time>2014-12-07T11:05:10Z</time>
    <speed>1.5</speed>
  </trkpt>
  <trkpt lat="43.524878" lon="39.914582">
    <ele>132</ele>
    <time>2014-12-07T11:05:12Z</time>
    <speed>1.75</speed>
  </trkpt>
  <trkpt lat="43.524856" lon="39.914518">
    <ele>133</ele>
    <time>2014-12-07T11:05:14Z</time>
    <speed>1.75</speed>
  </trkpt>
  <trkpt lat="43.524830" lon="39.914447">
    <ele>136</ele>
    <time>2014-12-07T11:05:16Z</time>
    <speed>1.75</speed>
  </trkpt>
  <trkpt lat="43.524797" lon="39.914385">
    <ele>136</ele>
    <time>2014-12-07T11:05:18Z</time>
    <speed>1.75</speed>
  </trkpt>
  <trkpt lat="43.524762" lon="39.914334">
    <ele>137</ele>
    <time>2014-12-07T11:05:20Z</time>
    <speed>1.75</speed>
  </trkpt>
  <trkpt lat="43.524724" lon="39.914276">
    <ele>134</ele>
    <time>2014-12-07T11:05:22Z</time>
    <speed>1.75</speed>
  </trkpt>
  <trkpt lat="43.524650" lon="39.914209">
    <ele>128</ele>
    <time>2014-12-07T11:05:24Z</time>
    <speed>3.5</speed>
  </trkpt>
  <trkpt lat="43.524532" lon="39.914129">
    <ele>123</ele>
    <time>2014-12-07T11:05:26Z</time>
    <speed>4.25</speed>
  </trkpt>
  <trkpt lat="43.524422" lon="39.914056">
    <ele>125</ele>
    <time>2014-12-07T11:05:28Z</time>
    <speed>4.0</speed>
  </trkpt>
  <trkpt lat="43.524358" lon="39.913999">
    <ele>124</ele>
    <time>2014-12-07T11:05:30Z</time>
    <speed>3.0</speed>
  </trkpt>
  <trkpt lat="43.524321" lon="39.913959">
    <ele>122</ele>
    <time>2014-12-07T11:05:32Z</time>
    <speed>2.25</speed>
  </trkpt>
  <trkpt lat="43.524266" lon="39.913926">
    <ele>120</ele>
    <time>2014-12-07T11:05:34Z</time>
    <speed>2.5</speed>
  </trkpt>
  <trkpt lat="43.524210" lon="39.913899">
    <ele>117</ele>
    <time>2014-12-07T11:05:36Z</time>
    <speed>2.5</speed>
  </trkpt>
  <trkpt lat="43.524147" lon="39.913864">
    <ele>115</ele>
    <time>2014-12-07T11:05:38Z</time>
    <speed>3.25</speed>
  </trkpt>
  <trkpt lat="43.524094" lon="39.913847">
    <ele>111</ele>
    <time>2014-12-07T11:05:40Z</time>
    <speed>2.25</speed>
  </trkpt>
  <trkpt lat="43.524048" lon="39.913844">
    <ele>107</ele>
    <time>2014-12-07T11:05:43Z</time>
    <speed>1.0</speed>
  </trkpt>
  <trkpt lat="43.524028" lon="39.913773">
    <ele>109</ele>
    <time>2014-12-07T11:05:47Z</time>
    <speed>1.75</speed>
  </trkpt>
  <trkpt lat="43.524016" lon="39.913703">
    <ele>108</ele>
    <time>2014-12-07T11:05:49Z</time>
    <speed>2.5</speed>
  </trkpt>
  <trkpt lat="43.523968" lon="39.913637">
    <ele>109</ele>
    <time>2014-12-07T11:05:51Z</time>
    <speed>3.0</speed>
  </trkpt>
  <trkpt lat="43.523881" lon="39.913568">
    <ele>109</ele>
    <time>2014-12-07T11:05:53Z</time>
    <speed>4.5</speed>
  </trkpt>
  <trkpt lat="43.523802" lon="39.913523">
    <ele>108</ele>
    <time>2014-12-07T11:05:55Z</time>
    <speed>4.0</speed>
  </trkpt>
  <trkpt lat="43.523722" lon="39.913547">
    <ele>108</ele>
    <time>2014-12-07T11:05:57Z</time>
    <speed>4.0</speed>
  </trkpt>
  <trkpt lat="43.523652" lon="39.913633">
    <ele>105</ele>
    <time>2014-12-07T11:05:59Z</time>
    <speed>4.0</speed>
  </trkpt>
  <trkpt lat="43.523578" lon="39.913749">
    <ele>101</ele>
    <time>2014-12-07T11:06:01Z</time>
    <speed>4.0</speed>
  </trkpt>
  <trkpt lat="43.523539" lon="39.913868">
    <ele>100</ele>
    <time>2014-12-07T11:06:03Z</time>
    <speed>3.75</speed>
  </trkpt>
  <trkpt lat="43.523531" lon="39.913950">
    <ele>101</ele>
    <time>2014-12-07T11:06:05Z</time>
    <speed>2.5</speed>
  </trkpt>
  <trkpt lat="43.523520" lon="39.914013">
    <ele>99</ele>
    <time>2014-12-07T11:06:07Z</time>
    <speed>2.25</speed>
  </trkpt>
  <trkpt lat="43.523497" lon="39.914096">
    <ele>98</ele>
    <time>2014-12-07T11:06:10Z</time>
    <speed>1.75</speed>
  </trkpt>
  <trkpt lat="43.523457" lon="39.914173">
    <ele>99</ele>
    <time>2014-12-07T11:06:13Z</time>
    <speed>1.75</speed>
  </trkpt>
  <trkpt lat="43.523409" lon="39.914226">
    <ele>97</ele>
    <time>2014-12-07T11:06:16Z</time>
    <speed>1.75</speed>
  </trkpt>
  <trkpt lat="43.523361" lon="39.914277">
    <ele>99</ele>
    <time>2014-12-07T11:06:19Z</time>
    <speed>2.0</speed>
  </trkpt>
  <trkpt lat="43.523318" lon="39.914351">
    <ele>95</ele>
    <time>2014-12-07T11:06:21Z</time>
    <speed>3.0</speed>
  </trkpt>
  <trkpt lat="43.523269" lon="39.914405">
    <ele>97</ele>
    <time>2014-12-07T11:06:23Z</time>
    <speed>2.75</speed>
  </trkpt>
  <trkpt lat="43.523219" lon="39.914427">
    <ele>96</ele>
    <time>2014-12-07T11:06:25Z</time>
    <speed>2.5</speed>
  </trkpt>
  <trkpt lat="43.523168" lon="39.914444">
    <ele>97</ele>
    <time>2014-12-07T11:06:27Z</time>
    <speed>2.25</speed>
  </trkpt>
  <trkpt lat="43.523122" lon="39.914466">
    <ele>99</ele>
    <time>2014-12-07T11:06:29Z</time>
    <speed>2.25</speed>
  </trkpt>
  <trkpt lat="43.523073" lon="39.914479">
    <ele>101</ele>
    <time>2014-12-07T11:06:31Z</time>
    <speed>2.5</speed>
  </trkpt>
  <trkpt lat="43.523025" lon="39.914462">
    <ele>100</ele>
    <time>2014-12-07T11:06:33Z</time>
    <speed>2.5</speed>
  </trkpt>
  <trkpt lat="43.522964" lon="39.914476">
    <ele>99</ele>
    <time>2014-12-07T11:06:36Z</time>
    <speed>2.25</speed>
  </trkpt>
  <trkpt lat="43.522907" lon="39.914504">
    <ele>101</ele>
    <time>2014-12-07T11:06:39Z</time>
    <speed>2.25</speed>
  </trkpt>
  <trkpt lat="43.522864" lon="39.914484">
    <ele>103</ele>
    <time>2014-12-07T11:06:41Z</time>
    <speed>2.25</speed>
  </trkpt>
  <trkpt lat="43.522808" lon="39.914469">
    <ele>105</ele>
    <time>2014-12-07T11:06:43Z</time>
    <speed>2.5</speed>
  </trkpt>
  <trkpt lat="43.522753" lon="39.914456">
    <ele>105</ele>
    <time>2014-12-07T11:06:45Z</time>
    <speed>2.5</speed>
  </trkpt>
  <trkpt lat="43.522687" lon="39.914450">
    <ele>106</ele>
    <time>2014-12-07T11:06:47Z</time>
    <speed>2.5</speed>
  </trkpt>
  <trkpt lat="43.522600" lon="39.914465">
    <ele>110</ele>
    <time>2014-12-07T11:06:49Z</time>
    <speed>3.0</speed>
  </trkpt>
  <trkpt lat="43.522524" lon="39.914483">
    <ele>108</ele>
    <time>2014-12-07T11:06:51Z</time>
    <speed>3.0</speed>
  </trkpt>
  <trkpt lat="43.522455" lon="39.914479">
    <ele>107</ele>
    <time>2014-12-07T11:06:53Z</time>
    <speed>2.75</speed>
  </trkpt>
  <trkpt lat="43.522383" lon="39.914422">
    <ele>102</ele>
    <time>2014-12-07T11:06:55Z</time>
    <speed>3.0</speed>
  </trkpt>
  <trkpt lat="43.522322" lon="39.914319">
    <ele>95</ele>
    <time>2014-12-07T11:06:57Z</time>
    <speed>4.25</speed>
  </trkpt>
  <trkpt lat="43.522287" lon="39.914211">
    <ele>95</ele>
    <time>2014-12-07T11:06:59Z</time>
    <speed>4.0</speed>
  </trkpt>
  <trkpt lat="43.522268" lon="39.914120">
    <ele>97</ele>
    <time>2014-12-07T11:07:01Z</time>
    <speed>3.75</speed>
  </trkpt>
  <trkpt lat="43.522241" lon="39.914054">
    <ele>96</ele>
    <time>2014-12-07T11:07:03Z</time>
    <speed>3.0</speed>
  </trkpt>
  <trkpt lat="43.522216" lon="39.913994">
    <ele>94</ele>
    <time>2014-12-07T11:07:05Z</time>
    <speed>2.75</speed>
  </trkpt>
  <trkpt lat="43.522190" lon="39.913911">
    <ele>86</ele>
    <time>2014-12-07T11:07:08Z</time>
    <speed>2.5</speed>
  </trkpt>
  <trkpt lat="43.522166" lon="39.913850">
    <ele>85</ele>
    <time>2014-12-07T11:07:10Z</time>
    <speed>2.5</speed>
  </trkpt>
  <trkpt lat="43.522134" lon="39.913787">
    <ele>85</ele>
    <time>2014-12-07T11:07:12Z</time>
    <speed>2.5</speed>
  </trkpt>
  <trkpt lat="43.522108" lon="39.913714">
    <ele>85</ele>
    <time>2014-12-07T11:07:14Z</time>
    <speed>2.75</speed>
  </trkpt>
  <trkpt lat="43.522074" lon="39.913623">
    <ele>86</ele>
    <time>2014-12-07T11:07:16Z</time>
    <speed>3.25</speed>
  </trkpt>
  <trkpt lat="43.522033" lon="39.913537">
    <ele>87</ele>
    <time>2014-12-07T11:07:18Z</time>
    <speed>3.25</speed>
  </trkpt>
  <trkpt lat="43.522006" lon="39.913442">
    <ele>92</ele>
    <time>2014-12-07T11:07:20Z</time>
    <speed>3.25</speed>
  </trkpt>
  <trkpt lat="43.522013" lon="39.913341">
    <ele>90</ele>
    <time>2014-12-07T11:07:22Z</time>
    <speed>3.5</speed>
  </trkpt>
  <trkpt lat="43.522042" lon="39.913245">
    <ele>89</ele>
    <time>2014-12-07T11:07:24Z</time>
    <speed>3.5</speed>
  </trkpt>
  <trkpt lat="43.522096" lon="39.913168">
    <ele>90</ele>
    <time>2014-12-07T11:07:26Z</time>
    <speed>3.5</speed>
  </trkpt>
  <trkpt lat="43.522148" lon="39.913105">
    <ele>87</ele>
    <time>2014-12-07T11:07:28Z</time>
    <speed>3.5</speed>
  </trkpt>
  <trkpt lat="43.522184" lon="39.913043">
    <ele>86</ele>
    <time>2014-12-07T11:07:30Z</time>
    <speed>3.25</speed>
  </trkpt>
  <trkpt lat="43.522212" lon="39.912986">
    <ele>84</ele>
    <time>2014-12-07T11:07:33Z</time>
    <speed>2.0</speed>
  </trkpt>
  <trkpt lat="43.522240" lon="39.912918">
    <ele>84</ele>
    <time>2014-12-07T11:07:36Z</time>
    <speed>2.25</speed>
  </trkpt>
  <trkpt lat="43.522281" lon="39.912868">
    <ele>84</ele>
    <time>2014-12-07T11:07:38Z</time>
    <speed>3.0</speed>
  </trkpt>
  <trkpt lat="43.522363" lon="39.912839">
    <ele>84</ele>
    <time>2014-12-07T11:07:40Z</time>
    <speed>3.5</speed>
  </trkpt>
  <trkpt lat="43.522519" lon="39.912755">
    <ele>80</ele>
    <time>2014-12-07T11:07:45Z</time>
    <speed>3.0</speed>
  </trkpt>
  <trkpt lat="43.522564" lon="39.912719">
    <ele>84</ele>
    <time>2014-12-07T11:07:48Z</time>
    <speed>2.0</speed>
  </trkpt>
  <trkpt lat="43.522602" lon="39.912676">
    <ele>81</ele>
    <time>2014-12-07T11:07:51Z</time>
    <speed>2.0</speed>
  </trkpt>
  <trkpt lat="43.522654" lon="39.912664">
    <ele>80</ele>
    <time>2014-12-07T11:07:54Z</time>
    <speed>2.0</speed>
  </trkpt>
  <trkpt lat="43.522704" lon="39.912672">
    <ele>79</ele>
    <time>2014-12-07T11:07:56Z</time>
    <speed>2.0</speed>
  </trkpt>
  <trkpt lat="43.522754" lon="39.912687">
    <ele>79</ele>
    <time>2014-12-07T11:08:02Z</time>
    <speed>0.0</speed>
  </trkpt>
  <trkpt lat="43.522803" lon="39.912716">
    <ele>82</ele>
    <time>2014-12-07T11:08:09Z</time>
    <speed>0.83081335</speed>
  </trkpt>
  <trkpt lat="43.522851" lon="39.912755">
    <ele>80</ele>
    <time>2014-12-07T11:08:11Z</time>
    <speed>2.25</speed>
  </trkpt>
  <trkpt lat="43.522905" lon="39.912796">
    <ele>78</ele>
    <time>2014-12-07T11:08:14Z</time>
    <speed>2.25</speed>
  </trkpt>
  <trkpt lat="43.522959" lon="39.912811">
    <ele>77</ele>
    <time>2014-12-07T11:08:16Z</time>
    <speed>2.5</speed>
  </trkpt>
  <trkpt lat="43.523019" lon="39.912811">
    <ele>79</ele>
    <time>2014-12-07T11:08:18Z</time>
    <speed>2.75</speed>
  </trkpt>
  <trkpt lat="43.523075" lon="39.912818">
    <ele>76</ele>
    <time>2014-12-07T11:08:20Z</time>
    <speed>2.75</speed>
  </trkpt>
  <trkpt lat="43.523137" lon="39.912842">
    <ele>75</ele>
    <time>2014-12-07T11:08:23Z</time>
    <speed>2.5</speed>
  </trkpt>
  <trkpt lat="43.523185" lon="39.912838">
    <ele>76</ele>
    <time>2014-12-07T11:08:25Z</time>
    <speed>2.75</speed>
  </trkpt>
  <trkpt lat="43.523239" lon="39.912833">
    <ele>77</ele>
    <time>2014-12-07T11:08:27Z</time>
    <speed>2.75</speed>
  </trkpt>
  <trkpt lat="43.523319" lon="39.912823">
    <ele>76</ele>
    <time>2014-12-07T11:08:29Z</time>
    <speed>4.25</speed>
  </trkpt>
  <trkpt lat="43.523452" lon="39.912774">
    <ele>76</ele>
    <time>2014-12-07T11:08:31Z</time>
    <speed>5.5</speed>
  </trkpt>
  <trkpt lat="43.523556" lon="39.912774">
    <ele>75</ele>
    <time>2014-12-07T11:08:33Z</time>
    <speed>5.0</speed>
  </trkpt>
  <trkpt lat="43.523629" lon="39.912746">
    <ele>76</ele>
    <time>2014-12-07T11:08:35Z</time>
    <speed>3.5</speed>
  </trkpt>
  <trkpt lat="43.523679" lon="39.912718">
    <ele>76</ele>
    <time>2014-12-07T11:08:37Z</time>
    <speed>3.0</speed>
  </trkpt>
  <trkpt lat="43.523723" lon="39.912688">
    <ele>77</ele>
    <time>2014-12-07T11:08:40Z</time>
    <speed>1.75</speed>
  </trkpt>
  <trkpt lat="43.523773" lon="39.912718">
    <ele>78</ele>
    <time>2014-12-07T11:08:48Z</time>
    <speed>0.0</speed>
  </trkpt>
  <trkpt lat="43.523840" lon="39.912716">
    <ele>76</ele>
    <time>2014-12-07T11:08:52Z</time>
    <speed>1.8708665</speed>
  </trkpt>
  <trkpt lat="43.523899" lon="39.912703">
    <ele>72</ele>
    <time>2014-12-07T11:08:54Z</time>
    <speed>2.0</speed>
  </trkpt>
  <trkpt lat="43.523946" lon="39.912686">
    <ele>74</ele>
    <time>2014-12-07T11:08:56Z</time>
    <speed>1.75</speed>
  </trkpt>
  <trkpt lat="43.523978" lon="39.912633">
    <ele>74</ele>
    <time>2014-12-07T11:08:59Z</time>
    <speed>1.75</speed>
  </trkpt>
  <trkpt lat="43.524032" lon="39.912589">
    <ele>76</ele>
    <time>2014-12-07T11:09:02Z</time>
    <speed>2.0</speed>
  </trkpt>
  <trkpt lat="43.524095" lon="39.912576">
    <ele>77</ele>
    <time>2014-12-07T11:09:04Z</time>
    <speed>2.75</speed>
  </trkpt>
  <trkpt lat="43.524157" lon="39.912546">
    <ele>76</ele>
    <time>2014-12-07T11:09:06Z</time>
    <speed>2.75</speed>
  </trkpt>
  <trkpt lat="43.524205" lon="39.912497">
    <ele>76</ele>
    <time>2014-12-07T11:09:08Z</time>
    <speed>2.75</speed>
  </trkpt>
  <trkpt lat="43.524243" lon="39.912459">
    <ele>77</ele>
    <time>2014-12-07T11:09:10Z</time>
    <speed>2.5</speed>
  </trkpt>
  <trkpt lat="43.524285" lon="39.912484">
    <ele>81</ele>
    <time>2014-12-07T11:09:17Z</time>
    <speed>0.0</speed>
  </trkpt>
  <trkpt lat="43.524327" lon="39.912516">
    <ele>82</ele>
    <time>2014-12-07T11:10:29Z</time>
    <speed>0.07346384</speed>
  </trkpt>
  <trkpt lat="43.524323" lon="39.912579">
    <ele>83</ele>
    <time>2014-12-07T11:10:33Z</time>
    <speed>1.0</speed>
  </trkpt>
  <trkpt lat="43.524275" lon="39.912608">
    <ele>84</ele>
    <time>2014-12-07T11:10:40Z</time>
    <speed>1.0</speed>
  </trkpt>
  <trkpt lat="43.524316" lon="39.912571">
    <ele>80</ele>
    <time>2014-12-07T11:10:50Z</time>
    <speed>0.0</speed>
  </trkpt>
  <trkpt lat="43.524363" lon="39.912544">
    <ele>79</ele>
    <time>2014-12-07T11:10:59Z</time>
    <speed>0.62138116</speed>
  </trkpt>
  <trkpt lat="43.524409" lon="39.912538">
    <ele>80</ele>
    <time>2014-12-07T11:11:07Z</time>
    <speed>0.0</speed>
  </trkpt>
  <trkpt lat="43.524346" lon="39.912563">
    <ele>85</ele>
    <time>2014-12-07T11:11:25Z</time>
    <speed>0.40449584</speed>
  </trkpt>
  <trkpt lat="43.524277" lon="39.912564">
    <ele>79</ele>
    <time>2014-12-07T11:11:27Z</time>
    <speed>1.5</speed>
  </trkpt>
  <trkpt lat="43.524229" lon="39.912573">
    <ele>81</ele>
    <time>2014-12-07T11:11:29Z</time>
    <speed>1.0</speed>
  </trkpt>
  <trkpt lat="43.524170" lon="39.912554">
    <ele>84</ele>
    <time>2014-12-07T11:11:32Z</time>
    <speed>1.25</speed>
  </trkpt>
  <trkpt lat="43.524108" lon="39.912553">
    <ele>84</ele>
    <time>2014-12-07T11:11:35Z</time>
    <speed>1.25</speed>
  </trkpt>
  <trkpt lat="43.524061" lon="39.912556">
    <ele>78</ele>
    <time>2014-12-07T11:11:41Z</time>
    <speed>0.0</speed>
  </trkpt>
  <trkpt lat="43.524000" lon="39.912568">
    <ele>82</ele>
    <time>2014-12-07T11:11:47Z</time>
    <speed>1.130238</speed>
  </trkpt>
  <trkpt lat="43.523947" lon="39.912576">
    <ele>84</ele>
    <time>2014-12-07T11:11:50Z</time>
    <speed>1.75</speed>
  </trkpt>
  <trkpt lat="43.523889" lon="39.912563">
    <ele>85</ele>
    <time>2014-12-07T11:11:52Z</time>
    <speed>3.0</speed>
  </trkpt>
  <trkpt lat="43.523826" lon="39.912546">
    <ele>86</ele>
    <time>2014-12-07T11:11:54Z</time>
    <speed>3.0</speed>
  </trkpt>
  <trkpt lat="43.523764" lon="39.912552">
    <ele>86</ele>
    <time>2014-12-07T11:11:56Z</time>
    <speed>3.0</speed>
  </trkpt>
  <trkpt lat="43.523679" lon="39.912575">
    <ele>85</ele>
    <time>2014-12-07T11:11:58Z</time>
    <speed>3.5</speed>
  </trkpt>
  <trkpt lat="43.523493" lon="39.912651">
    <ele>80</ele>
    <time>2014-12-07T11:12:00Z</time>
    <speed>4.0</speed>
  </trkpt>
  <trkpt lat="43.523413" lon="39.912636">
    <ele>78</ele>
    <time>2014-12-07T11:12:02Z</time>
    <speed>4.25</speed>
  </trkpt>
  <trkpt lat="43.523318" lon="39.912640">
    <ele>79</ele>
    <time>2014-12-07T11:12:04Z</time>
    <speed>4.75</speed>
  </trkpt>
  <trkpt lat="43.523271" lon="39.912634">
    <ele>85</ele>
    <time>2014-12-07T11:12:07Z</time>
    <speed>2.5</speed>
  </trkpt>
  <trkpt lat="43.523226" lon="39.912621">
    <ele>87</ele>
    <time>2014-12-07T11:12:09Z</time>
    <speed>2.25</speed>
  </trkpt>
  <trkpt lat="43.523171" lon="39.912605">
    <ele>88</ele>
    <time>2014-12-07T11:12:12Z</time>
    <speed>2.0</speed>
  </trkpt>
  <trkpt lat="43.523111" lon="39.912583">
    <ele>89</ele>
    <time>2014-12-07T11:12:15Z</time>
    <speed>2.0</speed>
  </trkpt>
  <trkpt lat="43.523047" lon="39.912570">
    <ele>87</ele>
    <time>2014-12-07T11:12:18Z</time>
    <speed>2.25</speed>
  </trkpt>
  <trkpt lat="43.522982" lon="39.912557">
    <ele>89</ele>
    <time>2014-12-07T11:12:21Z</time>
    <speed>2.25</speed>
  </trkpt>
  <trkpt lat="43.522924" lon="39.912557">
    <ele>88</ele>
    <time>2014-12-07T11:12:24Z</time>
    <speed>2.0</speed>
  </trkpt>
  <trkpt lat="43.522864" lon="39.912543">
    <ele>90</ele>
    <time>2014-12-07T11:12:27Z</time>
    <speed>2.25</speed>
  </trkpt>
  <trkpt lat="43.522818" lon="39.912529">
    <ele>92</ele>
    <time>2014-12-07T11:12:29Z</time>
    <speed>2.25</speed>
  </trkpt>
  <trkpt lat="43.522775" lon="39.912499">
    <ele>91</ele>
    <time>2014-12-07T11:12:31Z</time>
    <speed>2.25</speed>
  </trkpt>
  <trkpt lat="43.522728" lon="39.912487">
    <ele>91</ele>
    <time>2014-12-07T11:12:33Z</time>
    <speed>2.25</speed>
  </trkpt>
  <trkpt lat="43.522669" lon="39.912459">
    <ele>92</ele>
    <time>2014-12-07T11:12:36Z</time>
    <speed>2.25</speed>
  </trkpt>
  <trkpt lat="43.522616" lon="39.912468">
    <ele>91</ele>
    <time>2014-12-07T11:12:58Z</time>
    <speed>1.0</speed>
  </trkpt>
  <trkpt lat="43.522563" lon="39.912497">
    <ele>94</ele>
    <time>2014-12-07T11:13:00Z</time>
    <speed>2.25</speed>
  </trkpt>
  <trkpt lat="43.522503" lon="39.912521">
    <ele>95</ele>
    <time>2014-12-07T11:13:02Z</time>
    <speed>2.5</speed>
  </trkpt>
  <trkpt lat="43.522444" lon="39.912539">
    <ele>97</ele>
    <time>2014-12-07T11:13:04Z</time>
    <speed>2.5</speed>
  </trkpt>
  <trkpt lat="43.522387" lon="39.912555">
    <ele>98</ele>
    <time>2014-12-07T11:13:06Z</time>
    <speed>2.75</speed>
  </trkpt>
  <trkpt lat="43.522326" lon="39.912560">
    <ele>97</ele>
    <time>2014-12-07T11:13:08Z</time>
    <speed>2.75</speed>
  </trkpt>
  <trkpt lat="43.522275" lon="39.912561">
    <ele>101</ele>
    <time>2014-12-07T11:13:10Z</time>
    <speed>2.5</speed>
  </trkpt>
  <trkpt lat="43.522226" lon="39.912630">
    <ele>91</ele>
    <time>2014-12-07T11:13:13Z</time>
    <speed>2.0</speed>
  </trkpt>
  <trkpt lat="43.522167" lon="39.912696">
    <ele>92</ele>
    <time>2014-12-07T11:13:15Z</time>
    <speed>3.0</speed>
  </trkpt>
  <trkpt lat="43.522086" lon="39.912743">
    <ele>89</ele>
    <time>2014-12-07T11:13:17Z</time>
    <speed>3.25</speed>
  </trkpt>
  <trkpt lat="43.521995" lon="39.912843">
    <ele>86</ele>
    <time>2014-12-07T11:13:19Z</time>
    <speed>5.25</speed>
  </trkpt>
  <trkpt lat="43.521910" lon="39.913077">
    <ele>89</ele>
    <time>2014-12-07T11:13:21Z</time>
    <speed>5.5</speed>
  </trkpt>
  <trkpt lat="43.521868" lon="39.913159">
    <ele>86</ele>
    <time>2014-12-07T11:13:23Z</time>
    <speed>4.0</speed>
  </trkpt>
  <trkpt lat="43.521806" lon="39.913257">
    <ele>88</ele>
    <time>2014-12-07T11:13:25Z</time>
    <speed>4.25</speed>
  </trkpt>
  <trkpt lat="43.521812" lon="39.913360">
    <ele>89</ele>
    <time>2014-12-07T11:13:27Z</time>
    <speed>3.25</speed>
  </trkpt>
  <trkpt lat="43.521803" lon="39.913488">
    <ele>86</ele>
    <time>2014-12-07T11:13:29Z</time>
    <speed>2.25</speed>
  </trkpt>
  <trkpt lat="43.521866" lon="39.913451">
    <ele>82</ele>
    <time>2014-12-07T11:13:31Z</time>
    <speed>2.5</speed>
  </trkpt>
  <trkpt lat="43.521917" lon="39.913453">
    <ele>81</ele>
    <time>2014-12-07T11:13:33Z</time>
    <speed>2.75</speed>
  </trkpt>
  <trkpt lat="43.522001" lon="39.913443">
    <ele>83</ele>
    <time>2014-12-07T11:13:35Z</time>
    <speed>4.75</speed>
  </trkpt>
  <trkpt lat="43.522147" lon="39.913461">
    <ele>85</ele>
    <time>2014-12-07T11:13:37Z</time>
    <speed>3.25</speed>
  </trkpt>
  <trkpt lat="43.522249" lon="39.913442">
    <ele>84</ele>
    <time>2014-12-07T11:13:39Z</time>
    <speed>4.75</speed>
  </trkpt>
  <trkpt lat="43.522414" lon="39.913420">
    <ele>83</ele>
    <time>2014-12-07T11:13:41Z</time>
    <speed>7.5</speed>
  </trkpt>
  <trkpt lat="43.522542" lon="39.913447">
    <ele>84</ele>
    <time>2014-12-07T11:13:43Z</time>
    <speed>6.75</speed>
  </trkpt>
  <trkpt lat="43.522655" lon="39.913444">
    <ele>88</ele>
    <time>2014-12-07T11:13:45Z</time>
    <speed>4.75</speed>
  </trkpt>
  <trkpt lat="43.522735" lon="39.913443">
    <ele>91</ele>
    <time>2014-12-07T11:13:47Z</time>
    <speed>3.5</speed>
  </trkpt>
  <trkpt lat="43.522786" lon="39.913504">
    <ele>96</ele>
    <time>2014-12-07T11:13:49Z</time>
    <speed>2.75</speed>
  </trkpt>
  <trkpt lat="43.522825" lon="39.913559">
    <ele>97</ele>
    <time>2014-12-07T11:13:51Z</time>
    <speed>3.0</speed>
  </trkpt>
  <trkpt lat="43.522882" lon="39.913644">
    <ele>100</ele>
    <time>2014-12-07T11:13:53Z</time>
    <speed>3.5</speed>
  </trkpt>
  <trkpt lat="43.522924" lon="39.913675">
    <ele>100</ele>
    <time>2014-12-07T11:13:55Z</time>
    <speed>2.5</speed>
  </trkpt>
  <trkpt lat="43.522952" lon="39.913743">
    <ele>94</ele>
    <time>2014-12-07T11:13:57Z</time>
    <speed>2.75</speed>
  </trkpt>
  <trkpt lat="43.522994" lon="39.913803">
    <ele>94</ele>
    <time>2014-12-07T11:13:59Z</time>
    <speed>3.0</speed>
  </trkpt>
  <trkpt lat="43.523045" lon="39.913812">
    <ele>95</ele>
    <time>2014-12-07T11:14:01Z</time>
    <speed>2.75</speed>
  </trkpt>
  <trkpt lat="43.523101" lon="39.913786">
    <ele>97</ele>
    <time>2014-12-07T11:14:03Z</time>
    <speed>3.25</speed>
  </trkpt>
  <trkpt lat="43.523246" lon="39.913749">
    <ele>96</ele>
    <time>2014-12-07T11:14:05Z</time>
    <speed>6.75</speed>
  </trkpt>
  <trkpt lat="43.523364" lon="39.913721">
    <ele>96</ele>
    <time>2014-12-07T11:14:07Z</time>
    <speed>6.5</speed>
  </trkpt>
  <trkpt lat="43.523482" lon="39.913711">
    <ele>98</ele>
    <time>2014-12-07T11:14:09Z</time>
    <speed>6.0</speed>
  </trkpt>
  <trkpt lat="43.523541" lon="39.913669">
    <ele>98</ele>
    <time>2014-12-07T11:14:11Z</time>
    <speed>3.25</speed>
  </trkpt>
  <trkpt lat="43.523588" lon="39.913635">
    <ele>99</ele>
    <time>2014-12-07T11:14:13Z</time>
    <speed>2.5</speed>
  </trkpt>
  <trkpt lat="43.523635" lon="39.913610">
    <ele>99</ele>
    <time>2014-12-07T11:14:15Z</time>
    <speed>2.0</speed>
  </trkpt>
  <trkpt lat="43.523685" lon="39.913692">
    <ele>100</ele>
    <time>2014-12-07T11:14:17Z</time>
    <speed>3.25</speed>
  </trkpt>
  <trkpt lat="43.523790" lon="39.913766">
    <ele>103</ele>
    <time>2014-12-07T11:14:19Z</time>
    <speed>5.5</speed>
  </trkpt>
  <trkpt lat="43.523921" lon="39.913795">
    <ele>103</ele>
    <time>2014-12-07T11:14:21Z</time>
    <speed>6.25</speed>
  </trkpt>
  <trkpt lat="43.524009" lon="39.913790">
    <ele>104</ele>
    <time>2014-12-07T11:14:23Z</time>
    <speed>5.25</speed>
  </trkpt>
  <trkpt lat="43.524123" lon="39.913789">
    <ele>100</ele>
    <time>2014-12-07T11:14:25Z</time>
    <speed>6.0</speed>
  </trkpt>
  <trkpt lat="43.524349" lon="39.913836">
    <ele>102</ele>
    <time>2014-12-07T11:14:27Z</time>
    <speed>8.75</speed>
  </trkpt>
  <trkpt lat="43.524564" lon="39.913811">
    <ele>101</ele>
    <time>2014-12-07T11:14:29Z</time>
    <speed>8.0</speed>
  </trkpt>
  <trkpt lat="43.524658" lon="39.913674">
    <ele>103</ele>
    <time>2014-12-07T11:14:31Z</time>
    <speed>8.5</speed>
  </trkpt>
  <trkpt lat="43.524765" lon="39.913552">
    <ele>103</ele>
    <time>2014-12-07T11:14:33Z</time>
    <speed>7.5</speed>
  </trkpt>
  <trkpt lat="43.524818" lon="39.913449">
    <ele>105</ele>
    <time>2014-12-07T11:14:35Z</time>
    <speed>5.75</speed>
  </trkpt>
  <trkpt lat="43.524914" lon="39.913352">
    <ele>104</ele>
    <time>2014-12-07T11:14:37Z</time>
    <speed>6.75</speed>
  </trkpt>
  <trkpt lat="43.525037" lon="39.913284">
    <ele>108</ele>
    <time>2014-12-07T11:14:39Z</time>
    <speed>6.0</speed>
  </trkpt>
  <trkpt lat="43.525210" lon="39.913202">
    <ele>105</ele>
    <time>2014-12-07T11:14:42Z</time>
    <speed>5.25</speed>
  </trkpt>
  <trkpt lat="43.525304" lon="39.913103">
    <ele>103</ele>
    <time>2014-12-07T11:14:44Z</time>
    <speed>6.0</speed>
  </trkpt>
  <trkpt lat="43.525368" lon="39.913029">
    <ele>103</ele>
    <time>2014-12-07T11:14:47Z</time>
    <speed>3.5</speed>
  </trkpt>
  <trkpt lat="43.525499" lon="39.912944">
    <ele>100</ele>
    <time>2014-12-07T11:14:49Z</time>
    <speed>6.5</speed>
  </trkpt>
  <trkpt lat="43.525580" lon="39.912839">
    <ele>102</ele>
    <time>2014-12-07T11:14:51Z</time>
    <speed>7.25</speed>
  </trkpt>
  <trkpt lat="43.525681" lon="39.912706">
    <ele>103</ele>
    <time>2014-12-07T11:14:53Z</time>
    <speed>7.25</speed>
  </trkpt>
  <trkpt lat="43.525882" lon="39.912554">
    <ele>102</ele>
    <time>2014-12-07T11:14:58Z</time>
    <speed>4.75</speed>
  </trkpt>
  <trkpt lat="43.525929" lon="39.912503">
    <ele>103</ele>
    <time>2014-12-07T11:15:00Z</time>
    <speed>3.25</speed>
  </trkpt>
  <trkpt lat="43.526002" lon="39.912453">
    <ele>104</ele>
    <time>2014-12-07T11:15:02Z</time>
    <speed>4.5</speed>
  </trkpt>
  <trkpt lat="43.526063" lon="39.912369">
    <ele>104</ele>
    <time>2014-12-07T11:15:04Z</time>
    <speed>4.25</speed>
  </trkpt>
  <trkpt lat="43.526133" lon="39.912286">
    <ele>104</ele>
    <time>2014-12-07T11:15:06Z</time>
    <speed>4.75</speed>
  </trkpt>
  <trkpt lat="43.526231" lon="39.912190">
    <ele>107</ele>
    <time>2014-12-07T11:15:08Z</time>
    <speed>5.0</speed>
  </trkpt>
  <trkpt lat="43.526278" lon="39.912134">
    <ele>108</ele>
    <time>2014-12-07T11:15:10Z</time>
    <speed>5.25</speed>
  </trkpt>
  <trkpt lat="43.526346" lon="39.912053">
    <ele>108</ele>
    <time>2014-12-07T11:15:12Z</time>
    <speed>4.5</speed>
  </trkpt>
  <trkpt lat="43.526404" lon="39.912001">
    <ele>108</ele>
    <time>2014-12-07T11:15:14Z</time>
    <speed>3.75</speed>
  </trkpt>
  <trkpt lat="43.526477" lon="39.911946">
    <ele>109</ele>
    <time>2014-12-07T11:15:16Z</time>
    <speed>3.75</speed>
  </trkpt>
  <trkpt lat="43.526645" lon="39.911912">
    <ele>107</ele>
    <time>2014-12-07T11:15:19Z</time>
    <speed>5.5</speed>
  </trkpt>
  <trkpt lat="43.526722" lon="39.911897">
    <ele>108</ele>
    <time>2014-12-07T11:15:21Z</time>
    <speed>4.0</speed>
  </trkpt>
  <trkpt lat="43.526798" lon="39.911858">
    <ele>110</ele>
    <time>2014-12-07T11:15:23Z</time>
    <speed>4.0</speed>
  </trkpt>
  <trkpt lat="43.526874" lon="39.911825">
    <ele>114</ele>
    <time>2014-12-07T11:15:27Z</time>
    <speed>2.0</speed>
  </trkpt>
  <trkpt lat="43.526934" lon="39.911785">
    <ele>111</ele>
    <time>2014-12-07T11:15:30Z</time>
    <speed>2.5</speed>
  </trkpt>
  <trkpt lat="43.526969" lon="39.911712">
    <ele>114</ele>
    <time>2014-12-07T11:15:32Z</time>
    <speed>2.5</speed>
  </trkpt>
  <trkpt lat="43.527001" lon="39.911643">
    <ele>112</ele>
    <time>2014-12-07T11:15:34Z</time>
    <speed>2.75</speed>
  </trkpt>
  <trkpt lat="43.527041" lon="39.911551">
    <ele>115</ele>
    <time>2014-12-07T11:15:37Z</time>
    <speed>2.5</speed>
  </trkpt>
  <trkpt lat="43.527055" lon="39.911491">
    <ele>118</ele>
    <time>2014-12-07T11:15:40Z</time>
    <speed>1.75</speed>
  </trkpt>
  <trkpt lat="43.527057" lon="39.911418">
    <ele>121</ele>
    <time>2014-12-07T11:15:43Z</time>
    <speed>1.75</speed>
  </trkpt>
  <trkpt lat="43.527072" lon="39.911312">
    <ele>120</ele>
    <time>2014-12-07T11:15:46Z</time>
    <speed>3.0</speed>
  </trkpt>
  <trkpt lat="43.527079" lon="39.911240">
    <ele>121</ele>
    <time>2014-12-07T11:15:48Z</time>
    <speed>2.5</speed>
  </trkpt>
  <trkpt lat="43.527102" lon="39.911155">
    <ele>123</ele>
    <time>2014-12-07T11:15:51Z</time>
    <speed>2.5</speed>
  </trkpt>
  <trkpt lat="43.527129" lon="39.911076">
    <ele>124</ele>
    <time>2014-12-07T11:15:53Z</time>
    <speed>3.0</speed>
  </trkpt>
  <trkpt lat="43.527168" lon="39.910930">
    <ele>124</ele>
    <time>2014-12-07T11:15:55Z</time>
    <speed>6.0</speed>
  </trkpt>
  <trkpt lat="43.527342" lon="39.910720">
    <ele>126</ele>
    <time>2014-12-07T11:15:57Z</time>
    <speed>8.5</speed>
  </trkpt>
  <trkpt lat="43.527485" lon="39.910626">
    <ele>128</ele>
    <time>2014-12-07T11:15:59Z</time>
    <speed>7.0</speed>
  </trkpt>
  <trkpt lat="43.527664" lon="39.910531">
    <ele>130</ele>
    <time>2014-12-07T11:16:03Z</time>
    <speed>4.5</speed>
  </trkpt>
  <trkpt lat="43.527750" lon="39.910475">
    <ele>130</ele>
    <time>2014-12-07T11:16:05Z</time>
    <speed>4.5</speed>
  </trkpt>
  <trkpt lat="43.527822" lon="39.910414">
    <ele>128</ele>
    <time>2014-12-07T11:16:07Z</time>
    <speed>3.75</speed>
  </trkpt>
  <trkpt lat="43.527841" lon="39.910554">
    <ele>126</ele>
    <time>2014-12-07T11:16:19Z</time>
    <speed>4.0</speed>
  </trkpt>
  <trkpt lat="43.528065" lon="39.910668">
    <ele>125</ele>
    <time>2014-12-07T11:16:21Z</time>
    <speed>5.5</speed>
  </trkpt>
  <trkpt lat="43.528115" lon="39.910758">
    <ele>126</ele>
    <time>2014-12-07T11:16:23Z</time>
    <speed>3.0</speed>
  </trkpt>
  <trkpt lat="43.528070" lon="39.910979">
    <ele>126</ele>
    <time>2014-12-07T11:16:28Z</time>
    <speed>4.75</speed>
  </trkpt>
  <trkpt lat="43.528068" lon="39.911086">
    <ele>127</ele>
    <time>2014-12-07T11:16:30Z</time>
    <speed>4.5</speed>
  </trkpt>
  <trkpt lat="43.528058" lon="39.911184">
    <ele>127</ele>
    <time>2014-12-07T11:16:32Z</time>
    <speed>3.75</speed>
  </trkpt>
  <trkpt lat="43.528060" lon="39.911258">
    <ele>129</ele>
    <time>2014-12-07T11:16:34Z</time>
    <speed>3.25</speed>
  </trkpt>
  <trkpt lat="43.528100" lon="39.911313">
    <ele>131</ele>
    <time>2014-12-07T11:16:39Z</time>
    <speed>1.75</speed>
  </trkpt>
  <trkpt lat="43.528158" lon="39.911377">
    <ele>131</ele>
    <time>2014-12-07T11:16:42Z</time>
    <speed>3.0</speed>
  </trkpt>
  <trkpt lat="43.528201" lon="39.911474">
    <ele>129</ele>
    <time>2014-12-07T11:16:44Z</time>
    <speed>4.0</speed>
  </trkpt>
  <trkpt lat="43.528188" lon="39.911642">
    <ele>129</ele>
    <time>2014-12-07T11:16:47Z</time>
    <speed>4.5</speed>
  </trkpt>
  <trkpt lat="43.528074" lon="39.911768">
    <ele>128</ele>
    <time>2014-12-07T11:16:49Z</time>
    <speed>6.75</speed>
  </trkpt>
  <trkpt lat="43.528050" lon="39.911909">
    <ele>129</ele>
    <time>2014-12-07T11:16:51Z</time>
    <speed>5.5</speed>
  </trkpt>
  <trkpt lat="43.528094" lon="39.912043">
    <ele>129</ele>
    <time>2014-12-07T11:16:53Z</time>
    <speed>5.0</speed>
  </trkpt>
  <trkpt lat="43.528114" lon="39.912132">
    <ele>130</ele>
    <time>2014-12-07T11:16:55Z</time>
    <speed>3.5</speed>
  </trkpt>
  <trkpt lat="43.528073" lon="39.912158">
    <ele>133</ele>
    <time>2014-12-07T11:16:59Z</time>
    <speed>1.25</speed>
  </trkpt>
  <trkpt lat="43.528042" lon="39.912223">
    <ele>137</ele>
    <time>2014-12-07T11:17:04Z</time>
    <speed>1.25</speed>
  </trkpt>
  <trkpt lat="43.528056" lon="39.912300">
    <ele>138</ele>
    <time>2014-12-07T11:17:07Z</time>
    <speed>2.0</speed>
  </trkpt>
  <trkpt lat="43.528063" lon="39.912395">
    <ele>139</ele>
    <time>2014-12-07T11:17:10Z</time>
    <speed>2.5</speed>
  </trkpt>
  <trkpt lat="43.528028" lon="39.912603">
    <ele>138</ele>
    <time>2014-12-07T11:17:12Z</time>
    <speed>5.75</speed>
  </trkpt>
  <trkpt lat="43.528040" lon="39.912696">
    <ele>141</ele>
    <time>2014-12-07T11:17:14Z</time>
    <speed>4.25</speed>
  </trkpt>
  <trkpt lat="43.528019" lon="39.912823">
    <ele>142</ele>
    <time>2014-12-07T11:17:16Z</time>
    <speed>4.25</speed>
  </trkpt>
  <trkpt lat="43.527950" lon="39.913066">
    <ele>144</ele>
    <time>2014-12-07T11:17:18Z</time>
    <speed>7.75</speed>
  </trkpt>
  <trkpt lat="43.527852" lon="39.913268">
    <ele>142</ele>
    <time>2014-12-07T11:17:21Z</time>
    <speed>4.25</speed>
  </trkpt>
  <trkpt lat="43.527818" lon="39.913339">
    <ele>147</ele>
    <time>2014-12-07T11:17:25Z</time>
    <speed>1.0</speed>
  </trkpt>
  <trkpt lat="43.527770" lon="39.913353">
    <ele>153</ele>
    <time>2014-12-07T11:17:32Z</time>
    <speed>1.75</speed>
  </trkpt>
  <trkpt lat="43.527725" lon="39.913354">
    <ele>153</ele>
    <time>2014-12-07T11:17:34Z</time>
    <speed>2.0</speed>
  </trkpt>
  <trkpt lat="43.527667" lon="39.913342">
    <ele>152</ele>
    <time>2014-12-07T11:17:37Z</time>
    <speed>2.0</speed>
  </trkpt>
  <trkpt lat="43.527520" lon="39.913325">
    <ele>156</ele>
    <time>2014-12-07T11:17:39Z</time>
    <speed>4.5</speed>
  </trkpt>
  <trkpt lat="43.527455" lon="39.913298">
    <ele>158</ele>
    <time>2014-12-07T11:17:41Z</time>
    <speed>3.5</speed>
  </trkpt>
  <trkpt lat="43.527370" lon="39.913277">
    <ele>158</ele>
    <time>2014-12-07T11:17:43Z</time>
    <speed>4.0</speed>
  </trkpt>
  <trkpt lat="43.527285" lon="39.913275">
    <ele>158</ele>
    <time>2014-12-07T11:17:45Z</time>
    <speed>4.75</speed>
  </trkpt>
  <trkpt lat="43.527261" lon="39.913212">
    <ele>157</ele>
    <time>2014-12-07T11:17:49Z</time>
    <speed>2.0</speed>
  </trkpt>
  <trkpt lat="43.527248" lon="39.913135">
    <ele>156</ele>
    <time>2014-12-07T11:17:52Z</time>
    <speed>2.0</speed>
  </trkpt>
  <trkpt lat="43.527248" lon="39.913057">
    <ele>154</ele>
    <time>2014-12-07T11:17:55Z</time>
    <speed>2.25</speed>
  </trkpt>
  <trkpt lat="43.527243" lon="39.912975">
    <ele>152</ele>
    <time>2014-12-07T11:17:58Z</time>
    <speed>2.5</speed>
  </trkpt>
  <trkpt lat="43.527244" lon="39.912905">
    <ele>151</ele>
    <time>2014-12-07T11:18:01Z</time>
    <speed>1.75</speed>
  </trkpt>
  <trkpt lat="43.527273" lon="39.912821">
    <ele>147</ele>
    <time>2014-12-07T11:18:04Z</time>
    <speed>2.25</speed>
  </trkpt>
  <trkpt lat="43.527327" lon="39.912653">
    <ele>147</ele>
    <time>2014-12-07T11:18:07Z</time>
    <speed>4.0</speed>
  </trkpt>
  <trkpt lat="43.527381" lon="39.912586">
    <ele>148</ele>
    <time>2014-12-07T11:18:09Z</time>
    <speed>3.75</speed>
  </trkpt>
  <trkpt lat="43.527466" lon="39.912599">
    <ele>145</ele>
    <time>2014-12-07T11:18:11Z</time>
    <speed>4.0</speed>
  </trkpt>
  <trkpt lat="43.527616" lon="39.912735">
    <ele>145</ele>
    <time>2014-12-07T11:18:13Z</time>
    <speed>5.5</speed>
  </trkpt>
  <trkpt lat="43.527707" lon="39.912722">
    <ele>145</ele>
    <time>2014-12-07T11:18:15Z</time>
    <speed>4.75</speed>
  </trkpt>
  <trkpt lat="43.527787" lon="39.912655">
    <ele>146</ele>
    <time>2014-12-07T11:18:17Z</time>
    <speed>5.25</speed>
  </trkpt>
  <trkpt lat="43.527861" lon="39.912569">
    <ele>146</ele>
    <time>2014-12-07T11:18:19Z</time>
    <speed>5.0</speed>
  </trkpt>
  <trkpt lat="43.527859" lon="39.912442">
    <ele>148</ele>
    <time>2014-12-07T11:18:21Z</time>
    <speed>5.0</speed>
  </trkpt>
  <trkpt lat="43.527890" lon="39.912367">
    <ele>148</ele>
    <time>2014-12-07T11:18:23Z</time>
    <speed>2.75</speed>
  </trkpt>
  <trkpt lat="43.527927" lon="39.912332">
    <ele>147</ele>
    <time>2014-12-07T11:18:25Z</time>
    <speed>1.75</speed>
  </trkpt>
  <trkpt lat="43.527989" lon="39.912296">
    <ele>144</ele>
    <time>2014-12-07T11:18:28Z</time>
    <speed>1.75</speed>
  </trkpt>
  <trkpt lat="43.528037" lon="39.912255">
    <ele>146</ele>
    <time>2014-12-07T11:18:30Z</time>
    <speed>2.5</speed>
  </trkpt>
  <trkpt lat="43.528061" lon="39.912200">
    <ele>150</ele>
    <time>2014-12-07T11:18:32Z</time>
    <speed>2.5</speed>
  </trkpt>
  <trkpt lat="43.528050" lon="39.912113">
    <ele>149</ele>
    <time>2014-12-07T11:18:34Z</time>
    <speed>3.25</speed>
  </trkpt>
  <trkpt lat="43.528013" lon="39.911944">
    <ele>146</ele>
    <time>2014-12-07T11:18:37Z</time>
    <speed>4.0</speed>
  </trkpt>
  <trkpt lat="43.528012" lon="39.911822">
    <ele>143</ele>
    <time>2014-12-07T11:18:39Z</time>
    <speed>3.75</speed>
  </trkpt>
  <trkpt lat="43.528049" lon="39.911715">
    <ele>143</ele>
    <time>2014-12-07T11:18:41Z</time>
    <speed>3.5</speed>
  </trkpt>
  <trkpt lat="43.528104" lon="39.911636">
    <ele>145</ele>
    <time>2014-12-07T11:18:43Z</time>
    <speed>2.5</speed>
  </trkpt>
  <trkpt lat="43.528148" lon="39.911544">
    <ele>140</ele>
    <time>2014-12-07T11:18:45Z</time>
    <speed>3.0</speed>
  </trkpt>
  <trkpt lat="43.528165" lon="39.911450">
    <ele>137</ele>
    <time>2014-12-07T11:18:47Z</time>
    <speed>3.0</speed>
  </trkpt>
  <trkpt lat="43.528166" lon="39.911362">
    <ele>136</ele>
    <time>2014-12-07T11:18:49Z</time>
    <speed>3.0</speed>
  </trkpt>
  <trkpt lat="43.528150" lon="39.911279">
    <ele>136</ele>
    <time>2014-12-07T11:18:51Z</time>
    <speed>3.0</speed>
  </trkpt>
  <trkpt lat="43.528117" lon="39.911212">
    <ele>134</ele>
    <time>2014-12-07T11:18:53Z</time>
    <speed>3.0</speed>
  </trkpt>
  <trkpt lat="43.528087" lon="39.911146">
    <ele>134</ele>
    <time>2014-12-07T11:18:55Z</time>
    <speed>3.0</speed>
  </trkpt>
  <trkpt lat="43.528096" lon="39.911016">
    <ele>132</ele>
    <time>2014-12-07T11:18:59Z</time>
    <speed>2.75</speed>
  </trkpt>
  <trkpt lat="43.528100" lon="39.910953">
    <ele>133</ele>
    <time>2014-12-07T11:19:01Z</time>
    <speed>2.5</speed>
  </trkpt>
  <trkpt lat="43.528117" lon="39.910892">
    <ele>133</ele>
    <time>2014-12-07T11:19:03Z</time>
    <speed>2.5</speed>
  </trkpt>
  <trkpt lat="43.528151" lon="39.910841">
    <ele>131</ele>
    <time>2014-12-07T11:19:05Z</time>
    <speed>2.75</speed>
  </trkpt>
  <trkpt lat="43.528183" lon="39.910786">
    <ele>131</ele>
    <time>2014-12-07T11:19:07Z</time>
    <speed>2.75</speed>
  </trkpt>
  <trkpt lat="43.528186" lon="39.910719">
    <ele>130</ele>
    <time>2014-12-07T11:19:09Z</time>
    <speed>2.75</speed>
  </trkpt>
  <trkpt lat="43.528139" lon="39.910663">
    <ele>124</ele>
    <time>2014-12-07T11:19:11Z</time>
    <speed>2.75</speed>
  </trkpt>
  <trkpt lat="43.528079" lon="39.910629">
    <ele>125</ele>
    <time>2014-12-07T11:19:13Z</time>
    <speed>2.75</speed>
  </trkpt>
  <trkpt lat="43.528019" lon="39.910593">
    <ele>124</ele>
    <time>2014-12-07T11:19:15Z</time>
    <speed>2.75</speed>
  </trkpt>
  <trkpt lat="43.527967" lon="39.910546">
    <ele>123</ele>
    <time>2014-12-07T11:19:17Z</time>
    <speed>2.75</speed>
  </trkpt>
  <trkpt lat="43.527919" lon="39.910496">
    <ele>123</ele>
    <time>2014-12-07T11:19:19Z</time>
    <speed>2.75</speed>
  </trkpt>
  <trkpt lat="43.527910" lon="39.910428">
    <ele>129</ele>
    <time>2014-12-07T11:19:22Z</time>
    <speed>2.25</speed>
  </trkpt>
  <trkpt lat="43.527966" lon="39.910385">
    <ele>126</ele>
    <time>2014-12-07T11:19:24Z</time>
    <speed>3.0</speed>
  </trkpt>
  <trkpt lat="43.528092" lon="39.910314">
    <ele>123</ele>
    <time>2014-12-07T11:19:28Z</time>
    <speed>3.5</speed>
  </trkpt>
  <trkpt lat="43.528165" lon="39.910287">
    <ele>123</ele>
    <time>2014-12-07T11:19:30Z</time>
    <speed>3.75</speed>
  </trkpt>
  <trkpt lat="43.528266" lon="39.910271">
    <ele>124</ele>
    <time>2014-12-07T11:19:32Z</time>
    <speed>4.75</speed>
  </trkpt>
  <trkpt lat="43.528383" lon="39.910284">
    <ele>123</ele>
    <time>2014-12-07T11:19:34Z</time>
    <speed>4.25</speed>
  </trkpt>
  <trkpt lat="43.528468" lon="39.910329">
    <ele>123</ele>
    <time>2014-12-07T11:19:36Z</time>
    <speed>4.5</speed>
  </trkpt>
  <trkpt lat="43.528530" lon="39.910359">
    <ele>121</ele>
    <time>2014-12-07T11:19:38Z</time>
    <speed>4.5</speed>
  </trkpt>
  <trkpt lat="43.528622" lon="39.910348">
    <ele>121</ele>
    <time>2014-12-07T11:19:40Z</time>
    <speed>5.0</speed>
  </trkpt>
  <trkpt lat="43.528725" lon="39.910369">
    <ele>121</ele>
    <time>2014-12-07T11:19:42Z</time>
    <speed>5.5</speed>
  </trkpt>
  <trkpt lat="43.528761" lon="39.910258">
    <ele>118</ele>
    <time>2014-12-07T11:19:46Z</time>
    <speed>2.75</speed>
  </trkpt>
  <trkpt lat="43.528800" lon="39.910210">
    <ele>117</ele>
    <time>2014-12-07T11:19:48Z</time>
    <speed>2.5</speed>
  </trkpt>
  <trkpt lat="43.528849" lon="39.910155">
    <ele>111</ele>
    <time>2014-12-07T11:19:50Z</time>
    <speed>2.75</speed>
  </trkpt>
  <trkpt lat="43.528924" lon="39.910103">
    <ele>105</ele>
    <time>2014-12-07T11:19:52Z</time>
    <speed>3.25</speed>
  </trkpt>
  <trkpt lat="43.528994" lon="39.910068">
    <ele>105</ele>
    <time>2014-12-07T11:19:54Z</time>
    <speed>3.75</speed>
  </trkpt>
  <trkpt lat="43.529090" lon="39.910002">
    <ele>116</ele>
    <time>2014-12-07T11:19:57Z</time>
    <speed>3.75</speed>
  </trkpt>
  <trkpt lat="43.529150" lon="39.909957">
    <ele>110</ele>
    <time>2014-12-07T11:19:59Z</time>
    <speed>3.75</speed>
  </trkpt>
  <trkpt lat="43.529213" lon="39.909919">
    <ele>106</ele>
    <time>2014-12-07T11:20:01Z</time>
    <speed>3.75</speed>
  </trkpt>
  <trkpt lat="43.529285" lon="39.909903">
    <ele>102</ele>
    <time>2014-12-07T11:20:03Z</time>
    <speed>3.75</speed>
  </trkpt>
  <trkpt lat="43.529367" lon="39.909910">
    <ele>101</ele>
    <time>2014-12-07T11:20:05Z</time>
    <speed>3.75</speed>
  </trkpt>
  <trkpt lat="43.529444" lon="39.909914">
    <ele>101</ele>
    <time>2014-12-07T11:20:07Z</time>
    <speed>3.75</speed>
  </trkpt>
  <trkpt lat="43.529509" lon="39.909923">
    <ele>98</ele>
    <time>2014-12-07T11:20:09Z</time>
    <speed>3.5</speed>
  </trkpt>
  <trkpt lat="43.529568" lon="39.909925">
    <ele>107</ele>
    <time>2014-12-07T11:20:12Z</time>
    <speed>2.0</speed>
  </trkpt>
  <trkpt lat="43.529612" lon="39.909965">
    <ele>100</ele>
    <time>2014-12-07T11:20:15Z</time>
    <speed>1.75</speed>
  </trkpt>
  <trkpt lat="43.529659" lon="39.910012">
    <ele>98</ele>
    <time>2014-12-07T11:20:18Z</time>
    <speed>2.0</speed>
  </trkpt>
  <trkpt lat="43.529724" lon="39.910027">
    <ele>97</ele>
    <time>2014-12-07T11:20:21Z</time>
    <speed>2.0</speed>
  </trkpt>
  <trkpt lat="43.529811" lon="39.909998">
    <ele>95</ele>
    <time>2014-12-07T11:20:24Z</time>
    <speed>3.0</speed>
  </trkpt>
  <trkpt lat="43.529873" lon="39.909977">
    <ele>92</ele>
    <time>2014-12-07T11:20:26Z</time>
    <speed>3.0</speed>
  </trkpt>
  <trkpt lat="43.529937" lon="39.909960">
    <ele>92</ele>
    <time>2014-12-07T11:20:28Z</time>
    <speed>3.0</speed>
  </trkpt>
  <trkpt lat="43.530005" lon="39.909940">
    <ele>92</ele>
    <time>2014-12-07T11:20:30Z</time>
    <speed>3.0</speed>
  </trkpt>
  <trkpt lat="43.530083" lon="39.909955">
    <ele>92</ele>
    <time>2014-12-07T11:20:32Z</time>
    <speed>3.25</speed>
  </trkpt>
  <trkpt lat="43.530168" lon="39.910026">
    <ele>87</ele>
    <time>2014-12-07T11:20:36Z</time>
    <speed>1.0</speed>
  </trkpt>
  <trkpt lat="43.530188" lon="39.910086">
    <ele>94</ele>
    <time>2014-12-07T11:20:40Z</time>
    <speed>1.25</speed>
  </trkpt>
  <trkpt lat="43.530219" lon="39.910167">
    <ele>97</ele>
    <time>2014-12-07T11:20:42Z</time>
    <speed>2.0</speed>
  </trkpt>
  <trkpt lat="43.530254" lon="39.910272">
    <ele>99</ele>
    <time>2014-12-07T11:20:44Z</time>
    <speed>3.0</speed>
  </trkpt>
  <trkpt lat="43.530286" lon="39.910361">
    <ele>102</ele>
    <time>2014-12-07T11:20:46Z</time>
    <speed>3.0</speed>
  </trkpt>
  <trkpt lat="43.530330" lon="39.910446">
    <ele>101</ele>
    <time>2014-12-07T11:20:48Z</time>
    <speed>3.0</speed>
  </trkpt>
  <trkpt lat="43.530408" lon="39.910473">
    <ele>103</ele>
    <time>2014-12-07T11:20:50Z</time>
    <speed>3.75</speed>
  </trkpt>
  <trkpt lat="43.530468" lon="39.910480">
    <ele>103</ele>
    <time>2014-12-07T11:20:52Z</time>
    <speed>3.0</speed>
  </trkpt>
  <trkpt lat="43.530522" lon="39.910516">
    <ele>99</ele>
    <time>2014-12-07T11:20:55Z</time>
    <speed>2.5</speed>
  </trkpt>
  <trkpt lat="43.530577" lon="39.910538">
    <ele>100</ele>
    <time>2014-12-07T11:20:58Z</time>
    <speed>2.0</speed>
  </trkpt>
  <trkpt lat="43.530633" lon="39.910557">
    <ele>103</ele>
    <time>2014-12-07T11:21:02Z</time>
    <speed>2.0</speed>
  </trkpt>
  <trkpt lat="43.530633" lon="39.910495">
    <ele>107</ele>
    <time>2014-12-07T11:21:10Z</time>
    <speed>1.0</speed>
  </trkpt>
  <trkpt lat="43.530671" lon="39.910455">
    <ele>107</ele>
    <time>2014-12-07T11:21:15Z</time>
    <speed>1.0</speed>
  </trkpt>
  <trkpt lat="43.530707" lon="39.910403">
    <ele>106</ele>
    <time>2014-12-07T11:21:18Z</time>
    <speed>1.75</speed>
  </trkpt>
  <trkpt lat="43.530714" lon="39.910330">
    <ele>108</ele>
    <time>2014-12-07T11:21:21Z</time>
    <speed>1.5</speed>
  </trkpt>
  <trkpt lat="43.530728" lon="39.910232">
    <ele>111</ele>
    <time>2014-12-07T11:21:27Z</time>
    <speed>1.25</speed>
  </trkpt>
  <trkpt lat="43.530735" lon="39.910167">
    <ele>105</ele>
    <time>2014-12-07T11:21:33Z</time>
    <speed>0.0</speed>
  </trkpt>
  <trkpt lat="43.530765" lon="39.910109">
    <ele>111</ele>
    <time>2014-12-07T11:22:04Z</time>
    <speed>0.18626885</speed>
  </trkpt>
  <trkpt lat="43.530795" lon="39.910041">
    <ele>110</ele>
    <time>2014-12-07T11:22:07Z</time>
    <speed>1.75</speed>
  </trkpt>
  <trkpt lat="43.530837" lon="39.910017">
    <ele>105</ele>
    <time>2014-12-07T11:22:09Z</time>
    <speed>1.75</speed>
  </trkpt>
  <trkpt lat="43.530921" lon="39.909985">
    <ele>105</ele>
    <time>2014-12-07T11:22:12Z</time>
    <speed>2.75</speed>
  </trkpt>
  <trkpt lat="43.530984" lon="39.909955">
    <ele>107</ele>
    <time>2014-12-07T11:22:14Z</time>
    <speed>2.75</speed>
  </trkpt>
  <trkpt lat="43.531033" lon="39.909921">
    <ele>103</ele>
    <time>2014-12-07T11:22:16Z</time>
    <speed>2.75</speed>
  </trkpt>
  <trkpt lat="43.531078" lon="39.909908">
    <ele>101</ele>
    <time>2014-12-07T11:22:22Z</time>
    <speed>0.0</speed>
  </trkpt>
  <trkpt lat="43.531126" lon="39.909894">
    <ele>103</ele>
    <time>2014-12-07T11:22:40Z</time>
    <speed>0.30635896</speed>
  </trkpt>
  <trkpt lat="43.531179" lon="39.909891">
    <ele>105</ele>
    <time>2014-12-07T11:22:45Z</time>
    <speed>1.0</speed>
  </trkpt>
  <trkpt lat="43.531227" lon="39.909902">
    <ele>106</ele>
    <time>2014-12-07T11:22:49Z</time>
    <speed>1.0</speed>
  </trkpt>
  <trkpt lat="43.531227" lon="39.909837">
    <ele>104</ele>
    <time>2014-12-07T11:22:53Z</time>
    <speed>1.0</speed>
  </trkpt>
  <trkpt lat="43.531195" lon="39.909920">
    <ele>105</ele>
    <time>2014-12-07T11:23:00Z</time>
    <speed>1.25</speed>
  </trkpt>
  <trkpt lat="43.531189" lon="39.910071">
    <ele>113</ele>
    <time>2014-12-07T11:23:13Z</time>
    <speed>1.0</speed>
  </trkpt>
  <trkpt lat="43.531195" lon="39.910156">
    <ele>112</ele>
    <time>2014-12-07T11:23:16Z</time>
    <speed>1.25</speed>
  </trkpt>
  <trkpt lat="43.531203" lon="39.910224">
    <ele>108</ele>
    <time>2014-12-07T11:23:19Z</time>
    <speed>1.25</speed>
  </trkpt>
  <trkpt lat="43.531259" lon="39.910245">
    <ele>106</ele>
    <time>2014-12-07T11:23:25Z</time>
    <speed>0.0</speed>
  </trkpt>
  <trkpt lat="43.531293" lon="39.910194">
    <ele>99</ele>
    <time>2014-12-07T11:23:44Z</time>
    <speed>0.2941243</speed>
  </trkpt>
  <trkpt lat="43.531335" lon="39.910159">
    <ele>99</ele>
    <time>2014-12-07T11:23:48Z</time>
    <speed>0.5</speed>
  </trkpt>
  <trkpt lat="43.531372" lon="39.910106">
    <ele>95</ele>
    <time>2014-12-07T11:23:53Z</time>
    <speed>0.0</speed>
  </trkpt>
  <trkpt lat="43.531402" lon="39.910056">
    <ele>96</ele>
    <time>2014-12-07T11:24:00Z</time>
    <speed>0.752769</speed>
  </trkpt>
  <trkpt lat="43.531407" lon="39.910119">
    <ele>95</ele>
    <time>2014-12-07T11:24:17Z</time>
    <speed>0.25</speed>
  </trkpt>
  <trkpt lat="43.531379" lon="39.910061">
    <ele>90</ele>
    <time>2014-12-07T11:24:27Z</time>
    <speed>0.0</speed>
  </trkpt>
  <trkpt lat="43.531370" lon="39.909996">
    <ele>89</ele>
    <time>2014-12-07T11:25:18Z</time>
    <speed>0.10432676</speed>
  </trkpt>
  <trkpt lat="43.531350" lon="39.909940">
    <ele>90</ele>
    <time>2014-12-07T11:25:26Z</time>
    <speed>0.0</speed>
  </trkpt>
  <trkpt lat="43.531322" lon="39.909883">
    <ele>92</ele>
    <time>2014-12-07T11:25:55Z</time>
    <speed>0.19163233</speed>
  </trkpt>
  <trkpt lat="43.531273" lon="39.909827">
    <ele>93</ele>
    <time>2014-12-07T11:25:57Z</time>
    <speed>2.5</speed>
  </trkpt>
  <trkpt lat="43.531224" lon="39.909770">
    <ele>94</ele>
    <time>2014-12-07T11:25:59Z</time>
    <speed>2.5</speed>
  </trkpt>
  <trkpt lat="43.531177" lon="39.909691">
    <ele>93</ele>
    <time>2014-12-07T11:26:01Z</time>
    <speed>2.5</speed>
  </trkpt>
  <trkpt lat="43.531139" lon="39.909622">
    <ele>91</ele>
    <time>2014-12-07T11:26:03Z</time>
    <speed>2.25</speed>
  </trkpt>
  <trkpt lat="43.531115" lon="39.909556">
    <ele>91</ele>
    <time>2014-12-07T11:26:07Z</time>
    <speed>0.0</speed>
  </trkpt>
  <trkpt lat="43.531079" lon="39.909498">
    <ele>92</ele>
    <time>2014-12-07T11:26:12Z</time>
    <speed>1.2250769</speed>
  </trkpt>
  <trkpt lat="43.531051" lon="39.909417">
    <ele>96</ele>
    <time>2014-12-07T11:26:14Z</time>
    <speed>3.0</speed>
  </trkpt>
  <trkpt lat="43.531060" lon="39.909300">
    <ele>96</ele>
    <time>2014-12-07T11:26:16Z</time>
    <speed>3.25</speed>
  </trkpt>
  <trkpt lat="43.531094" lon="39.909248">
    <ele>98</ele>
    <time>2014-12-07T11:26:19Z</time>
    <speed>0.0</speed>
  </trkpt>
  <trkpt lat="43.531123" lon="39.909177">
    <ele>100</ele>
    <time>2014-12-07T11:26:28Z</time>
    <speed>0.73117125</speed>
  </trkpt>
  <trkpt lat="43.531214" lon="39.909096">
    <ele>102</ele>
    <time>2014-12-07T11:26:31Z</time>
    <speed>3.5</speed>
  </trkpt>
  <trkpt lat="43.531335" lon="39.909017">
    <ele>108</ele>
    <time>2014-12-07T11:26:35Z</time>
    <speed>3.75</speed>
  </trkpt>
  <trkpt lat="43.531406" lon="39.908984">
    <ele>112</ele>
    <time>2014-12-07T11:26:37Z</time>
    <speed>3.75</speed>
  </trkpt>
  <trkpt lat="43.531544" lon="39.908950">
    <ele>116</ele>
    <time>2014-12-07T11:26:40Z</time>
    <speed>4.75</speed>
  </trkpt>
  <trkpt lat="43.531688" lon="39.908900">
    <ele>118</ele>
    <time>2014-12-07T11:26:43Z</time>
    <speed>5.0</speed>
  </trkpt>
  <trkpt lat="43.531764" lon="39.908851">
    <ele>120</ele>
    <time>2014-12-07T11:26:45Z</time>
    <speed>4.0</speed>
  </trkpt>
  <trkpt lat="43.531812" lon="39.908785">
    <ele>124</ele>
    <time>2014-12-07T11:26:47Z</time>
    <speed>3.75</speed>
  </trkpt>
  <trkpt lat="43.531853" lon="39.908751">
    <ele>123</ele>
    <time>2014-12-07T11:26:49Z</time>
    <speed>2.0</speed>
  </trkpt>
  <trkpt lat="43.531919" lon="39.908740">
    <ele>125</ele>
    <time>2014-12-07T11:26:51Z</time>
    <speed>4.0</speed>
  </trkpt>
  <trkpt lat="43.532006" lon="39.908741">
    <ele>124</ele>
    <time>2014-12-07T11:26:53Z</time>
    <speed>5.25</speed>
  </trkpt>
  <trkpt lat="43.532114" lon="39.908772">
    <ele>125</ele>
    <time>2014-12-07T11:26:55Z</time>
    <speed>5.5</speed>
  </trkpt>
  <trkpt lat="43.532189" lon="39.908775">
    <ele>126</ele>
    <time>2014-12-07T11:26:57Z</time>
    <speed>4.0</speed>
  </trkpt>
  <trkpt lat="43.532256" lon="39.908747">
    <ele>127</ele>
    <time>2014-12-07T11:26:59Z</time>
    <speed>4.25</speed>
  </trkpt>
  <trkpt lat="43.532334" lon="39.908658">
    <ele>129</ele>
    <time>2014-12-07T11:27:01Z</time>
    <speed>5.5</speed>
  </trkpt>
  <trkpt lat="43.532419" lon="39.908546">
    <ele>130</ele>
    <time>2014-12-07T11:27:03Z</time>
    <speed>6.25</speed>
  </trkpt>
  <trkpt lat="43.532488" lon="39.908452">
    <ele>133</ele>
    <time>2014-12-07T11:27:05Z</time>
    <speed>5.5</speed>
  </trkpt>
  <trkpt lat="43.532563" lon="39.908362">
    <ele>135</ele>
    <time>2014-12-07T11:27:07Z</time>
    <speed>5.0</speed>
  </trkpt>
  <trkpt lat="43.532641" lon="39.908290">
    <ele>136</ele>
    <time>2014-12-07T11:27:09Z</time>
    <speed>5.25</speed>
  </trkpt>
  <trkpt lat="43.532814" lon="39.908144">
    <ele>142</ele>
    <time>2014-12-07T11:27:13Z</time>
    <speed>5.5</speed>
  </trkpt>
  <trkpt lat="43.532908" lon="39.908076">
    <ele>146</ele>
    <time>2014-12-07T11:27:15Z</time>
    <speed>5.75</speed>
  </trkpt>
  <trkpt lat="43.533001" lon="39.907998">
    <ele>145</ele>
    <time>2014-12-07T11:27:17Z</time>
    <speed>5.75</speed>
  </trkpt>
  <trkpt lat="43.533104" lon="39.907939">
    <ele>147</ele>
    <time>2014-12-07T11:27:19Z</time>
    <speed>6.25</speed>
  </trkpt>
  <trkpt lat="43.533184" lon="39.907948">
    <ele>152</ele>
    <time>2014-12-07T11:27:21Z</time>
    <speed>4.0</speed>
  </trkpt>
  <trkpt lat="43.533240" lon="39.907982">
    <ele>154</ele>
    <time>2014-12-07T11:27:23Z</time>
    <speed>3.75</speed>
  </trkpt>
  <trkpt lat="43.533331" lon="39.907942">
    <ele>157</ele>
    <time>2014-12-07T11:27:25Z</time>
    <speed>4.75</speed>
  </trkpt>
  <trkpt lat="43.533393" lon="39.907880">
    <ele>158</ele>
    <time>2014-12-07T11:27:27Z</time>
    <speed>3.5</speed>
  </trkpt>
  <trkpt lat="43.533455" lon="39.907948">
    <ele>157</ele>
    <time>2014-12-07T11:27:31Z</time>
    <speed>3.0</speed>
  </trkpt>
  <trkpt lat="43.533532" lon="39.908058">
    <ele>160</ele>
    <time>2014-12-07T11:27:35Z</time>
    <speed>1.75</speed>
  </trkpt>
  <trkpt lat="43.533572" lon="39.908095">
    <ele>160</ele>
    <time>2014-12-07T11:27:39Z</time>
    <speed>1.25</speed>
  </trkpt>
  <trkpt lat="43.533593" lon="39.908152">
    <ele>163</ele>
    <time>2014-12-07T11:28:06Z</time>
    <speed>0.0</speed>
  </trkpt>
  <trkpt lat="43.533639" lon="39.908175">
    <ele>161</ele>
    <time>2014-12-07T11:28:57Z</time>
    <speed>0.1070331</speed>
  </trkpt>
  <trkpt lat="43.533666" lon="39.908226">
    <ele>162</ele>
    <time>2014-12-07T11:29:00Z</time>
    <speed>1.5</speed>
  </trkpt>
  <trkpt lat="43.533676" lon="39.908337">
    <ele>160</ele>
    <time>2014-12-07T11:29:03Z</time>
    <speed>3.0</speed>
  </trkpt>
  <trkpt lat="43.533680" lon="39.908451">
    <ele>162</ele>
    <time>2014-12-07T11:29:05Z</time>
    <speed>3.75</speed>
  </trkpt>
  <trkpt lat="43.533687" lon="39.908559">
    <ele>162</ele>
    <time>2014-12-07T11:29:07Z</time>
    <speed>3.75</speed>
  </trkpt>
  <trkpt lat="43.533741" lon="39.908633">
    <ele>162</ele>
    <time>2014-12-07T11:29:09Z</time>
    <speed>3.75</speed>
  </trkpt>
  <trkpt lat="43.533849" lon="39.908615">
    <ele>159</ele>
    <time>2014-12-07T11:29:11Z</time>
    <speed>3.75</speed>
  </trkpt>
  <trkpt lat="43.533945" lon="39.908592">
    <ele>158</ele>
    <time>2014-12-07T11:29:13Z</time>
    <speed>3.75</speed>
  </trkpt>
  <trkpt lat="43.534064" lon="39.908624">
    <ele>157</ele>
    <time>2014-12-07T11:29:16Z</time>
    <speed>3.75</speed>
  </trkpt>
  <trkpt lat="43.534122" lon="39.908683">
    <ele>157</ele>
    <time>2014-12-07T11:29:18Z</time>
    <speed>3.5</speed>
  </trkpt>
  <trkpt lat="43.534180" lon="39.908736">
    <ele>156</ele>
    <time>2014-12-07T11:29:20Z</time>
    <speed>3.5</speed>
  </trkpt>
  <trkpt lat="43.534217" lon="39.908805">
    <ele>156</ele>
    <time>2014-12-07T11:29:22Z</time>
    <speed>3.25</speed>
  </trkpt>
  <trkpt lat="43.534215" lon="39.908899">
    <ele>160</ele>
    <time>2014-12-07T11:29:24Z</time>
    <speed>3.25</speed>
  </trkpt>
  <trkpt lat="43.534203" lon="39.908994">
    <ele>157</ele>
    <time>2014-12-07T11:29:26Z</time>
    <speed>3.25</speed>
  </trkpt>
  <trkpt lat="43.534165" lon="39.909044">
    <ele>155</ele>
    <time>2014-12-07T11:29:33Z</time>
    <speed>1.5</speed>
  </trkpt>
  <trkpt lat="43.534142" lon="39.909098">
    <ele>151</ele>
    <time>2014-12-07T11:29:36Z</time>
    <speed>1.25</speed>
  </trkpt>
  <trkpt lat="43.534142" lon="39.909161">
    <ele>153</ele>
    <time>2014-12-07T11:29:41Z</time>
    <speed>0.0</speed>
  </trkpt>
  <trkpt lat="43.534197" lon="39.909173">
    <ele>151</ele>
    <time>2014-12-07T11:30:09Z</time>
    <speed>0.22201982</speed>
  </trkpt>
  <trkpt lat="43.534244" lon="39.909153">
    <ele>159</ele>
    <time>2014-12-07T11:30:11Z</time>
    <speed>2.5</speed>
  </trkpt>
  <trkpt lat="43.534316" lon="39.909136">
    <ele>159</ele>
    <time>2014-12-07T11:30:13Z</time>
    <speed>3.5</speed>
  </trkpt>
  <trkpt lat="43.534364" lon="39.909131">
    <ele>162</ele>
    <time>2014-12-07T11:31:02Z</time>
    <speed>0.0</speed>
  </trkpt>
  <trkpt lat="43.534381" lon="39.909190">
    <ele>167</ele>
    <time>2014-12-07T11:31:30Z</time>
    <speed>0.18376456</speed>
  </trkpt>
  <trkpt lat="43.534426" lon="39.909165">
    <ele>166</ele>
    <time>2014-12-07T11:32:13Z</time>
    <speed>1.75</speed>
  </trkpt>
  <trkpt lat="43.534466" lon="39.909126">
    <ele>167</ele>
    <time>2014-12-07T11:32:16Z</time>
    <speed>1.5</speed>
  </trkpt>
  <trkpt lat="43.534514" lon="39.909098">
    <ele>171</ele>
    <time>2014-12-07T11:32:20Z</time>
    <speed>1.5</speed>
  </trkpt>
  <trkpt lat="43.534566" lon="39.909113">
    <ele>175</ele>
    <time>2014-12-07T11:32:30Z</time>
    <speed>1.25</speed>
  </trkpt>
  <trkpt lat="43.534680" lon="39.909012">
    <ele>177</ele>
    <time>2014-12-07T11:32:33Z</time>
    <speed>4.75</speed>
  </trkpt>
  <trkpt lat="43.534845" lon="39.908860">
    <ele>177</ele>
    <time>2014-12-07T11:32:36Z</time>
    <speed>6.25</speed>
  </trkpt>
  <trkpt lat="43.534940" lon="39.908798">
    <ele>178</ele>
    <time>2014-12-07T11:32:38Z</time>
    <speed>6.25</speed>
  </trkpt>
  <trkpt lat="43.535054" lon="39.908705">
    <ele>180</ele>
    <time>2014-12-07T11:32:41Z</time>
    <speed>4.75</speed>
  </trkpt>
  <trkpt lat="43.535136" lon="39.908653">
    <ele>179</ele>
    <time>2014-12-07T11:32:43Z</time>
    <speed>4.5</speed>
  </trkpt>
  <trkpt lat="43.535216" lon="39.908613">
    <ele>181</ele>
    <time>2014-12-07T11:32:45Z</time>
    <speed>4.0</speed>
  </trkpt>
  <trkpt lat="43.535295" lon="39.908568">
    <ele>184</ele>
    <time>2014-12-07T11:32:47Z</time>
    <speed>5.0</speed>
  </trkpt>
  <trkpt lat="43.535440" lon="39.908522">
    <ele>190</ele>
    <time>2014-12-07T11:32:50Z</time>
    <speed>5.5</speed>
  </trkpt>
  <trkpt lat="43.535523" lon="39.908472">
    <ele>192</ele>
    <time>2014-12-07T11:32:52Z</time>
    <speed>5.25</speed>
  </trkpt>
  <trkpt lat="43.535605" lon="39.908462">
    <ele>198</ele>
    <time>2014-12-07T11:32:54Z</time>
    <speed>4.5</speed>
  </trkpt>
  <trkpt lat="43.535678" lon="39.908446">
    <ele>203</ele>
    <time>2014-12-07T11:32:56Z</time>
    <speed>4.5</speed>
  </trkpt>
  <trkpt lat="43.535747" lon="39.908420">
    <ele>205</ele>
    <time>2014-12-07T11:32:58Z</time>
    <speed>4.5</speed>
  </trkpt>
  <trkpt lat="43.535839" lon="39.908393">
    <ele>209</ele>
    <time>2014-12-07T11:33:00Z</time>
    <speed>4.75</speed>
  </trkpt>
  <trkpt lat="43.535880" lon="39.908366">
    <ele>217</ele>
    <time>2014-12-07T11:33:02Z</time>
    <speed>3.0</speed>
  </trkpt>
  <trkpt lat="43.535918" lon="39.908324">
    <ele>218</ele>
    <time>2014-12-07T11:33:04Z</time>
    <speed>2.5</speed>
  </trkpt>
  <trkpt lat="43.535871" lon="39.908370">
    <ele>222</ele>
    <time>2014-12-07T11:36:11Z</time>
    <speed>1.0</speed>
  </trkpt>
  <trkpt lat="43.535820" lon="39.908373">
    <ele>222</ele>
    <time>2014-12-07T11:36:14Z</time>
    <speed>0.0</speed>
  </trkpt>
  <trkpt lat="43.535774" lon="39.908383">
    <ele>223</ele>
    <time>2014-12-07T11:36:19Z</time>
    <speed>1.0196352</speed>
  </trkpt>
  <trkpt lat="43.535726" lon="39.908401">
    <ele>223</ele>
    <time>2014-12-07T11:36:27Z</time>
    <speed>0.75</speed>
  </trkpt>
  <trkpt lat="43.535677" lon="39.908438">
    <ele>220</ele>
    <time>2014-12-07T11:36:33Z</time>
    <speed>0.75</speed>
  </trkpt>
  <trkpt lat="43.535624" lon="39.908460">
    <ele>217</ele>
    <time>2014-12-07T11:36:36Z</time>
    <speed>1.25</speed>
  </trkpt>
  <trkpt lat="43.535574" lon="39.908474">
    <ele>216</ele>
    <time>2014-12-07T11:36:39Z</time>
    <speed>1.25</speed>
  </trkpt>
  <trkpt lat="43.535520" lon="39.908463">
    <ele>215</ele>
    <time>2014-12-07T11:36:42Z</time>
    <speed>1.25</speed>
  </trkpt>
  <trkpt lat="43.535475" lon="39.908446">
    <ele>212</ele>
    <time>2014-12-07T11:36:47Z</time>
    <speed>1.0</speed>
  </trkpt>
  <trkpt lat="43.535437" lon="39.908383">
    <ele>211</ele>
    <time>2014-12-07T11:36:52Z</time>
    <speed>0.0</speed>
  </trkpt>
  <trkpt lat="43.535451" lon="39.908208">
    <ele>213</ele>
    <time>2014-12-07T11:37:01Z</time>
    <speed>1.5868974</speed>
  </trkpt>
  <trkpt lat="43.535497" lon="39.908097">
    <ele>215</ele>
    <time>2014-12-07T11:37:03Z</time>
    <speed>4.5</speed>
  </trkpt>
  <trkpt lat="43.535618" lon="39.908013">
    <ele>216</ele>
    <time>2014-12-07T11:37:05Z</time>
    <speed>5.25</speed>
  </trkpt>
  <trkpt lat="43.535786" lon="39.907762">
    <ele>221</ele>
    <time>2014-12-07T11:37:09Z</time>
    <speed>7.5</speed>
  </trkpt>
  <trkpt lat="43.535861" lon="39.907637">
    <ele>221</ele>
    <time>2014-12-07T11:37:11Z</time>
    <speed>7.0</speed>
  </trkpt>
  <trkpt lat="43.535920" lon="39.907505">
    <ele>224</ele>
    <time>2014-12-07T11:37:13Z</time>
    <speed>6.25</speed>
  </trkpt>
  <trkpt lat="43.535968" lon="39.907408">
    <ele>224</ele>
    <time>2014-12-07T11:37:15Z</time>
    <speed>4.75</speed>
  </trkpt>
  <trkpt lat="43.536055" lon="39.907317">
    <ele>220</ele>
    <time>2014-12-07T11:37:17Z</time>
    <speed>5.75</speed>
  </trkpt>
  <trkpt lat="43.536117" lon="39.907218">
    <ele>220</ele>
    <time>2014-12-07T11:37:19Z</time>
    <speed>3.75</speed>
  </trkpt>
  <trkpt lat="43.536166" lon="39.907194">
    <ele>223</ele>
    <time>2014-12-07T11:37:24Z</time>
    <speed>0.25</speed>
  </trkpt>
  <trkpt lat="43.536218" lon="39.907199">
    <ele>233</ele>
    <time>2014-12-07T11:38:05Z</time>
    <speed>3.5</speed>
  </trkpt>
  <trkpt lat="43.536316" lon="39.907048">
    <ele>233</ele>
    <time>2014-12-07T11:38:07Z</time>
    <speed>4.75</speed>
  </trkpt>
  <trkpt lat="43.536399" lon="39.906963">
    <ele>237</ele>
    <time>2014-12-07T11:38:09Z</time>
    <speed>4.5</speed>
  </trkpt>
  <trkpt lat="43.536479" lon="39.906868">
    <ele>242</ele>
    <time>2014-12-07T11:38:11Z</time>
    <speed>5.0</speed>
  </trkpt>
  <trkpt lat="43.536582" lon="39.906790">
    <ele>242</ele>
    <time>2014-12-07T11:38:13Z</time>
    <speed>6.25</speed>
  </trkpt>
  <trkpt lat="43.536687" lon="39.906699">
    <ele>243</ele>
    <time>2014-12-07T11:38:15Z</time>
    <speed>6.5</speed>
  </trkpt>
  <trkpt lat="43.536793" lon="39.906614">
    <ele>243</ele>
    <time>2014-12-07T11:38:17Z</time>
    <speed>5.5</speed>
  </trkpt>
  <trkpt lat="43.536913" lon="39.906530">
    <ele>247</ele>
    <time>2014-12-07T11:38:19Z</time>
    <speed>6.5</speed>
  </trkpt>
  <trkpt lat="43.537003" lon="39.906421">
    <ele>250</ele>
    <time>2014-12-07T11:38:21Z</time>
    <speed>6.25</speed>
  </trkpt>
  <trkpt lat="43.537091" lon="39.906314">
    <ele>253</ele>
    <time>2014-12-07T11:38:23Z</time>
    <speed>6.25</speed>
  </trkpt>
  <trkpt lat="43.537197" lon="39.906165">
    <ele>254</ele>
    <time>2014-12-07T11:38:25Z</time>
    <speed>7.25</speed>
  </trkpt>
  <trkpt lat="43.537233" lon="39.906060">
    <ele>256</ele>
    <time>2014-12-07T11:38:27Z</time>
    <speed>4.75</speed>
  </trkpt>
  <trkpt lat="43.537252" lon="39.905971">
    <ele>256</ele>
    <time>2014-12-07T11:38:29Z</time>
    <speed>2.75</speed>
  </trkpt>
  <trkpt lat="43.537271" lon="39.905883">
    <ele>258</ele>
    <time>2014-12-07T11:38:31Z</time>
    <speed>4.0</speed>
  </trkpt>
  <trkpt lat="43.537302" lon="39.905715">
    <ele>248</ele>
    <time>2014-12-07T11:38:33Z</time>
    <speed>6.5</speed>
  </trkpt>
  <trkpt lat="43.537349" lon="39.905657">
    <ele>256</ele>
    <time>2014-12-07T11:38:35Z</time>
    <speed>3.0</speed>
  </trkpt>
  <trkpt lat="43.537386" lon="39.905621">
    <ele>262</ele>
    <time>2014-12-07T11:38:41Z</time>
    <speed>1.5</speed>
  </trkpt>
  <trkpt lat="43.537409" lon="39.905556">
    <ele>263</ele>
    <time>2014-12-07T11:38:43Z</time>
    <speed>2.5</speed>
  </trkpt>
  <trkpt lat="43.537435" lon="39.905496">
    <ele>265</ele>
    <time>2014-12-07T11:38:45Z</time>
    <speed>2.25</speed>
  </trkpt>
  <trkpt lat="43.537466" lon="39.905441">
    <ele>265</ele>
    <time>2014-12-07T11:38:48Z</time>
    <speed>1.75</speed>
  </trkpt>
  <trkpt lat="43.537521" lon="39.905369">
    <ele>268</ele>
    <time>2014-12-07T11:38:51Z</time>
    <speed>2.5</speed>
  </trkpt>
  <trkpt lat="43.537585" lon="39.905285">
    <ele>270</ele>
    <time>2014-12-07T11:38:53Z</time>
    <speed>4.0</speed>
  </trkpt>
  <trkpt lat="43.537656" lon="39.905218">
    <ele>274</ele>
    <time>2014-12-07T11:38:55Z</time>
    <speed>4.0</speed>
  </trkpt>
  <trkpt lat="43.537731" lon="39.905168">
    <ele>277</ele>
    <time>2014-12-07T11:38:57Z</time>
    <speed>3.75</speed>
  </trkpt>
  <trkpt lat="43.537800" lon="39.905117">
    <ele>276</ele>
    <time>2014-12-07T11:38:59Z</time>
    <speed>3.75</speed>
  </trkpt>
  <trkpt lat="43.537864" lon="39.905092">
    <ele>276</ele>
    <time>2014-12-07T11:39:01Z</time>
    <speed>3.25</speed>
  </trkpt>
  <trkpt lat="43.537908" lon="39.905117">
    <ele>278</ele>
    <time>2014-12-07T11:39:04Z</time>
    <speed>0.75</speed>
  </trkpt>
  <trkpt lat="43.537935" lon="39.905168">
    <ele>279</ele>
    <time>2014-12-07T11:39:09Z</time>
    <speed>0.75</speed>
  </trkpt>
  <trkpt lat="43.537894" lon="39.905136">
    <ele>280</ele>
    <time>2014-12-07T11:39:21Z</time>
    <speed>1.25</speed>
  </trkpt>
  <trkpt lat="43.537853" lon="39.905072">
    <ele>285</ele>
    <time>2014-12-07T11:39:24Z</time>
    <speed>1.75</speed>
  </trkpt>
  <trkpt lat="43.537849" lon="39.904981">
    <ele>286</ele>
    <time>2014-12-07T11:39:27Z</time>
    <speed>2.25</speed>
  </trkpt>
  <trkpt lat="43.537872" lon="39.904913">
    <ele>286</ele>
    <time>2014-12-07T11:39:29Z</time>
    <speed>2.5</speed>
  </trkpt>
  <trkpt lat="43.537922" lon="39.904881">
    <ele>286</ele>
    <time>2014-12-07T11:39:31Z</time>
    <speed>2.75</speed>
  </trkpt>
  <trkpt lat="43.538025" lon="39.904926">
    <ele>286</ele>
    <time>2014-12-07T11:39:33Z</time>
    <speed>6.75</speed>
  </trkpt>
  <trkpt lat="43.538193" lon="39.905056">
    <ele>288</ele>
    <time>2014-12-07T11:39:35Z</time>
    <speed>8.75</speed>
  </trkpt>
  <trkpt lat="43.538303" lon="39.905122">
    <ele>288</ele>
    <time>2014-12-07T11:39:37Z</time>
    <speed>6.0</speed>
  </trkpt>
  <trkpt lat="43.538333" lon="39.905238">
    <ele>289</ele>
    <time>2014-12-07T11:39:39Z</time>
    <speed>3.75</speed>
  </trkpt>
  <trkpt lat="43.538346" lon="39.905347">
    <ele>288</ele>
    <time>2014-12-07T11:39:41Z</time>
    <speed>3.75</speed>
  </trkpt>
  <trkpt lat="43.538332" lon="39.905447">
    <ele>288</ele>
    <time>2014-12-07T11:39:43Z</time>
    <speed>4.0</speed>
  </trkpt>
  <trkpt lat="43.538292" lon="39.905521">
    <ele>288</ele>
    <time>2014-12-07T11:39:45Z</time>
    <speed>4.0</speed>
  </trkpt>
  <trkpt lat="43.538152" lon="39.905618">
    <ele>291</ele>
    <time>2014-12-07T11:39:47Z</time>
    <speed>8.25</speed>
  </trkpt>
  <trkpt lat="43.538003" lon="39.905732">
    <ele>293</ele>
    <time>2014-12-07T11:39:49Z</time>
    <speed>8.25</speed>
  </trkpt>
  <trkpt lat="43.537932" lon="39.905787">
    <ele>294</ele>
    <time>2014-12-07T11:39:51Z</time>
    <speed>4.0</speed>
  </trkpt>
  <trkpt lat="43.537943" lon="39.905727">
    <ele>306</ele>
    <time>2014-12-07T11:43:36Z</time>
    <speed>0.0</speed>
  </trkpt>
  <trkpt lat="43.537927" lon="39.905667">
    <ele>272</ele>
    <time>2014-12-07T11:44:01Z</time>
    <speed>0.20646802</speed>
  </trkpt>
  <trkpt lat="43.537975" lon="39.905653">
    <ele>306</ele>
    <time>2014-12-07T11:46:34Z</time>
    <speed>2.75</speed>
  </trkpt>
  <trkpt lat="43.538224" lon="39.905482">
    <ele>305</ele>
    <time>2014-12-07T11:46:39Z</time>
    <speed>6.0</speed>
  </trkpt>
  <trkpt lat="43.538708" lon="39.905822">
    <ele>288</ele>
    <time>2014-12-07T11:47:04Z</time>
    <speed>3.5</speed>
  </trkpt>
  <trkpt lat="43.538780" lon="39.905895">
    <ele>285</ele>
    <time>2014-12-07T11:47:06Z</time>
    <speed>4.0</speed>
  </trkpt>
  <trkpt lat="43.538851" lon="39.905950">
    <ele>282</ele>
    <time>2014-12-07T11:47:08Z</time>
    <speed>3.75</speed>
  </trkpt>
  <trkpt lat="43.538907" lon="39.905996">
    <ele>285</ele>
    <time>2014-12-07T11:47:10Z</time>
    <speed>2.75</speed>
  </trkpt>
  <trkpt lat="43.538954" lon="39.906045">
    <ele>286</ele>
    <time>2014-12-07T11:47:12Z</time>
    <speed>2.75</speed>
  </trkpt>
  <trkpt lat="43.538999" lon="39.906099">
    <ele>284</ele>
    <time>2014-12-07T11:47:14Z</time>
    <speed>2.75</speed>
  </trkpt>
  <trkpt lat="43.539031" lon="39.906149">
    <ele>285</ele>
    <time>2014-12-07T11:47:16Z</time>
    <speed>2.5</speed>
  </trkpt>
  <trkpt lat="43.539018" lon="39.906215">
    <ele>286</ele>
    <time>2014-12-07T11:47:37Z</time>
    <speed>1.25</speed>
  </trkpt>
  <trkpt lat="43.538982" lon="39.906300">
    <ele>285</ele>
    <time>2014-12-07T11:47:40Z</time>
    <speed>3.0</speed>
  </trkpt>
  <trkpt lat="43.538947" lon="39.906364">
    <ele>284</ele>
    <time>2014-12-07T11:47:42Z</time>
    <speed>3.0</speed>
  </trkpt>
  <trkpt lat="43.538904" lon="39.906406">
    <ele>282</ele>
    <time>2014-12-07T11:47:44Z</time>
    <speed>3.0</speed>
  </trkpt>
  <trkpt lat="43.538857" lon="39.906444">
    <ele>279</ele>
    <time>2014-12-07T11:47:46Z</time>
    <speed>3.0</speed>
  </trkpt>
  <trkpt lat="43.538805" lon="39.906473">
    <ele>275</ele>
    <time>2014-12-07T11:47:48Z</time>
    <speed>3.0</speed>
  </trkpt>
  <trkpt lat="43.538753" lon="39.906509">
    <ele>277</ele>
    <time>2014-12-07T11:47:50Z</time>
    <speed>3.0</speed>
  </trkpt>
  <trkpt lat="43.538704" lon="39.906550">
    <ele>276</ele>
    <time>2014-12-07T11:47:52Z</time>
    <speed>3.0</speed>
  </trkpt>
  <trkpt lat="43.538661" lon="39.906587">
    <ele>274</ele>
    <time>2014-12-07T11:47:54Z</time>
    <speed>2.75</speed>
  </trkpt>
  <trkpt lat="43.538614" lon="39.906798">
    <ele>261</ele>
    <time>2014-12-07T11:48:11Z</time>
    <speed>1.25</speed>
  </trkpt>
  <trkpt lat="43.538636" lon="39.906857">
    <ele>260</ele>
    <time>2014-12-07T11:48:15Z</time>
    <speed>1.5</speed>
  </trkpt>
  <trkpt lat="43.538649" lon="39.906994">
    <ele>259</ele>
    <time>2014-12-07T11:48:19Z</time>
    <speed>2.5</speed>
  </trkpt>
  <trkpt lat="43.538654" lon="39.907061">
    <ele>258</ele>
    <time>2014-12-07T11:48:21Z</time>
    <speed>2.25</speed>
  </trkpt>
  <trkpt lat="43.538678" lon="39.907125">
    <ele>258</ele>
    <time>2014-12-07T11:48:24Z</time>
    <speed>1.75</speed>
  </trkpt>
  <trkpt lat="43.538710" lon="39.907242">
    <ele>254</ele>
    <time>2014-12-07T11:48:29Z</time>
    <speed>2.0</speed>
  </trkpt>
  <trkpt lat="43.538703" lon="39.907308">
    <ele>253</ele>
    <time>2014-12-07T11:48:31Z</time>
    <speed>2.0</speed>
  </trkpt>
  <trkpt lat="43.538639" lon="39.907416">
    <ele>255</ele>
    <time>2014-12-07T11:48:36Z</time>
    <speed>2.0</speed>
  </trkpt>
  <trkpt lat="43.538592" lon="39.907459">
    <ele>253</ele>
    <time>2014-12-07T11:48:38Z</time>
    <speed>2.5</speed>
  </trkpt>
  <trkpt lat="43.538555" lon="39.907504">
    <ele>253</ele>
    <time>2014-12-07T11:48:40Z</time>
    <speed>2.25</speed>
  </trkpt>
  <trkpt lat="43.538524" lon="39.907552">
    <ele>254</ele>
    <time>2014-12-07T11:48:42Z</time>
    <speed>2.25</speed>
  </trkpt>
  <trkpt lat="43.538489" lon="39.907598">
    <ele>251</ele>
    <time>2014-12-07T11:48:44Z</time>
    <speed>2.0</speed>
  </trkpt>
  <trkpt lat="43.538434" lon="39.907645">
    <ele>249</ele>
    <time>2014-12-07T11:48:47Z</time>
    <speed>2.0</speed>
  </trkpt>
  <trkpt lat="43.538390" lon="39.907658">
    <ele>255</ele>
    <time>2014-12-07T11:48:49Z</time>
    <speed>2.25</speed>
  </trkpt>
  <trkpt lat="43.538341" lon="39.907668">
    <ele>253</ele>
    <time>2014-12-07T11:48:51Z</time>
    <speed>2.25</speed>
  </trkpt>
  <trkpt lat="43.538309" lon="39.907743">
    <ele>240</ele>
    <time>2014-12-07T11:50:13Z</time>
    <speed>1.75</speed>
  </trkpt>
  <trkpt lat="43.538260" lon="39.907770">
    <ele>239</ele>
    <time>2014-12-07T11:50:16Z</time>
    <speed>1.5</speed>
  </trkpt>
  <trkpt lat="43.538204" lon="39.907823">
    <ele>238</ele>
    <time>2014-12-07T11:50:19Z</time>
    <speed>1.5</speed>
  </trkpt>
  <trkpt lat="43.538163" lon="39.907879">
    <ele>239</ele>
    <time>2014-12-07T11:50:21Z</time>
    <speed>1.5</speed>
  </trkpt>
  <trkpt lat="43.538115" lon="39.907930">
    <ele>240</ele>
    <time>2014-12-07T11:50:23Z</time>
    <speed>1.75</speed>
  </trkpt>
  <trkpt lat="43.538094" lon="39.908004">
    <ele>240</ele>
    <time>2014-12-07T11:50:25Z</time>
    <speed>1.75</speed>
  </trkpt>
  <trkpt lat="43.538094" lon="39.908081">
    <ele>239</ele>
    <time>2014-12-07T11:50:27Z</time>
    <speed>1.75</speed>
  </trkpt>
  <trkpt lat="43.538083" lon="39.908144">
    <ele>240</ele>
    <time>2014-12-07T11:50:29Z</time>
    <speed>1.75</speed>
  </trkpt>
  <trkpt lat="43.538043" lon="39.908218">
    <ele>241</ele>
    <time>2014-12-07T11:50:32Z</time>
    <speed>1.75</speed>
  </trkpt>
  <trkpt lat="43.538005" lon="39.908264">
    <ele>240</ele>
    <time>2014-12-07T11:50:34Z</time>
    <speed>2.0</speed>
  </trkpt>
  <trkpt lat="43.537961" lon="39.908302">
    <ele>238</ele>
    <time>2014-12-07T11:50:36Z</time>
    <speed>1.75</speed>
  </trkpt>
  <trkpt lat="43.537914" lon="39.908316">
    <ele>238</ele>
    <time>2014-12-07T11:50:38Z</time>
    <speed>1.75</speed>
  </trkpt>
  <trkpt lat="43.537871" lon="39.908342">
    <ele>239</ele>
    <time>2014-12-07T11:50:50Z</time>
    <speed>0.0</speed>
  </trkpt>
  <trkpt lat="43.537826" lon="39.908388">
    <ele>232</ele>
    <time>2014-12-07T11:51:25Z</time>
    <speed>0.17832114</speed>
  </trkpt>
  <trkpt lat="43.537771" lon="39.908415">
    <ele>232</ele>
    <time>2014-12-07T11:51:27Z</time>
    <speed>2.5</speed>
  </trkpt>
  <trkpt lat="43.537709" lon="39.908449">
    <ele>232</ele>
    <time>2014-12-07T11:51:29Z</time>
    <speed>2.75</speed>
  </trkpt>
  <trkpt lat="43.537644" lon="39.908486">
    <ele>232</ele>
    <time>2014-12-07T11:51:31Z</time>
    <speed>2.5</speed>
  </trkpt>
  <trkpt lat="43.537605" lon="39.908527">
    <ele>232</ele>
    <time>2014-12-07T11:51:33Z</time>
    <speed>2.0</speed>
  </trkpt>
  <trkpt lat="43.537649" lon="39.908548">
    <ele>231</ele>
    <time>2014-12-07T11:53:24Z</time>
    <speed>2.0</speed>
  </trkpt>
  <trkpt lat="43.537713" lon="39.908515">
    <ele>230</ele>
    <time>2014-12-07T11:53:27Z</time>
    <speed>3.0</speed>
  </trkpt>
  <trkpt lat="43.537759" lon="39.908494">
    <ele>230</ele>
    <time>2014-12-07T11:53:29Z</time>
    <speed>3.25</speed>
  </trkpt>
  <trkpt lat="43.537817" lon="39.908457">
    <ele>231</ele>
    <time>2014-12-07T11:53:31Z</time>
    <speed>3.75</speed>
  </trkpt>
  <trkpt lat="43.537876" lon="39.908391">
    <ele>233</ele>
    <time>2014-12-07T11:53:33Z</time>
    <speed>4.5</speed>
  </trkpt>
  <trkpt lat="43.537924" lon="39.908327">
    <ele>232</ele>
    <time>2014-12-07T11:53:35Z</time>
    <speed>3.75</speed>
  </trkpt>
  <trkpt lat="43.537872" lon="39.908356">
    <ele>233</ele>
    <time>2014-12-07T11:53:40Z</time>
    <speed>0.0</speed>
  </trkpt>
  <trkpt lat="43.537906" lon="39.908286">
    <ele>226</ele>
    <time>2014-12-07T11:57:31Z</time>
    <speed>0.029186139</speed>
  </trkpt>
  <trkpt lat="43.537961" lon="39.908170">
    <ele>226</ele>
    <time>2014-12-07T11:57:33Z</time>
    <speed>4.0</speed>
  </trkpt>
  <trkpt lat="43.538007" lon="39.908089">
    <ele>228</ele>
    <time>2014-12-07T11:57:35Z</time>
    <speed>3.0</speed>
  </trkpt>
  <trkpt lat="43.538050" lon="39.908056">
    <ele>229</ele>
    <time>2014-12-07T11:57:41Z</time>
    <speed>0.0</speed>
  </trkpt>
  <trkpt lat="43.538082" lon="39.908011">
    <ele>225</ele>
    <time>2014-12-07T12:00:20Z</time>
    <speed>0.031742632</speed>
  </trkpt>
  <trkpt lat="43.538138" lon="39.907970">
    <ele>225</ele>
    <time>2014-12-07T12:00:46Z</time>
    <speed>2.25</speed>
  </trkpt>
  <trkpt lat="43.538187" lon="39.907900">
    <ele>224</ele>
    <time>2014-12-07T12:00:48Z</time>
    <speed>3.0</speed>
  </trkpt>
  <trkpt lat="43.538241" lon="39.907816">
    <ele>226</ele>
    <time>2014-12-07T12:00:50Z</time>
    <speed>3.75</speed>
  </trkpt>
  <trkpt lat="43.538295" lon="39.907749">
    <ele>226</ele>
    <time>2014-12-07T12:00:52Z</time>
    <speed>3.5</speed>
  </trkpt>
  <trkpt lat="43.538343" lon="39.907727">
    <ele>229</ele>
    <time>2014-12-07T12:00:54Z</time>
    <speed>2.25</speed>
  </trkpt>
  <trkpt lat="43.538381" lon="39.907773">
    <ele>231</ele>
    <time>2014-12-07T12:01:04Z</time>
    <speed>0.75</speed>
  </trkpt>
  <trkpt lat="43.538428" lon="39.907787">
    <ele>231</ele>
    <time>2014-12-07T12:01:10Z</time>
    <speed>1.0</speed>
  </trkpt>
  <trkpt lat="43.538473" lon="39.907744">
    <ele>230</ele>
    <time>2014-12-07T12:01:14Z</time>
    <speed>1.0</speed>
  </trkpt>
  <trkpt lat="43.538528" lon="39.907648">
    <ele>230</ele>
    <time>2014-12-07T12:01:16Z</time>
    <speed>4.0</speed>
  </trkpt>
  <trkpt lat="43.538586" lon="39.907554">
    <ele>230</ele>
    <time>2014-12-07T12:01:18Z</time>
    <speed>4.25</speed>
  </trkpt>
  <trkpt lat="43.538659" lon="39.907473">
    <ele>229</ele>
    <time>2014-12-07T12:01:20Z</time>
    <speed>4.0</speed>
  </trkpt>
  <trkpt lat="43.538728" lon="39.907419">
    <ele>232</ele>
    <time>2014-12-07T12:01:22Z</time>
    <speed>3.75</speed>
  </trkpt>
  <trkpt lat="43.538690" lon="39.907485">
    <ele>241</ele>
    <time>2014-12-07T12:01:24Z</time>
    <speed>0.0</speed>
  </trkpt>
  <trkpt lat="43.538694" lon="39.907393">
    <ele>242</ele>
    <time>2014-12-07T12:01:29Z</time>
    <speed>1.4891807</speed>
  </trkpt>
  <trkpt lat="43.538689" lon="39.907294">
    <ele>242</ele>
    <time>2014-12-07T12:01:31Z</time>
    <speed>3.25</speed>
  </trkpt>
  <trkpt lat="43.538667" lon="39.907221">
    <ele>244</ele>
    <time>2014-12-07T12:01:33Z</time>
    <speed>3.25</speed>
  </trkpt>
  <trkpt lat="43.538627" lon="39.907139">
    <ele>247</ele>
    <time>2014-12-07T12:01:35Z</time>
    <speed>3.5</speed>
  </trkpt>
  <trkpt lat="43.538608" lon="39.906896">
    <ele>249</ele>
    <time>2014-12-07T12:01:37Z</time>
    <speed>6.75</speed>
  </trkpt>
  <trkpt lat="43.538645" lon="39.906722">
    <ele>251</ele>
    <time>2014-12-07T12:01:39Z</time>
    <speed>5.75</speed>
  </trkpt>
  <trkpt lat="43.538700" lon="39.906652">
    <ele>254</ele>
    <time>2014-12-07T12:01:41Z</time>
    <speed>3.25</speed>
  </trkpt>
  <trkpt lat="43.538763" lon="39.906544">
    <ele>253</ele>
    <time>2014-12-07T12:01:43Z</time>
    <speed>4.75</speed>
  </trkpt>
  <trkpt lat="43.538841" lon="39.906469">
    <ele>254</ele>
    <time>2014-12-07T12:01:45Z</time>
    <speed>4.75</speed>
  </trkpt>
  <trkpt lat="43.538867" lon="39.906385">
    <ele>255</ele>
    <time>2014-12-07T12:01:47Z</time>
    <speed>4.5</speed>
  </trkpt>
  <trkpt lat="43.538947" lon="39.906272">
    <ele>256</ele>
    <time>2014-12-07T12:01:49Z</time>
    <speed>5.25</speed>
  </trkpt>
  <trkpt lat="43.538982" lon="39.906179">
    <ele>259</ele>
    <time>2014-12-07T12:01:51Z</time>
    <speed>4.0</speed>
  </trkpt>
  <trkpt lat="43.538995" lon="39.906090">
    <ele>263</ele>
    <time>2014-12-07T12:01:53Z</time>
    <speed>3.75</speed>
  </trkpt>
  <trkpt lat="43.539030" lon="39.906145">
    <ele>272</ele>
    <time>2014-12-07T12:02:14Z</time>
    <speed>0.5</speed>
  </trkpt>
  <trkpt lat="43.539075" lon="39.906106">
    <ele>279</ele>
    <time>2014-12-07T12:02:22Z</time>
    <speed>1.5</speed>
  </trkpt>
  <trkpt lat="43.539119" lon="39.906087">
    <ele>276</ele>
    <time>2014-12-07T12:02:24Z</time>
    <speed>2.25</speed>
  </trkpt>
  <trkpt lat="43.539179" lon="39.906088">
    <ele>272</ele>
    <time>2014-12-07T12:02:26Z</time>
    <speed>2.75</speed>
  </trkpt>
  <trkpt lat="43.539254" lon="39.906102">
    <ele>269</ele>
    <time>2014-12-07T12:02:28Z</time>
    <speed>3.5</speed>
  </trkpt>
  <trkpt lat="43.539342" lon="39.906148">
    <ele>270</ele>
    <time>2014-12-07T12:02:30Z</time>
    <speed>4.0</speed>
  </trkpt>
  <trkpt lat="43.539409" lon="39.906201">
    <ele>269</ele>
    <time>2014-12-07T12:02:32Z</time>
    <speed>3.25</speed>
  </trkpt>
  <trkpt lat="43.539438" lon="39.906252">
    <ele>268</ele>
    <time>2014-12-07T12:02:34Z</time>
    <speed>2.25</speed>
  </trkpt>
  <trkpt lat="43.539463" lon="39.906346">
    <ele>270</ele>
    <time>2014-12-07T12:02:36Z</time>
    <speed>3.0</speed>
  </trkpt>
  <trkpt lat="43.539484" lon="39.906485">
    <ele>270</ele>
    <time>2014-12-07T12:02:38Z</time>
    <speed>4.5</speed>
  </trkpt>
  <trkpt lat="43.539499" lon="39.906615">
    <ele>272</ele>
    <time>2014-12-07T12:02:40Z</time>
    <speed>4.25</speed>
  </trkpt>
  <trkpt lat="43.539524" lon="39.906728">
    <ele>268</ele>
    <time>2014-12-07T12:02:42Z</time>
    <speed>3.75</speed>
  </trkpt>
  <trkpt lat="43.539558" lon="39.906828">
    <ele>265</ele>
    <time>2014-12-07T12:02:44Z</time>
    <speed>4.0</speed>
  </trkpt>
  <trkpt lat="43.539616" lon="39.906916">
    <ele>260</ele>
    <time>2014-12-07T12:02:46Z</time>
    <speed>4.0</speed>
  </trkpt>
  <trkpt lat="43.539683" lon="39.906984">
    <ele>258</ele>
    <time>2014-12-07T12:02:48Z</time>
    <speed>3.75</speed>
  </trkpt>
  <trkpt lat="43.539724" lon="39.907018">
    <ele>259</ele>
    <time>2014-12-07T12:02:50Z</time>
    <speed>1.75</speed>
  </trkpt>
  <trkpt lat="43.539750" lon="39.907081">
    <ele>261</ele>
    <time>2014-12-07T12:02:55Z</time>
    <speed>1.0</speed>
  </trkpt>
  <trkpt lat="43.539753" lon="39.907207">
    <ele>261</ele>
    <time>2014-12-07T12:02:58Z</time>
    <speed>3.75</speed>
  </trkpt>
  <trkpt lat="43.539750" lon="39.907328">
    <ele>264</ele>
    <time>2014-12-07T12:03:00Z</time>
    <speed>3.25</speed>
  </trkpt>
  <trkpt lat="43.539739" lon="39.907434">
    <ele>263</ele>
    <time>2014-12-07T12:03:02Z</time>
    <speed>3.25</speed>
  </trkpt>
  <trkpt lat="43.539743" lon="39.907539">
    <ele>261</ele>
    <time>2014-12-07T12:03:04Z</time>
    <speed>3.25</speed>
  </trkpt>
  <trkpt lat="43.539745" lon="39.907651">
    <ele>262</ele>
    <time>2014-12-07T12:03:06Z</time>
    <speed>3.5</speed>
  </trkpt>
  <trkpt lat="43.539740" lon="39.907752">
    <ele>262</ele>
    <time>2014-12-07T12:03:08Z</time>
    <speed>3.25</speed>
  </trkpt>
  <trkpt lat="43.539721" lon="39.907847">
    <ele>259</ele>
    <time>2014-12-07T12:03:10Z</time>
    <speed>3.25</speed>
  </trkpt>
  <trkpt lat="43.539691" lon="39.907936">
    <ele>259</ele>
    <time>2014-12-07T12:03:12Z</time>
    <speed>3.25</speed>
  </trkpt>
  <trkpt lat="43.539657" lon="39.908028">
    <ele>258</ele>
    <time>2014-12-07T12:03:14Z</time>
    <speed>3.25</speed>
  </trkpt>
  <trkpt lat="43.539622" lon="39.908136">
    <ele>253</ele>
    <time>2014-12-07T12:03:16Z</time>
    <speed>3.25</speed>
  </trkpt>
  <trkpt lat="43.539611" lon="39.908230">
    <ele>253</ele>
    <time>2014-12-07T12:03:18Z</time>
    <speed>3.0</speed>
  </trkpt>
  <trkpt lat="43.539627" lon="39.908307">
    <ele>252</ele>
    <time>2014-12-07T12:03:20Z</time>
    <speed>2.75</speed>
  </trkpt>
  <trkpt lat="43.539646" lon="39.908370">
    <ele>250</ele>
    <time>2014-12-07T12:03:22Z</time>
    <speed>2.25</speed>
  </trkpt>
  <trkpt lat="43.539656" lon="39.908443">
    <ele>258</ele>
    <time>2014-12-07T12:03:50Z</time>
    <speed>0.5</speed>
  </trkpt>
  <trkpt lat="43.539699" lon="39.908483">
    <ele>254</ele>
    <time>2014-12-07T12:03:56Z</time>
    <speed>0.0</speed>
  </trkpt>
  <trkpt lat="43.539744" lon="39.908481">
    <ele>250</ele>
    <time>2014-12-07T12:05:10Z</time>
    <speed>0.068135716</speed>
  </trkpt>
  <trkpt lat="43.539720" lon="39.908424">
    <ele>253</ele>
    <time>2014-12-07T12:05:28Z</time>
    <speed>0.5</speed>
  </trkpt>
  <trkpt lat="43.539740" lon="39.908365">
    <ele>255</ele>
    <time>2014-12-07T12:06:35Z</time>
    <speed>2.25</speed>
  </trkpt>
  <trkpt lat="43.539779" lon="39.908250">
    <ele>255</ele>
    <time>2014-12-07T12:06:37Z</time>
    <speed>4.0</speed>
  </trkpt>
  <trkpt lat="43.539812" lon="39.908134">
    <ele>259</ele>
    <time>2014-12-07T12:06:39Z</time>
    <speed>4.25</speed>
  </trkpt>
  <trkpt lat="43.539825" lon="39.907987">
    <ele>258</ele>
    <time>2014-12-07T12:06:41Z</time>
    <speed>4.5</speed>
  </trkpt>
  <trkpt lat="43.539815" lon="39.907779">
    <ele>260</ele>
    <time>2014-12-07T12:06:43Z</time>
    <speed>5.5</speed>
  </trkpt>
  <trkpt lat="43.539778" lon="39.907623">
    <ele>260</ele>
    <time>2014-12-07T12:06:45Z</time>
    <speed>5.25</speed>
  </trkpt>
  <trkpt lat="43.539788" lon="39.907483">
    <ele>260</ele>
    <time>2014-12-07T12:06:47Z</time>
    <speed>4.25</speed>
  </trkpt>
  <trkpt lat="43.539801" lon="39.907410">
    <ele>265</ele>
    <time>2014-12-07T12:06:49Z</time>
    <speed>4.25</speed>
  </trkpt>
  <trkpt lat="43.539792" lon="39.907292">
    <ele>262</ele>
    <time>2014-12-07T12:06:51Z</time>
    <speed>4.0</speed>
  </trkpt>
  <trkpt lat="43.539771" lon="39.907217">
    <ele>263</ele>
    <time>2014-12-07T12:06:53Z</time>
    <speed>3.5</speed>
  </trkpt>
  <trkpt lat="43.539831" lon="39.907048">
    <ele>261</ele>
    <time>2014-12-07T12:06:55Z</time>
    <speed>4.75</speed>
  </trkpt>
  <trkpt lat="43.539831" lon="39.906900">
    <ele>260</ele>
    <time>2014-12-07T12:06:57Z</time>
    <speed>5.75</speed>
  </trkpt>
  <trkpt lat="43.539849" lon="39.906737">
    <ele>261</ele>
    <time>2014-12-07T12:06:59Z</time>
    <speed>6.0</speed>
  </trkpt>
  <trkpt lat="43.539836" lon="39.906619">
    <ele>260</ele>
    <time>2014-12-07T12:07:01Z</time>
    <speed>4.25</speed>
  </trkpt>
  <trkpt lat="43.539810" lon="39.906559">
    <ele>264</ele>
    <time>2014-12-07T12:07:07Z</time>
    <speed>0.5</speed>
  </trkpt>
  <trkpt lat="43.539861" lon="39.906538">
    <ele>263</ele>
    <time>2014-12-07T12:07:11Z</time>
    <speed>1.0</speed>
  </trkpt>
  <trkpt lat="43.539915" lon="39.906520">
    <ele>281</ele>
    <time>2014-12-07T12:07:43Z</time>
    <speed>0.5</speed>
  </trkpt>
  <trkpt lat="43.539913" lon="39.906614">
    <ele>278</ele>
    <time>2014-12-07T12:08:52Z</time>
    <speed>2.5</speed>
  </trkpt>
  <trkpt lat="43.539899" lon="39.906705">
    <ele>278</ele>
    <time>2014-12-07T12:08:54Z</time>
    <speed>2.75</speed>
  </trkpt>
  <trkpt lat="43.539881" lon="39.906782">
    <ele>277</ele>
    <time>2014-12-07T12:08:56Z</time>
    <speed>2.5</speed>
  </trkpt>
  <trkpt lat="43.539871" lon="39.906875">
    <ele>277</ele>
    <time>2014-12-07T12:08:58Z</time>
    <speed>2.5</speed>
  </trkpt>
  <trkpt lat="43.539849" lon="39.906980">
    <ele>275</ele>
    <time>2014-12-07T12:09:00Z</time>
    <speed>2.75</speed>
  </trkpt>
  <trkpt lat="43.539841" lon="39.907080">
    <ele>274</ele>
    <time>2014-12-07T12:09:02Z</time>
    <speed>2.5</speed>
  </trkpt>
  <trkpt lat="43.539881" lon="39.907146">
    <ele>273</ele>
    <time>2014-12-07T12:09:04Z</time>
    <speed>2.5</speed>
  </trkpt>
  <trkpt lat="43.539939" lon="39.907163">
    <ele>271</ele>
    <time>2014-12-07T12:09:06Z</time>
    <speed>2.5</speed>
  </trkpt>
  <trkpt lat="43.539996" lon="39.907158">
    <ele>272</ele>
    <time>2014-12-07T12:09:08Z</time>
    <speed>3.0</speed>
  </trkpt>
  <trkpt lat="43.540054" lon="39.907138">
    <ele>270</ele>
    <time>2014-12-07T12:09:10Z</time>
    <speed>3.0</speed>
  </trkpt>
  <trkpt lat="43.540095" lon="39.907105">
    <ele>265</ele>
    <time>2014-12-07T12:09:12Z</time>
    <speed>2.5</speed>
  </trkpt>
  <trkpt lat="43.540144" lon="39.907158">
    <ele>266</ele>
    <time>2014-12-07T12:09:27Z</time>
    <speed>1.5</speed>
  </trkpt>
  <trkpt lat="43.540168" lon="39.907225">
    <ele>266</ele>
    <time>2014-12-07T12:09:29Z</time>
    <speed>2.75</speed>
  </trkpt>
  <trkpt lat="43.540196" lon="39.907288">
    <ele>263</ele>
    <time>2014-12-07T12:09:31Z</time>
    <speed>2.25</speed>
  </trkpt>
  <trkpt lat="43.540203" lon="39.907361">
    <ele>263</ele>
    <time>2014-12-07T12:09:34Z</time>
    <speed>1.25</speed>
  </trkpt>
  <trkpt lat="43.540226" lon="39.907418">
    <ele>261</ele>
    <time>2014-12-07T12:09:39Z</time>
    <speed>0.75</speed>
  </trkpt>
  <trkpt lat="43.540189" lon="39.907463">
    <ele>259</ele>
    <time>2014-12-07T12:09:45Z</time>
    <speed>0.75</speed>
  </trkpt>
  <trkpt lat="43.540209" lon="39.907521">
    <ele>258</ele>
    <time>2014-12-07T12:09:47Z</time>
    <speed>2.0</speed>
  </trkpt>
  <trkpt lat="43.540238" lon="39.907585">
    <ele>257</ele>
    <time>2014-12-07T12:09:49Z</time>
    <speed>1.75</speed>
  </trkpt>
  <trkpt lat="43.540267" lon="39.907649">
    <ele>254</ele>
    <time>2014-12-07T12:09:51Z</time>
    <speed>2.0</speed>
  </trkpt>
  <trkpt lat="43.540294" lon="39.907710">
    <ele>250</ele>
    <time>2014-12-07T12:09:53Z</time>
    <speed>2.0</speed>
  </trkpt>
  <trkpt lat="43.540331" lon="39.907755">
    <ele>249</ele>
    <time>2014-12-07T12:09:55Z</time>
    <speed>2.0</speed>
  </trkpt>
  <trkpt lat="43.540375" lon="39.907786">
    <ele>251</ele>
    <time>2014-12-07T12:09:57Z</time>
    <speed>2.0</speed>
  </trkpt>
  <trkpt lat="43.540422" lon="39.907791">
    <ele>249</ele>
    <time>2014-12-07T12:09:59Z</time>
    <speed>2.0</speed>
  </trkpt>
  <trkpt lat="43.540482" lon="39.907806">
    <ele>251</ele>
    <time>2014-12-07T12:10:02Z</time>
    <speed>2.0</speed>
  </trkpt>
  <trkpt lat="43.540528" lon="39.907852">
    <ele>244</ele>
    <time>2014-12-07T12:10:05Z</time>
    <speed>2.0</speed>
  </trkpt>
  <trkpt lat="43.540555" lon="39.907918">
    <ele>240</ele>
    <time>2014-12-07T12:10:08Z</time>
    <speed>2.0</speed>
  </trkpt>
  <trkpt lat="43.540575" lon="39.907979">
    <ele>240</ele>
    <time>2014-12-07T12:10:11Z</time>
    <speed>1.75</speed>
  </trkpt>
  <trkpt lat="43.540607" lon="39.908024">
    <ele>239</ele>
    <time>2014-12-07T12:10:17Z</time>
    <speed>1.0</speed>
  </trkpt>
  <trkpt lat="43.540631" lon="39.908083">
    <ele>240</ele>
    <time>2014-12-07T12:10:21Z</time>
    <speed>1.0</speed>
  </trkpt>
  <trkpt lat="43.540643" lon="39.908153">
    <ele>246</ele>
    <time>2014-12-07T12:10:25Z</time>
    <speed>0.75</speed>
  </trkpt>
  <trkpt lat="43.540615" lon="39.908074">
    <ele>235</ele>
    <time>2014-12-07T12:10:37Z</time>
    <speed>0.5</speed>
  </trkpt>
  <trkpt lat="43.540564" lon="39.908074">
    <ele>235</ele>
    <time>2014-12-07T12:10:40Z</time>
    <speed>0.0</speed>
  </trkpt>
  <trkpt lat="43.540568" lon="39.908143">
    <ele>235</ele>
    <time>2014-12-07T12:11:04Z</time>
    <speed>0.2325386</speed>
  </trkpt>
  <trkpt lat="43.540603" lon="39.908190">
    <ele>233</ele>
    <time>2014-12-07T12:11:09Z</time>
    <speed>0.25</speed>
  </trkpt>
  <trkpt lat="43.540650" lon="39.908212">
    <ele>231</ele>
    <time>2014-12-07T12:11:13Z</time>
    <speed>1.75</speed>
  </trkpt>
  <trkpt lat="43.540689" lon="39.908256">
    <ele>227</ele>
    <time>2014-12-07T12:11:15Z</time>
    <speed>2.5</speed>
  </trkpt>
  <trkpt lat="43.540723" lon="39.908325">
    <ele>226</ele>
    <time>2014-12-07T12:11:18Z</time>
    <speed>2.0</speed>
  </trkpt>
  <trkpt lat="43.540724" lon="39.908393">
    <ele>226</ele>
    <time>2014-12-07T12:11:23Z</time>
    <speed>1.0</speed>
  </trkpt>
  <trkpt lat="43.540758" lon="39.908444">
    <ele>223</ele>
    <time>2014-12-07T12:11:27Z</time>
    <speed>1.25</speed>
  </trkpt>
  <trkpt lat="43.540777" lon="39.908509">
    <ele>220</ele>
    <time>2014-12-07T12:11:31Z</time>
    <speed>1.25</speed>
  </trkpt>
  <trkpt lat="43.540801" lon="39.908564">
    <ele>216</ele>
    <time>2014-12-07T12:11:34Z</time>
    <speed>1.25</speed>
  </trkpt>
  <trkpt lat="43.540847" lon="39.908613">
    <ele>215</ele>
    <time>2014-12-07T12:11:36Z</time>
    <speed>2.5</speed>
  </trkpt>
  <trkpt lat="43.540901" lon="39.908648">
    <ele>213</ele>
    <time>2014-12-07T12:11:39Z</time>
    <speed>2.0</speed>
  </trkpt>
  <trkpt lat="43.540947" lon="39.908700">
    <ele>214</ele>
    <time>2014-12-07T12:11:42Z</time>
    <speed>2.25</speed>
  </trkpt>
  <trkpt lat="43.540976" lon="39.908752">
    <ele>212</ele>
    <time>2014-12-07T12:11:44Z</time>
    <speed>2.5</speed>
  </trkpt>
  <trkpt lat="43.541003" lon="39.908824">
    <ele>211</ele>
    <time>2014-12-07T12:11:46Z</time>
    <speed>3.0</speed>
  </trkpt>
  <trkpt lat="43.541025" lon="39.908920">
    <ele>209</ele>
    <time>2014-12-07T12:11:48Z</time>
    <speed>3.5</speed>
  </trkpt>
  <trkpt lat="43.541033" lon="39.909009">
    <ele>206</ele>
    <time>2014-12-07T12:11:50Z</time>
    <speed>3.25</speed>
  </trkpt>
  <trkpt lat="43.541028" lon="39.909085">
    <ele>205</ele>
    <time>2014-12-07T12:11:52Z</time>
    <speed>2.75</speed>
  </trkpt>
  <trkpt lat="43.541010" lon="39.909197">
    <ele>206</ele>
    <time>2014-12-07T12:11:56Z</time>
    <speed>1.25</speed>
  </trkpt>
  <trkpt lat="43.540972" lon="39.909270">
    <ele>207</ele>
    <time>2014-12-07T12:11:59Z</time>
    <speed>2.0</speed>
  </trkpt>
  <trkpt lat="43.540920" lon="39.909336">
    <ele>206</ele>
    <time>2014-12-07T12:12:01Z</time>
    <speed>2.5</speed>
  </trkpt>
  <trkpt lat="43.540911" lon="39.909415">
    <ele>206</ele>
    <time>2014-12-07T12:12:03Z</time>
    <speed>2.5</speed>
  </trkpt>
  <trkpt lat="43.540941" lon="39.909488">
    <ele>207</ele>
    <time>2014-12-07T12:12:05Z</time>
    <speed>2.75</speed>
  </trkpt>
  <trkpt lat="43.540978" lon="39.909548">
    <ele>204</ele>
    <time>2014-12-07T12:12:07Z</time>
    <speed>2.75</speed>
  </trkpt>
  <trkpt lat="43.541009" lon="39.909595">
    <ele>204</ele>
    <time>2014-12-07T12:12:09Z</time>
    <speed>2.5</speed>
  </trkpt>
  <trkpt lat="43.541015" lon="39.909669">
    <ele>203</ele>
    <time>2014-12-07T12:12:13Z</time>
    <speed>1.25</speed>
  </trkpt>
  <trkpt lat="43.541001" lon="39.909745">
    <ele>199</ele>
    <time>2014-12-07T12:12:28Z</time>
    <speed>1.25</speed>
  </trkpt>
  <trkpt lat="43.540952" lon="39.909773">
    <ele>200</ele>
    <time>2014-12-07T12:12:31Z</time>
    <speed>1.75</speed>
  </trkpt>
  <trkpt lat="43.540911" lon="39.909732">
    <ele>201</ele>
    <time>2014-12-07T12:12:34Z</time>
    <speed>1.75</speed>
  </trkpt>
  <trkpt lat="43.540872" lon="39.909609">
    <ele>201</ele>
    <time>2014-12-07T12:12:37Z</time>
    <speed>3.5</speed>
  </trkpt>
  <trkpt lat="43.540845" lon="39.909512">
    <ele>202</ele>
    <time>2014-12-07T12:12:39Z</time>
    <speed>3.5</speed>
  </trkpt>
  <trkpt lat="43.540847" lon="39.909434">
    <ele>200</ele>
    <time>2014-12-07T12:12:41Z</time>
    <speed>2.75</speed>
  </trkpt>
  <trkpt lat="43.540906" lon="39.909382">
    <ele>203</ele>
    <time>2014-12-07T12:12:44Z</time>
    <speed>2.5</speed>
  </trkpt>
  <trkpt lat="43.540956" lon="39.909312">
    <ele>203</ele>
    <time>2014-12-07T12:12:46Z</time>
    <speed>3.5</speed>
  </trkpt>
  <trkpt lat="43.540988" lon="39.909207">
    <ele>204</ele>
    <time>2014-12-07T12:12:48Z</time>
    <speed>4.0</speed>
  </trkpt>
  <trkpt lat="43.540984" lon="39.908998">
    <ele>202</ele>
    <time>2014-12-07T12:12:50Z</time>
    <speed>4.25</speed>
  </trkpt>
  <trkpt lat="43.540988" lon="39.908907">
    <ele>205</ele>
    <time>2014-12-07T12:12:52Z</time>
    <speed>3.0</speed>
  </trkpt>
  <trkpt lat="43.540978" lon="39.908844">
    <ele>207</ele>
    <time>2014-12-07T12:12:54Z</time>
    <speed>2.75</speed>
  </trkpt>
  <trkpt lat="43.540978" lon="39.908761">
    <ele>208</ele>
    <time>2014-12-07T12:12:56Z</time>
    <speed>2.0</speed>
  </trkpt>
  <trkpt lat="43.540997" lon="39.908701">
    <ele>209</ele>
    <time>2014-12-07T12:12:59Z</time>
    <speed>1.75</speed>
  </trkpt>
  <trkpt lat="43.541051" lon="39.908654">
    <ele>210</ele>
    <time>2014-12-07T12:13:02Z</time>
    <speed>2.5</speed>
  </trkpt>
  <trkpt lat="43.541081" lon="39.908608">
    <ele>209</ele>
    <time>2014-12-07T12:13:04Z</time>
    <speed>2.25</speed>
  </trkpt>
  <trkpt lat="43.541124" lon="39.908544">
    <ele>209</ele>
    <time>2014-12-07T12:13:07Z</time>
    <speed>2.25</speed>
  </trkpt>
  <trkpt lat="43.541166" lon="39.908521">
    <ele>209</ele>
    <time>2014-12-07T12:13:09Z</time>
    <speed>2.25</speed>
  </trkpt>
  <trkpt lat="43.541217" lon="39.908525">
    <ele>205</ele>
    <time>2014-12-07T12:13:32Z</time>
    <speed>1.25</speed>
  </trkpt>
  <trkpt lat="43.541267" lon="39.908536">
    <ele>208</ele>
    <time>2014-12-07T12:13:35Z</time>
    <speed>1.5</speed>
  </trkpt>
  <trkpt lat="43.541314" lon="39.908578">
    <ele>209</ele>
    <time>2014-12-07T12:13:38Z</time>
    <speed>1.75</speed>
  </trkpt>
  <trkpt lat="43.541361" lon="39.908605">
    <ele>210</ele>
    <time>2014-12-07T12:13:40Z</time>
    <speed>2.25</speed>
  </trkpt>
  <trkpt lat="43.541503" lon="39.908609">
    <ele>214</ele>
    <time>2014-12-07T12:13:45Z</time>
    <speed>3.0</speed>
  </trkpt>
  <trkpt lat="43.541546" lon="39.908563">
    <ele>213</ele>
    <time>2014-12-07T12:13:47Z</time>
    <speed>2.75</speed>
  </trkpt>
  <trkpt lat="43.541571" lon="39.908491">
    <ele>216</ele>
    <time>2014-12-07T12:13:49Z</time>
    <speed>2.75</speed>
  </trkpt>
  <trkpt lat="43.541598" lon="39.908423">
    <ele>218</ele>
    <time>2014-12-07T12:13:51Z</time>
    <speed>2.75</speed>
  </trkpt>
  <trkpt lat="43.541618" lon="39.908342">
    <ele>216</ele>
    <time>2014-12-07T12:13:53Z</time>
    <speed>2.75</speed>
  </trkpt>
  <trkpt lat="43.541640" lon="39.908259">
    <ele>218</ele>
    <time>2014-12-07T12:13:55Z</time>
    <speed>2.75</speed>
  </trkpt>
  <trkpt lat="43.541689" lon="39.908201">
    <ele>217</ele>
    <time>2014-12-07T12:13:57Z</time>
    <speed>2.75</speed>
  </trkpt>
  <trkpt lat="43.541758" lon="39.908210">
    <ele>216</ele>
    <time>2014-12-07T12:13:59Z</time>
    <speed>2.75</speed>
  </trkpt>
  <trkpt lat="43.541813" lon="39.908242">
    <ele>216</ele>
    <time>2014-12-07T12:14:01Z</time>
    <speed>2.75</speed>
  </trkpt>
  <trkpt lat="43.541876" lon="39.908212">
    <ele>217</ele>
    <time>2014-12-07T12:14:04Z</time>
    <speed>2.5</speed>
  </trkpt>
  <trkpt lat="43.541916" lon="39.908149">
    <ele>220</ele>
    <time>2014-12-07T12:14:06Z</time>
    <speed>2.75</speed>
  </trkpt>
  <trkpt lat="43.541953" lon="39.908081">
    <ele>221</ele>
    <time>2014-12-07T12:14:08Z</time>
    <speed>3.0</speed>
  </trkpt>
  <trkpt lat="43.541986" lon="39.908008">
    <ele>224</ele>
    <time>2014-12-07T12:14:10Z</time>
    <speed>3.0</speed>
  </trkpt>
  <trkpt lat="43.542031" lon="39.907957">
    <ele>224</ele>
    <time>2014-12-07T12:14:12Z</time>
    <speed>2.75</speed>
  </trkpt>
  <trkpt lat="43.542084" lon="39.907939">
    <ele>222</ele>
    <time>2014-12-07T12:14:14Z</time>
    <speed>2.75</speed>
  </trkpt>
  <trkpt lat="43.542143" lon="39.907980">
    <ele>222</ele>
    <time>2014-12-07T12:14:17Z</time>
    <speed>2.25</speed>
  </trkpt>
  <trkpt lat="43.542204" lon="39.907994">
    <ele>222</ele>
    <time>2014-12-07T12:14:19Z</time>
    <speed>3.0</speed>
  </trkpt>
  <trkpt lat="43.542355" lon="39.908026">
    <ele>221</ele>
    <time>2014-12-07T12:14:21Z</time>
    <speed>5.75</speed>
  </trkpt>
  <trkpt lat="43.542607" lon="39.908134">
    <ele>220</ele>
    <time>2014-12-07T12:14:25Z</time>
    <speed>8.75</speed>
  </trkpt>
  <trkpt lat="43.542744" lon="39.908194">
    <ele>220</ele>
    <time>2014-12-07T12:14:27Z</time>
    <speed>7.75</speed>
  </trkpt>
  <trkpt lat="43.542860" lon="39.908247">
    <ele>219</ele>
    <time>2014-12-07T12:14:29Z</time>
    <speed>6.25</speed>
  </trkpt>
  <trkpt lat="43.542965" lon="39.908280">
    <ele>219</ele>
    <time>2014-12-07T12:14:31Z</time>
    <speed>4.75</speed>
  </trkpt>
  <trkpt lat="43.543076" lon="39.908305">
    <ele>218</ele>
    <time>2014-12-07T12:14:35Z</time>
    <speed>2.25</speed>
  </trkpt>
  <trkpt lat="43.543171" lon="39.908374">
    <ele>216</ele>
    <time>2014-12-07T12:14:47Z</time>
    <speed>2.5</speed>
  </trkpt>
  <trkpt lat="43.543220" lon="39.908368">
    <ele>216</ele>
    <time>2014-12-07T12:14:49Z</time>
    <speed>2.25</speed>
  </trkpt>
  <trkpt lat="43.543272" lon="39.908302">
    <ele>215</ele>
    <time>2014-12-07T12:14:52Z</time>
    <speed>2.25</speed>
  </trkpt>
  <trkpt lat="43.543294" lon="39.908184">
    <ele>215</ele>
    <time>2014-12-07T12:14:54Z</time>
    <speed>4.5</speed>
  </trkpt>
  <trkpt lat="43.543264" lon="39.907858">
    <ele>212</ele>
    <time>2014-12-07T12:14:56Z</time>
    <speed>6.75</speed>
  </trkpt>
  <trkpt lat="43.543246" lon="39.907750">
    <ele>209</ele>
    <time>2014-12-07T12:14:58Z</time>
    <speed>5.25</speed>
  </trkpt>
  <trkpt lat="43.543186" lon="39.907611">
    <ele>210</ele>
    <time>2014-12-07T12:15:00Z</time>
    <speed>5.75</speed>
  </trkpt>
  <trkpt lat="43.543090" lon="39.907491">
    <ele>212</ele>
    <time>2014-12-07T12:15:02Z</time>
    <speed>6.75</speed>
  </trkpt>
  <trkpt lat="43.542992" lon="39.907412">
    <ele>212</ele>
    <time>2014-12-07T12:15:04Z</time>
    <speed>5.5</speed>
  </trkpt>
  <trkpt lat="43.542793" lon="39.907439">
    <ele>214</ele>
    <time>2014-12-07T12:15:06Z</time>
    <speed>9.5</speed>
  </trkpt>
  <trkpt lat="43.542602" lon="39.907453">
    <ele>216</ele>
    <time>2014-12-07T12:15:08Z</time>
    <speed>9.75</speed>
  </trkpt>
  <trkpt lat="43.542478" lon="39.907464">
    <ele>217</ele>
    <time>2014-12-07T12:15:10Z</time>
    <speed>7.5</speed>
  </trkpt>
  <trkpt lat="43.542321" lon="39.907408">
    <ele>216</ele>
    <time>2014-12-07T12:15:13Z</time>
    <speed>7.5</speed>
  </trkpt>
  <trkpt lat="43.542156" lon="39.907370">
    <ele>217</ele>
    <time>2014-12-07T12:15:15Z</time>
    <speed>8.25</speed>
  </trkpt>
  <trkpt lat="43.542016" lon="39.907316">
    <ele>217</ele>
    <time>2014-12-07T12:15:17Z</time>
    <speed>6.75</speed>
  </trkpt>
  <trkpt lat="43.541893" lon="39.907268">
    <ele>217</ele>
    <time>2014-12-07T12:15:19Z</time>
    <speed>7.25</speed>
  </trkpt>
  <trkpt lat="43.541744" lon="39.907195">
    <ele>219</ele>
    <time>2014-12-07T12:15:21Z</time>
    <speed>7.5</speed>
  </trkpt>
  <trkpt lat="43.541652" lon="39.907108">
    <ele>224</ele>
    <time>2014-12-07T12:15:24Z</time>
    <speed>3.25</speed>
  </trkpt>
  <trkpt lat="43.541666" lon="39.906987">
    <ele>227</ele>
    <time>2014-12-07T12:15:26Z</time>
    <speed>4.25</speed>
  </trkpt>
  <trkpt lat="43.541727" lon="39.906851">
    <ele>230</ele>
    <time>2014-12-07T12:15:28Z</time>
    <speed>6.25</speed>
  </trkpt>
  <trkpt lat="43.541800" lon="39.906620">
    <ele>237</ele>
    <time>2014-12-07T12:15:31Z</time>
    <speed>7.5</speed>
  </trkpt>
  <trkpt lat="43.541809" lon="39.906454">
    <ele>239</ele>
    <time>2014-12-07T12:15:33Z</time>
    <speed>7.25</speed>
  </trkpt>
  <trkpt lat="43.541722" lon="39.906262">
    <ele>241</ele>
    <time>2014-12-07T12:15:35Z</time>
    <speed>8.0</speed>
  </trkpt>
  <trkpt lat="43.541699" lon="39.906101">
    <ele>244</ele>
    <time>2014-12-07T12:15:37Z</time>
    <speed>7.25</speed>
  </trkpt>
  <trkpt lat="43.541726" lon="39.905783">
    <ele>248</ele>
    <time>2014-12-07T12:15:41Z</time>
    <speed>4.5</speed>
  </trkpt>
  <trkpt lat="43.541768" lon="39.905683">
    <ele>250</ele>
    <time>2014-12-07T12:15:44Z</time>
    <speed>3.25</speed>
  </trkpt>
  <trkpt lat="43.541874" lon="39.905555">
    <ele>249</ele>
    <time>2014-12-07T12:15:46Z</time>
    <speed>6.75</speed>
  </trkpt>
  <trkpt lat="43.542015" lon="39.905444">
    <ele>248</ele>
    <time>2014-12-07T12:15:48Z</time>
    <speed>7.5</speed>
  </trkpt>
  <trkpt lat="43.542150" lon="39.905362">
    <ele>250</ele>
    <time>2014-12-07T12:15:50Z</time>
    <speed>8.25</speed>
  </trkpt>
  <trkpt lat="43.542330" lon="39.905312">
    <ele>250</ele>
    <time>2014-12-07T12:15:52Z</time>
    <speed>9.25</speed>
  </trkpt>
  <trkpt lat="43.542490" lon="39.905221">
    <ele>253</ele>
    <time>2014-12-07T12:15:54Z</time>
    <speed>10.25</speed>
  </trkpt>
  <trkpt lat="43.542674" lon="39.905094">
    <ele>256</ele>
    <time>2014-12-07T12:15:56Z</time>
    <speed>11.5</speed>
  </trkpt>
  <trkpt lat="43.542833" lon="39.904981">
    <ele>258</ele>
    <time>2014-12-07T12:15:58Z</time>
    <speed>10.0</speed>
  </trkpt>
  <trkpt lat="43.543901" lon="39.904233">
    <ele>262</ele>
    <time>2014-12-07T12:16:13Z</time>
    <speed>8.5</speed>
  </trkpt>
  <trkpt lat="43.544021" lon="39.904155">
    <ele>263</ele>
    <time>2014-12-07T12:16:15Z</time>
    <speed>7.75</speed>
  </trkpt>
  <trkpt lat="43.544119" lon="39.904086">
    <ele>265</ele>
    <time>2014-12-07T12:16:17Z</time>
    <speed>6.25</speed>
  </trkpt>
  <trkpt lat="43.544164" lon="39.904066">
    <ele>271</ele>
    <time>2014-12-07T12:16:19Z</time>
    <speed>3.25</speed>
  </trkpt>
  <trkpt lat="43.544209" lon="39.904041">
    <ele>274</ele>
    <time>2014-12-07T12:16:21Z</time>
    <speed>2.75</speed>
  </trkpt>
  <trkpt lat="43.544292" lon="39.904040">
    <ele>284</ele>
    <time>2014-12-07T12:16:30Z</time>
    <speed>5.0</speed>
  </trkpt>
  <trkpt lat="43.544391" lon="39.904019">
    <ele>283</ele>
    <time>2014-12-07T12:16:32Z</time>
    <speed>7.25</speed>
  </trkpt>
  <trkpt lat="43.544919" lon="39.904140">
    <ele>286</ele>
    <time>2014-12-07T12:16:37Z</time>
    <speed>11.5</speed>
  </trkpt>
  <trkpt lat="43.545078" lon="39.904195">
    <ele>286</ele>
    <time>2014-12-07T12:16:39Z</time>
    <speed>8.75</speed>
  </trkpt>
  <trkpt lat="43.545193" lon="39.904271">
    <ele>287</ele>
    <time>2014-12-07T12:16:41Z</time>
    <speed>7.75</speed>
  </trkpt>
  <trkpt lat="43.545340" lon="39.904499">
    <ele>289</ele>
    <time>2014-12-07T12:16:44Z</time>
    <speed>9.25</speed>
  </trkpt>
  <trkpt lat="43.545480" lon="39.904690">
    <ele>291</ele>
    <time>2014-12-07T12:16:47Z</time>
    <speed>6.75</speed>
  </trkpt>
  <trkpt lat="43.545546" lon="39.904802">
    <ele>291</ele>
    <time>2014-12-07T12:16:49Z</time>
    <speed>5.75</speed>
  </trkpt>
  <trkpt lat="43.545580" lon="39.904919">
    <ele>293</ele>
    <time>2014-12-07T12:16:51Z</time>
    <speed>4.25</speed>
  </trkpt>
  <trkpt lat="43.545570" lon="39.904816">
    <ele>296</ele>
    <time>2014-12-07T12:16:58Z</time>
    <speed>4.75</speed>
  </trkpt>
  <trkpt lat="43.545535" lon="39.904722">
    <ele>298</ele>
    <time>2014-12-07T12:17:00Z</time>
    <speed>4.25</speed>
  </trkpt>
  <trkpt lat="43.545480" lon="39.904591">
    <ele>296</ele>
    <time>2014-12-07T12:17:02Z</time>
    <speed>4.5</speed>
  </trkpt>
  <trkpt lat="43.545428" lon="39.904346">
    <ele>299</ele>
    <time>2014-12-07T12:17:04Z</time>
    <speed>8.75</speed>
  </trkpt>
  <trkpt lat="43.545372" lon="39.904119">
    <ele>298</ele>
    <time>2014-12-07T12:17:07Z</time>
    <speed>5.25</speed>
  </trkpt>
  <trkpt lat="43.545359" lon="39.904028">
    <ele>298</ele>
    <time>2014-12-07T12:17:09Z</time>
    <speed>4.25</speed>
  </trkpt>
  <trkpt lat="43.545307" lon="39.903911">
    <ele>298</ele>
    <time>2014-12-07T12:17:11Z</time>
    <speed>4.75</speed>
  </trkpt>
  <trkpt lat="43.545234" lon="39.903724">
    <ele>304</ele>
    <time>2014-12-07T12:17:14Z</time>
    <speed>5.25</speed>
  </trkpt>
  <trkpt lat="43.545173" lon="39.903593">
    <ele>305</ele>
    <time>2014-12-07T12:17:16Z</time>
    <speed>6.5</speed>
  </trkpt>
  <trkpt lat="43.545103" lon="39.903429">
    <ele>306</ele>
    <time>2014-12-07T12:17:18Z</time>
    <speed>6.75</speed>
  </trkpt>
  <trkpt lat="43.545030" lon="39.903294">
    <ele>306</ele>
    <time>2014-12-07T12:17:20Z</time>
    <speed>6.5</speed>
  </trkpt>
  <trkpt lat="43.544952" lon="39.903203">
    <ele>308</ele>
    <time>2014-12-07T12:17:22Z</time>
    <speed>6.25</speed>
  </trkpt>
  <trkpt lat="43.544877" lon="39.903109">
    <ele>310</ele>
    <time>2014-12-07T12:17:24Z</time>
    <speed>5.0</speed>
  </trkpt>
  <trkpt lat="43.544817" lon="39.903004">
    <ele>311</ele>
    <time>2014-12-07T12:17:26Z</time>
    <speed>5.0</speed>
  </trkpt>
  <trkpt lat="43.544773" lon="39.902917">
    <ele>310</ele>
    <time>2014-12-07T12:17:28Z</time>
    <speed>4.25</speed>
  </trkpt>
  <trkpt lat="43.544732" lon="39.902814">
    <ele>311</ele>
    <time>2014-12-07T12:17:30Z</time>
    <speed>4.25</speed>
  </trkpt>
  <trkpt lat="43.544685" lon="39.902712">
    <ele>310</ele>
    <time>2014-12-07T12:17:33Z</time>
    <speed>3.0</speed>
  </trkpt>
  <trkpt lat="43.544640" lon="39.902633">
    <ele>313</ele>
    <time>2014-12-07T12:17:35Z</time>
    <speed>4.0</speed>
  </trkpt>
  <trkpt lat="43.544572" lon="39.902524">
    <ele>316</ele>
    <time>2014-12-07T12:17:37Z</time>
    <speed>4.75</speed>
  </trkpt>
  <trkpt lat="43.544430" lon="39.902194">
    <ele>318</ele>
    <time>2014-12-07T12:17:44Z</time>
    <speed>0.75</speed>
  </trkpt>
  <trkpt lat="43.544425" lon="39.902112">
    <ele>317</ele>
    <time>2014-12-07T12:17:49Z</time>
    <speed>2.5</speed>
  </trkpt>
  <trkpt lat="43.544434" lon="39.902051">
    <ele>320</ele>
    <time>2014-12-07T12:17:54Z</time>
    <speed>0.0</speed>
  </trkpt>
  <trkpt lat="43.544431" lon="39.901928">
    <ele>318</ele>
    <time>2014-12-07T12:18:02Z</time>
    <speed>1.2472892</speed>
  </trkpt>
  <trkpt lat="43.544434" lon="39.901845">
    <ele>317</ele>
    <time>2014-12-07T12:18:04Z</time>
    <speed>2.5</speed>
  </trkpt>
  <trkpt lat="43.544441" lon="39.901754">
    <ele>316</ele>
    <time>2014-12-07T12:18:07Z</time>
    <speed>2.0</speed>
  </trkpt>
  <trkpt lat="43.544449" lon="39.901681">
    <ele>314</ele>
    <time>2014-12-07T12:18:09Z</time>
    <speed>2.5</speed>
  </trkpt>
  <trkpt lat="43.544482" lon="39.901547">
    <ele>314</ele>
    <time>2014-12-07T12:18:12Z</time>
    <speed>3.0</speed>
  </trkpt>
  <trkpt lat="43.544516" lon="39.901479">
    <ele>314</ele>
    <time>2014-12-07T12:18:14Z</time>
    <speed>3.0</speed>
  </trkpt>
  <trkpt lat="43.544548" lon="39.901411">
    <ele>314</ele>
    <time>2014-12-07T12:18:16Z</time>
    <speed>3.0</speed>
  </trkpt>
  <trkpt lat="43.544572" lon="39.901352">
    <ele>314</ele>
    <time>2014-12-07T12:18:18Z</time>
    <speed>2.5</speed>
  </trkpt>
  <trkpt lat="43.544608" lon="39.901391">
    <ele>316</ele>
    <time>2014-12-07T12:18:53Z</time>
    <speed>0.0</speed>
  </trkpt>
  <trkpt lat="43.544624" lon="39.901272">
    <ele>316</ele>
    <time>2014-12-07T12:19:02Z</time>
    <speed>1.0901076</speed>
  </trkpt>
  <trkpt lat="43.544634" lon="39.901210">
    <ele>316</ele>
    <time>2014-12-07T12:19:05Z</time>
    <speed>1.25</speed>
  </trkpt>
  <trkpt lat="43.544636" lon="39.901140">
    <ele>313</ele>
    <time>2014-12-07T12:19:09Z</time>
    <speed>0.0</speed>
  </trkpt>
  <trkpt lat="43.544660" lon="39.901083">
    <ele>312</ele>
    <time>2014-12-07T12:19:15Z</time>
    <speed>0.8843829</speed>
  </trkpt>
  <trkpt lat="43.544700" lon="39.901046">
    <ele>312</ele>
    <time>2014-12-07T12:19:19Z</time>
    <speed>1.0</speed>
  </trkpt>
  <trkpt lat="43.544742" lon="39.901005">
    <ele>311</ele>
    <time>2014-12-07T12:19:23Z</time>
    <speed>1.0</speed>
  </trkpt>
  <trkpt lat="43.544769" lon="39.900951">
    <ele>308</ele>
    <time>2014-12-07T12:19:28Z</time>
    <speed>1.0</speed>
  </trkpt>
  <trkpt lat="43.544800" lon="39.900866">
    <ele>308</ele>
    <time>2014-12-07T12:19:38Z</time>
    <speed>2.75</speed>
  </trkpt>
  <trkpt lat="43.544804" lon="39.900782">
    <ele>306</ele>
    <time>2014-12-07T12:19:40Z</time>
    <speed>3.0</speed>
  </trkpt>
  <trkpt lat="43.544809" lon="39.900702">
    <ele>308</ele>
    <time>2014-12-07T12:19:42Z</time>
    <speed>3.0</speed>
  </trkpt>
  <trkpt lat="43.544835" lon="39.900618">
    <ele>307</ele>
    <time>2014-12-07T12:19:44Z</time>
    <speed>3.0</speed>
  </trkpt>
  <trkpt lat="43.544864" lon="39.900548">
    <ele>306</ele>
    <time>2014-12-07T12:19:46Z</time>
    <speed>3.0</speed>
  </trkpt>
  <trkpt lat="43.544906" lon="39.900499">
    <ele>307</ele>
    <time>2014-12-07T12:19:48Z</time>
    <speed>3.0</speed>
  </trkpt>
  <trkpt lat="43.544954" lon="39.900458">
    <ele>306</ele>
    <time>2014-12-07T12:19:50Z</time>
    <speed>3.0</speed>
  </trkpt>
  <trkpt lat="43.545008" lon="39.900419">
    <ele>304</ele>
    <time>2014-12-07T12:19:52Z</time>
    <speed>3.0</speed>
  </trkpt>
  <trkpt lat="43.545081" lon="39.900395">
    <ele>304</ele>
    <time>2014-12-07T12:19:54Z</time>
    <speed>3.75</speed>
  </trkpt>
  <trkpt lat="43.545157" lon="39.900372">
    <ele>303</ele>
    <time>2014-12-07T12:19:57Z</time>
    <speed>2.5</speed>
  </trkpt>
  <trkpt lat="43.545203" lon="39.900346">
    <ele>302</ele>
    <time>2014-12-07T12:20:00Z</time>
    <speed>1.25</speed>
  </trkpt>
  <trkpt lat="43.545264" lon="39.900315">
    <ele>304</ele>
    <time>2014-12-07T12:20:04Z</time>
    <speed>1.75</speed>
  </trkpt>
  <trkpt lat="43.545326" lon="39.900298">
    <ele>303</ele>
    <time>2014-12-07T12:20:06Z</time>
    <speed>2.75</speed>
  </trkpt>
  <trkpt lat="43.545385" lon="39.900269">
    <ele>301</ele>
    <time>2014-12-07T12:20:08Z</time>
    <speed>2.75</speed>
  </trkpt>
  <trkpt lat="43.545449" lon="39.900252">
    <ele>300</ele>
    <time>2014-12-07T12:20:10Z</time>
    <speed>2.75</speed>
  </trkpt>
  <trkpt lat="43.545520" lon="39.900242">
    <ele>295</ele>
    <time>2014-12-07T12:20:12Z</time>
    <speed>3.0</speed>
  </trkpt>
  <trkpt lat="43.545619" lon="39.900199">
    <ele>291</ele>
    <time>2014-12-07T12:20:15Z</time>
    <speed>3.0</speed>
  </trkpt>
  <trkpt lat="43.545662" lon="39.900176">
    <ele>291</ele>
    <time>2014-12-07T12:20:17Z</time>
    <speed>1.75</speed>
  </trkpt>
  <trkpt lat="43.545780" lon="39.900151">
    <ele>286</ele>
    <time>2014-12-07T12:20:23Z</time>
    <speed>2.0</speed>
  </trkpt>
  <trkpt lat="43.545828" lon="39.900170">
    <ele>286</ele>
    <time>2014-12-07T12:20:26Z</time>
    <speed>1.0</speed>
  </trkpt>
  <trkpt lat="43.545840" lon="39.900258">
    <ele>285</ele>
    <time>2014-12-07T12:20:30Z</time>
    <speed>2.0</speed>
  </trkpt>
  <trkpt lat="43.545824" lon="39.900322">
    <ele>285</ele>
    <time>2014-12-07T12:20:33Z</time>
    <speed>1.25</speed>
  </trkpt>
  <trkpt lat="43.545753" lon="39.900435">
    <ele>279</ele>
    <time>2014-12-07T12:20:52Z</time>
    <speed>2.75</speed>
  </trkpt>
  <trkpt lat="43.545729" lon="39.900503">
    <ele>279</ele>
    <time>2014-12-07T12:20:54Z</time>
    <speed>2.75</speed>
  </trkpt>
  <trkpt lat="43.545705" lon="39.900566">
    <ele>279</ele>
    <time>2014-12-07T12:20:56Z</time>
    <speed>2.75</speed>
  </trkpt>
  <trkpt lat="43.545679" lon="39.900635">
    <ele>280</ele>
    <time>2014-12-07T12:20:58Z</time>
    <speed>3.0</speed>
  </trkpt>
  <trkpt lat="43.545644" lon="39.900717">
    <ele>278</ele>
    <time>2014-12-07T12:21:00Z</time>
    <speed>3.75</speed>
  </trkpt>
  <trkpt lat="43.545596" lon="39.900789">
    <ele>278</ele>
    <time>2014-12-07T12:21:02Z</time>
    <speed>3.25</speed>
  </trkpt>
  <trkpt lat="43.545561" lon="39.900856">
    <ele>277</ele>
    <time>2014-12-07T12:21:04Z</time>
    <speed>3.0</speed>
  </trkpt>
  <trkpt lat="43.545538" lon="39.900920">
    <ele>276</ele>
    <time>2014-12-07T12:21:08Z</time>
    <speed>1.25</speed>
  </trkpt>
  <trkpt lat="43.545539" lon="39.900990">
    <ele>278</ele>
    <time>2014-12-07T12:21:19Z</time>
    <speed>1.0</speed>
  </trkpt>
  <trkpt lat="43.545580" lon="39.900963">
    <ele>283</ele>
    <time>2014-12-07T12:23:17Z</time>
    <speed>0.75</speed>
  </trkpt>
  <trkpt lat="43.545627" lon="39.900964">
    <ele>285</ele>
    <time>2014-12-07T12:26:05Z</time>
    <speed>0.0</speed>
  </trkpt>
  <trkpt lat="43.545664" lon="39.900858">
    <ele>285</ele>
    <time>2014-12-07T12:27:14Z</time>
    <speed>0.13758303</speed>
  </trkpt>
  <trkpt lat="43.545683" lon="39.900724">
    <ele>285</ele>
    <time>2014-12-07T12:27:16Z</time>
    <speed>4.75</speed>
  </trkpt>
  <trkpt lat="43.545705" lon="39.900572">
    <ele>285</ele>
    <time>2014-12-07T12:27:18Z</time>
    <speed>4.75</speed>
  </trkpt>
  <trkpt lat="43.545781" lon="39.900380">
    <ele>286</ele>
    <time>2014-12-07T12:27:20Z</time>
    <speed>4.0</speed>
  </trkpt>
  <trkpt lat="43.545839" lon="39.900307">
    <ele>285</ele>
    <time>2014-12-07T12:27:22Z</time>
    <speed>3.25</speed>
  </trkpt>
  <trkpt lat="43.545795" lon="39.900246">
    <ele>287</ele>
    <time>2014-12-07T12:27:25Z</time>
    <speed>1.75</speed>
  </trkpt>
  <trkpt lat="43.545718" lon="39.900252">
    <ele>289</ele>
    <time>2014-12-07T12:27:29Z</time>
    <speed>3.25</speed>
  </trkpt>
  <trkpt lat="43.545646" lon="39.900289">
    <ele>288</ele>
    <time>2014-12-07T12:27:31Z</time>
    <speed>3.75</speed>
  </trkpt>
  <trkpt lat="43.545541" lon="39.900310">
    <ele>289</ele>
    <time>2014-12-07T12:27:33Z</time>
    <speed>5.5</speed>
  </trkpt>
  <trkpt lat="43.545417" lon="39.900310">
    <ele>290</ele>
    <time>2014-12-07T12:27:35Z</time>
    <speed>4.5</speed>
  </trkpt>
  <trkpt lat="43.545329" lon="39.900333">
    <ele>291</ele>
    <time>2014-12-07T12:27:37Z</time>
    <speed>3.75</speed>
  </trkpt>
  <trkpt lat="43.545313" lon="39.900275">
    <ele>286</ele>
    <time>2014-12-07T12:27:44Z</time>
    <speed>0.0</speed>
  </trkpt>
  <trkpt lat="43.545232" lon="39.900298">
    <ele>286</ele>
    <time>2014-12-07T12:28:02Z</time>
    <speed>0.5095179</speed>
  </trkpt>
  <trkpt lat="43.545098" lon="39.900403">
    <ele>287</ele>
    <time>2014-12-07T12:28:04Z</time>
    <speed>7.25</speed>
  </trkpt>
  <trkpt lat="43.544994" lon="39.900510">
    <ele>286</ele>
    <time>2014-12-07T12:28:06Z</time>
    <speed>5.75</speed>
  </trkpt>
  <trkpt lat="43.544953" lon="39.900547">
    <ele>286</ele>
    <time>2014-12-07T12:28:10Z</time>
    <speed>0.0</speed>
  </trkpt>
  <trkpt lat="43.544908" lon="39.900554">
    <ele>289</ele>
    <time>2014-12-07T12:28:15Z</time>
    <speed>1.012261</speed>
  </trkpt>
  <trkpt lat="43.544861" lon="39.900565">
    <ele>293</ele>
    <time>2014-12-07T12:29:56Z</time>
    <speed>2.75</speed>
  </trkpt>
  <trkpt lat="43.544799" lon="39.900590">
    <ele>298</ele>
    <time>2014-12-07T12:29:59Z</time>
    <speed>2.5</speed>
  </trkpt>
  <trkpt lat="43.544752" lon="39.900606">
    <ele>298</ele>
    <time>2014-12-07T12:30:01Z</time>
    <speed>2.75</speed>
  </trkpt>
  <trkpt lat="43.544700" lon="39.900656">
    <ele>298</ele>
    <time>2014-12-07T12:30:03Z</time>
    <speed>3.0</speed>
  </trkpt>
  <trkpt lat="43.544626" lon="39.900699">
    <ele>302</ele>
    <time>2014-12-07T12:30:05Z</time>
    <speed>4.25</speed>
  </trkpt>
  <trkpt lat="43.544544" lon="39.900726">
    <ele>305</ele>
    <time>2014-12-07T12:30:07Z</time>
    <speed>3.75</speed>
  </trkpt>
  <trkpt lat="43.544474" lon="39.900747">
    <ele>308</ele>
    <time>2014-12-07T12:30:09Z</time>
    <speed>3.5</speed>
  </trkpt>
  <trkpt lat="43.544413" lon="39.900787">
    <ele>309</ele>
    <time>2014-12-07T12:30:11Z</time>
    <speed>3.25</speed>
  </trkpt>
  <trkpt lat="43.544360" lon="39.900839">
    <ele>310</ele>
    <time>2014-12-07T12:30:13Z</time>
    <speed>3.0</speed>
  </trkpt>
  <trkpt lat="43.544335" lon="39.900898">
    <ele>316</ele>
    <time>2014-12-07T12:30:15Z</time>
    <speed>2.75</speed>
  </trkpt>
  <trkpt lat="43.544320" lon="39.900972">
    <ele>315</ele>
    <time>2014-12-07T12:30:18Z</time>
    <speed>2.0</speed>
  </trkpt>
  <trkpt lat="43.544283" lon="39.901015">
    <ele>315</ele>
    <time>2014-12-07T12:30:21Z</time>
    <speed>1.75</speed>
  </trkpt>
  <trkpt lat="43.544260" lon="39.901081">
    <ele>315</ele>
    <time>2014-12-07T12:30:31Z</time>
    <speed>1.0</speed>
  </trkpt>
  <trkpt lat="43.544266" lon="39.901160">
    <ele>315</ele>
    <time>2014-12-07T12:30:34Z</time>
    <speed>1.25</speed>
  </trkpt>
  <trkpt lat="43.544250" lon="39.901101">
    <ele>322</ele>
    <time>2014-12-07T12:31:11Z</time>
    <speed>0.75</speed>
  </trkpt>
  <trkpt lat="43.544198" lon="39.901087">
    <ele>319</ele>
    <time>2014-12-07T12:31:16Z</time>
    <speed>0.75</speed>
  </trkpt>
  <trkpt lat="43.544160" lon="39.901130">
    <ele>322</ele>
    <time>2014-12-07T12:31:23Z</time>
    <speed>2.75</speed>
  </trkpt>
  <trkpt lat="43.544121" lon="39.901205">
    <ele>324</ele>
    <time>2014-12-07T12:31:26Z</time>
    <speed>2.75</speed>
  </trkpt>
  <trkpt lat="43.544129" lon="39.901267">
    <ele>327</ele>
    <time>2014-12-07T12:31:33Z</time>
    <speed>0.75</speed>
  </trkpt>
  <trkpt lat="43.544090" lon="39.901318">
    <ele>329</ele>
    <time>2014-12-07T12:31:42Z</time>
    <speed>0.5</speed>
  </trkpt>
  <trkpt lat="43.544037" lon="39.901315">
    <ele>326</ele>
    <time>2014-12-07T12:31:46Z</time>
    <speed>0.0</speed>
  </trkpt>
  <trkpt lat="43.544065" lon="39.901228">
    <ele>321</ele>
    <time>2014-12-07T12:32:24Z</time>
    <speed>0.20226938</speed>
  </trkpt>
  <trkpt lat="43.544118" lon="39.901113">
    <ele>321</ele>
    <time>2014-12-07T12:32:26Z</time>
    <speed>2.75</speed>
  </trkpt>
  <trkpt lat="43.544168" lon="39.901013">
    <ele>322</ele>
    <time>2014-12-07T12:32:28Z</time>
    <speed>2.5</speed>
  </trkpt>
  <trkpt lat="43.544191" lon="39.900954">
    <ele>323</ele>
    <time>2014-12-07T12:32:30Z</time>
    <speed>0.75</speed>
  </trkpt>
  <trkpt lat="43.544153" lon="39.901039">
    <ele>323</ele>
    <time>2014-12-07T12:32:36Z</time>
    <speed>3.25</speed>
  </trkpt>
  <trkpt lat="43.544127" lon="39.901106">
    <ele>323</ele>
    <time>2014-12-07T12:32:38Z</time>
    <speed>3.0</speed>
  </trkpt>
  <trkpt lat="43.544075" lon="39.901153">
    <ele>322</ele>
    <time>2014-12-07T12:32:41Z</time>
    <speed>1.75</speed>
  </trkpt>
  <trkpt lat="43.544118" lon="39.901100">
    <ele>318</ele>
    <time>2014-12-07T12:33:03Z</time>
    <speed>1.0</speed>
  </trkpt>
  <trkpt lat="43.544147" lon="39.901043">
    <ele>316</ele>
    <time>2014-12-07T12:33:05Z</time>
    <speed>1.25</speed>
  </trkpt>
  <trkpt lat="43.544164" lon="39.900964">
    <ele>313</ele>
    <time>2014-12-07T12:33:08Z</time>
    <speed>1.0</speed>
  </trkpt>
  <trkpt lat="43.544195" lon="39.900911">
    <ele>312</ele>
    <time>2014-12-07T12:33:11Z</time>
    <speed>0.0</speed>
  </trkpt>
  <trkpt lat="43.544184" lon="39.900850">
    <ele>313</ele>
    <time>2014-12-07T12:37:30Z</time>
    <speed>0.019485934</speed>
  </trkpt>
  <trkpt lat="43.544229" lon="39.900817">
    <ele>313</ele>
    <time>2014-12-07T12:37:42Z</time>
    <speed>1.5</speed>
  </trkpt>
  <trkpt lat="43.544201" lon="39.900883">
    <ele>315</ele>
    <time>2014-12-07T12:37:53Z</time>
    <speed>2.5</speed>
  </trkpt>
  <trkpt lat="43.544173" lon="39.900962">
    <ele>317</ele>
    <time>2014-12-07T12:37:55Z</time>
    <speed>3.0</speed>
  </trkpt>
  <trkpt lat="43.544136" lon="39.901036">
    <ele>322</ele>
    <time>2014-12-07T12:37:57Z</time>
    <speed>3.25</speed>
  </trkpt>
  <trkpt lat="43.544091" lon="39.901116">
    <ele>325</ele>
    <time>2014-12-07T12:37:59Z</time>
    <speed>3.75</speed>
  </trkpt>
  <trkpt lat="43.544071" lon="39.901185">
    <ele>328</ele>
    <time>2014-12-07T12:38:01Z</time>
    <speed>2.75</speed>
  </trkpt>
  <trkpt lat="43.544058" lon="39.901269">
    <ele>334</ele>
    <time>2014-12-07T12:38:04Z</time>
    <speed>2.25</speed>
  </trkpt>
  <trkpt lat="43.544053" lon="39.901333">
    <ele>337</ele>
    <time>2014-12-07T12:38:06Z</time>
    <speed>2.25</speed>
  </trkpt>
  <trkpt lat="43.544049" lon="39.901396">
    <ele>341</ele>
    <time>2014-12-07T12:38:16Z</time>
    <speed>0.0</speed>
  </trkpt>
  <trkpt lat="43.544042" lon="39.901469">
    <ele>340</ele>
    <time>2014-12-07T12:38:27Z</time>
    <speed>0.54209024</speed>
  </trkpt>
  <trkpt lat="43.544032" lon="39.901541">
    <ele>341</ele>
    <time>2014-12-07T12:38:33Z</time>
    <speed>0.75</speed>
  </trkpt>
  <trkpt lat="43.544024" lon="39.901602">
    <ele>344</ele>
    <time>2014-12-07T12:38:46Z</time>
    <speed>0.0</speed>
  </trkpt>
  <trkpt lat="43.543974" lon="39.901617">
    <ele>342</ele>
    <time>2014-12-07T12:38:58Z</time>
    <speed>0.46990684</speed>
  </trkpt>
  <trkpt lat="43.544004" lon="39.901673">
    <ele>349</ele>
    <time>2014-12-07T12:39:32Z</time>
    <speed>0.75</speed>
  </trkpt>
  <trkpt lat="43.544029" lon="39.901733">
    <ele>349</ele>
    <time>2014-12-07T12:39:56Z</time>
    <speed>1.5</speed>
  </trkpt>
  <trkpt lat="43.544059" lon="39.901798">
    <ele>346</ele>
    <time>2014-12-07T12:39:59Z</time>
    <speed>1.75</speed>
  </trkpt>
  <trkpt lat="43.544085" lon="39.901870">
    <ele>345</ele>
    <time>2014-12-07T12:40:02Z</time>
    <speed>1.75</speed>
  </trkpt>
  <trkpt lat="43.544116" lon="39.901931">
    <ele>342</ele>
    <time>2014-12-07T12:40:05Z</time>
    <speed>1.75</speed>
  </trkpt>
  <trkpt lat="43.544156" lon="39.901994">
    <ele>338</ele>
    <time>2014-12-07T12:40:08Z</time>
    <speed>1.75</speed>
  </trkpt>
  <trkpt lat="43.544204" lon="39.902060">
    <ele>336</ele>
    <time>2014-12-07T12:40:10Z</time>
    <speed>3.75</speed>
  </trkpt>
  <trkpt lat="43.544276" lon="39.902144">
    <ele>333</ele>
    <time>2014-12-07T12:40:12Z</time>
    <speed>4.25</speed>
  </trkpt>
  <trkpt lat="43.544366" lon="39.902271">
    <ele>329</ele>
    <time>2014-12-07T12:40:14Z</time>
    <speed>4.0</speed>
  </trkpt>
  <trkpt lat="43.544447" lon="39.902358">
    <ele>327</ele>
    <time>2014-12-07T12:40:16Z</time>
    <speed>4.0</speed>
  </trkpt>
  <trkpt lat="43.544494" lon="39.902450">
    <ele>326</ele>
    <time>2014-12-07T12:40:18Z</time>
    <speed>4.5</speed>
  </trkpt>
  <trkpt lat="43.544533" lon="39.902534">
    <ele>322</ele>
    <time>2014-12-07T12:40:20Z</time>
    <speed>3.25</speed>
  </trkpt>
  <trkpt lat="43.544566" lon="39.902600">
    <ele>321</ele>
    <time>2014-12-07T12:40:22Z</time>
    <speed>2.5</speed>
  </trkpt>
  <trkpt lat="43.544618" lon="39.902660">
    <ele>319</ele>
    <time>2014-12-07T12:40:24Z</time>
    <speed>3.25</speed>
  </trkpt>
  <trkpt lat="43.544663" lon="39.902740">
    <ele>321</ele>
    <time>2014-12-07T12:40:26Z</time>
    <speed>3.5</speed>
  </trkpt>
  <trkpt lat="43.544712" lon="39.902833">
    <ele>322</ele>
    <time>2014-12-07T12:40:28Z</time>
    <speed>4.25</speed>
  </trkpt>
  <trkpt lat="43.544760" lon="39.902939">
    <ele>324</ele>
    <time>2014-12-07T12:40:30Z</time>
    <speed>4.5</speed>
  </trkpt>
  <trkpt lat="43.544812" lon="39.903048">
    <ele>324</ele>
    <time>2014-12-07T12:40:32Z</time>
    <speed>5.0</speed>
  </trkpt>
  <trkpt lat="43.544871" lon="39.903153">
    <ele>324</ele>
    <time>2014-12-07T12:40:34Z</time>
    <speed>4.75</speed>
  </trkpt>
  <trkpt lat="43.544927" lon="39.903244">
    <ele>321</ele>
    <time>2014-12-07T12:40:36Z</time>
    <speed>4.5</speed>
  </trkpt>
  <trkpt lat="43.544971" lon="39.903307">
    <ele>320</ele>
    <time>2014-12-07T12:40:38Z</time>
    <speed>3.5</speed>
  </trkpt>
  <trkpt lat="43.545019" lon="39.903372">
    <ele>319</ele>
    <time>2014-12-07T12:40:40Z</time>
    <speed>3.75</speed>
  </trkpt>
  <trkpt lat="43.545069" lon="39.903444">
    <ele>313</ele>
    <time>2014-12-07T12:40:42Z</time>
    <speed>3.75</speed>
  </trkpt>
  <trkpt lat="43.545147" lon="39.903594">
    <ele>309</ele>
    <time>2014-12-07T12:40:44Z</time>
    <speed>6.5</speed>
  </trkpt>
  <trkpt lat="43.545204" lon="39.903749">
    <ele>310</ele>
    <time>2014-12-07T12:40:46Z</time>
    <speed>6.25</speed>
  </trkpt>
  <trkpt lat="43.545220" lon="39.903865">
    <ele>308</ele>
    <time>2014-12-07T12:40:48Z</time>
    <speed>5.0</speed>
  </trkpt>
  <trkpt lat="43.545258" lon="39.903941">
    <ele>306</ele>
    <time>2014-12-07T12:40:50Z</time>
    <speed>4.75</speed>
  </trkpt>
  <trkpt lat="43.545303" lon="39.904063">
    <ele>306</ele>
    <time>2014-12-07T12:40:52Z</time>
    <speed>5.5</speed>
  </trkpt>
  <trkpt lat="43.545332" lon="39.904194">
    <ele>306</ele>
    <time>2014-12-07T12:40:54Z</time>
    <speed>5.25</speed>
  </trkpt>
  <trkpt lat="43.545371" lon="39.904322">
    <ele>305</ele>
    <time>2014-12-07T12:40:56Z</time>
    <speed>5.25</speed>
  </trkpt>
  <trkpt lat="43.545418" lon="39.904426">
    <ele>301</ele>
    <time>2014-12-07T12:40:58Z</time>
    <speed>5.0</speed>
  </trkpt>
  <trkpt lat="43.545450" lon="39.904578">
    <ele>302</ele>
    <time>2014-12-07T12:41:00Z</time>
    <speed>6.75</speed>
  </trkpt>
  <trkpt lat="43.545517" lon="39.904785">
    <ele>299</ele>
    <time>2014-12-07T12:41:02Z</time>
    <speed>9.25</speed>
  </trkpt>
  <trkpt lat="43.545613" lon="39.904972">
    <ele>298</ele>
    <time>2014-12-07T12:41:04Z</time>
    <speed>9.25</speed>
  </trkpt>
  <trkpt lat="43.545691" lon="39.905145">
    <ele>295</ele>
    <time>2014-12-07T12:41:06Z</time>
    <speed>8.75</speed>
  </trkpt>
  <trkpt lat="43.545721" lon="39.905315">
    <ele>297</ele>
    <time>2014-12-07T12:41:08Z</time>
    <speed>7.25</speed>
  </trkpt>
  <trkpt lat="43.545757" lon="39.905493">
    <ele>296</ele>
    <time>2014-12-07T12:41:10Z</time>
    <speed>7.5</speed>
  </trkpt>
  <trkpt lat="43.545851" lon="39.905626">
    <ele>293</ele>
    <time>2014-12-07T12:41:12Z</time>
    <speed>7.0</speed>
  </trkpt>
  <trkpt lat="43.545924" lon="39.905758">
    <ele>292</ele>
    <time>2014-12-07T12:41:14Z</time>
    <speed>6.0</speed>
  </trkpt>
  <trkpt lat="43.546015" lon="39.905834">
    <ele>292</ele>
    <time>2014-12-07T12:41:16Z</time>
    <speed>5.75</speed>
  </trkpt>
  <trkpt lat="43.546082" lon="39.905938">
    <ele>292</ele>
    <time>2014-12-07T12:41:18Z</time>
    <speed>5.75</speed>
  </trkpt>
  <trkpt lat="43.546123" lon="39.906081">
    <ele>292</ele>
    <time>2014-12-07T12:41:20Z</time>
    <speed>6.25</speed>
  </trkpt>
  <trkpt lat="43.546174" lon="39.906233">
    <ele>291</ele>
    <time>2014-12-07T12:41:22Z</time>
    <speed>7.0</speed>
  </trkpt>
  <trkpt lat="43.546226" lon="39.906392">
    <ele>291</ele>
    <time>2014-12-07T12:41:24Z</time>
    <speed>6.5</speed>
  </trkpt>
  <trkpt lat="43.546278" lon="39.906513">
    <ele>290</ele>
    <time>2014-12-07T12:41:26Z</time>
    <speed>5.75</speed>
  </trkpt>
  <trkpt lat="43.546296" lon="39.906673">
    <ele>291</ele>
    <time>2014-12-07T12:41:28Z</time>
    <speed>6.0</speed>
  </trkpt>
  <trkpt lat="43.546344" lon="39.906796">
    <ele>294</ele>
    <time>2014-12-07T12:41:30Z</time>
    <speed>4.75</speed>
  </trkpt>
  <trkpt lat="43.546506" lon="39.906885">
    <ele>292</ele>
    <time>2014-12-07T12:41:32Z</time>
    <speed>9.5</speed>
  </trkpt>
  <trkpt lat="43.546660" lon="39.906990">
    <ele>291</ele>
    <time>2014-12-07T12:41:34Z</time>
    <speed>9.25</speed>
  </trkpt>
  <trkpt lat="43.546804" lon="39.907058">
    <ele>290</ele>
    <time>2014-12-07T12:41:36Z</time>
    <speed>8.75</speed>
  </trkpt>
  <trkpt lat="43.546966" lon="39.907142">
    <ele>289</ele>
    <time>2014-12-07T12:41:38Z</time>
    <speed>9.25</speed>
  </trkpt>
  <trkpt lat="43.547127" lon="39.907114">
    <ele>285</ele>
    <time>2014-12-07T12:41:40Z</time>
    <speed>7.75</speed>
  </trkpt>
  <trkpt lat="43.547233" lon="39.907087">
    <ele>281</ele>
    <time>2014-12-07T12:41:42Z</time>
    <speed>6.75</speed>
  </trkpt>
  <trkpt lat="43.547363" lon="39.907054">
    <ele>278</ele>
    <time>2014-12-07T12:41:44Z</time>
    <speed>6.75</speed>
  </trkpt>
  <trkpt lat="43.547465" lon="39.907058">
    <ele>280</ele>
    <time>2014-12-07T12:41:46Z</time>
    <speed>5.5</speed>
  </trkpt>
  <trkpt lat="43.547522" lon="39.907079">
    <ele>280</ele>
    <time>2014-12-07T12:41:48Z</time>
    <speed>2.5</speed>
  </trkpt>
  <trkpt lat="43.547529" lon="39.907155">
    <ele>280</ele>
    <time>2014-12-07T12:41:53Z</time>
    <speed>2.0</speed>
  </trkpt>
  <trkpt lat="43.547504" lon="39.907215">
    <ele>281</ele>
    <time>2014-12-07T12:41:55Z</time>
    <speed>3.0</speed>
  </trkpt>
  <trkpt lat="43.547477" lon="39.907286">
    <ele>280</ele>
    <time>2014-12-07T12:41:57Z</time>
    <speed>3.5</speed>
  </trkpt>
  <trkpt lat="43.547429" lon="39.907354">
    <ele>281</ele>
    <time>2014-12-07T12:41:59Z</time>
    <speed>3.75</speed>
  </trkpt>
  <trkpt lat="43.547361" lon="39.907418">
    <ele>280</ele>
    <time>2014-12-07T12:42:01Z</time>
    <speed>4.25</speed>
  </trkpt>
  <trkpt lat="43.547290" lon="39.907489">
    <ele>279</ele>
    <time>2014-12-07T12:42:03Z</time>
    <speed>4.75</speed>
  </trkpt>
  <trkpt lat="43.547178" lon="39.907606">
    <ele>278</ele>
    <time>2014-12-07T12:42:05Z</time>
    <speed>6.5</speed>
  </trkpt>
  <trkpt lat="43.547108" lon="39.907731">
    <ele>278</ele>
    <time>2014-12-07T12:42:07Z</time>
    <speed>6.0</speed>
  </trkpt>
  <trkpt lat="43.547098" lon="39.907841">
    <ele>279</ele>
    <time>2014-12-07T12:42:09Z</time>
    <speed>5.25</speed>
  </trkpt>
  <trkpt lat="43.547128" lon="39.907924">
    <ele>277</ele>
    <time>2014-12-07T12:42:11Z</time>
    <speed>3.5</speed>
  </trkpt>
  <trkpt lat="43.547122" lon="39.908020">
    <ele>276</ele>
    <time>2014-12-07T12:42:13Z</time>
    <speed>3.0</speed>
  </trkpt>
  <trkpt lat="43.547121" lon="39.908111">
    <ele>277</ele>
    <time>2014-12-07T12:42:15Z</time>
    <speed>3.0</speed>
  </trkpt>
  <trkpt lat="43.547094" lon="39.908187">
    <ele>276</ele>
    <time>2014-12-07T12:42:17Z</time>
    <speed>3.25</speed>
  </trkpt>
  <trkpt lat="43.547114" lon="39.908277">
    <ele>273</ele>
    <time>2014-12-07T12:42:19Z</time>
    <speed>3.25</speed>
  </trkpt>
  <trkpt lat="43.547125" lon="39.908364">
    <ele>270</ele>
    <time>2014-12-07T12:42:21Z</time>
    <speed>3.5</speed>
  </trkpt>
  <trkpt lat="43.547133" lon="39.908457">
    <ele>268</ele>
    <time>2014-12-07T12:42:23Z</time>
    <speed>3.5</speed>
  </trkpt>
  <trkpt lat="43.547117" lon="39.908534">
    <ele>268</ele>
    <time>2014-12-07T12:42:25Z</time>
    <speed>3.25</speed>
  </trkpt>
  <trkpt lat="43.547038" lon="39.908585">
    <ele>268</ele>
    <time>2014-12-07T12:42:27Z</time>
    <speed>3.5</speed>
  </trkpt>
  <trkpt lat="43.546885" lon="39.908618">
    <ele>262</ele>
    <time>2014-12-07T12:42:29Z</time>
    <speed>5.75</speed>
  </trkpt>
  <trkpt lat="43.546799" lon="39.908653">
    <ele>262</ele>
    <time>2014-12-07T12:42:31Z</time>
    <speed>5.5</speed>
  </trkpt>
  <trkpt lat="43.546728" lon="39.908710">
    <ele>259</ele>
    <time>2014-12-07T12:42:33Z</time>
    <speed>5.0</speed>
  </trkpt>
  <trkpt lat="43.546648" lon="39.908768">
    <ele>258</ele>
    <time>2014-12-07T12:42:35Z</time>
    <speed>5.0</speed>
  </trkpt>
  <trkpt lat="43.546552" lon="39.908845">
    <ele>259</ele>
    <time>2014-12-07T12:42:37Z</time>
    <speed>5.25</speed>
  </trkpt>
  <trkpt lat="43.546436" lon="39.908956">
    <ele>259</ele>
    <time>2014-12-07T12:42:39Z</time>
    <speed>7.75</speed>
  </trkpt>
  <trkpt lat="43.546277" lon="39.909035">
    <ele>260</ele>
    <time>2014-12-07T12:42:41Z</time>
    <speed>9.25</speed>
  </trkpt>
  <trkpt lat="43.546106" lon="39.909157">
    <ele>260</ele>
    <time>2014-12-07T12:42:43Z</time>
    <speed>8.5</speed>
  </trkpt>
  <trkpt lat="43.546028" lon="39.909213">
    <ele>259</ele>
    <time>2014-12-07T12:42:45Z</time>
    <speed>5.0</speed>
  </trkpt>
  <trkpt lat="43.545980" lon="39.909257">
    <ele>260</ele>
    <time>2014-12-07T12:42:47Z</time>
    <speed>2.5</speed>
  </trkpt>
  <trkpt lat="43.545944" lon="39.909400">
    <ele>259</ele>
    <time>2014-12-07T12:42:49Z</time>
    <speed>6.5</speed>
  </trkpt>
  <trkpt lat="43.545918" lon="39.909527">
    <ele>259</ele>
    <time>2014-12-07T12:42:51Z</time>
    <speed>5.75</speed>
  </trkpt>
  <trkpt lat="43.545889" lon="39.909638">
    <ele>259</ele>
    <time>2014-12-07T12:42:53Z</time>
    <speed>5.0</speed>
  </trkpt>
  <trkpt lat="43.545853" lon="39.909751">
    <ele>256</ele>
    <time>2014-12-07T12:42:55Z</time>
    <speed>4.75</speed>
  </trkpt>
  <trkpt lat="43.545795" lon="39.909877">
    <ele>255</ele>
    <time>2014-12-07T12:42:57Z</time>
    <speed>5.25</speed>
  </trkpt>
  <trkpt lat="43.545741" lon="39.909989">
    <ele>253</ele>
    <time>2014-12-07T12:42:59Z</time>
    <speed>5.5</speed>
  </trkpt>
  <trkpt lat="43.545694" lon="39.910100">
    <ele>250</ele>
    <time>2014-12-07T12:43:01Z</time>
    <speed>5.25</speed>
  </trkpt>
  <trkpt lat="43.545628" lon="39.910256">
    <ele>253</ele>
    <time>2014-12-07T12:43:03Z</time>
    <speed>7.25</speed>
  </trkpt>
  <trkpt lat="43.545570" lon="39.910418">
    <ele>252</ele>
    <time>2014-12-07T12:43:05Z</time>
    <speed>6.75</speed>
  </trkpt>
  <trkpt lat="43.545520" lon="39.910581">
    <ele>252</ele>
    <time>2014-12-07T12:43:07Z</time>
    <speed>6.75</speed>
  </trkpt>
  <trkpt lat="43.545483" lon="39.910730">
    <ele>251</ele>
    <time>2014-12-07T12:43:09Z</time>
    <speed>6.25</speed>
  </trkpt>
  <trkpt lat="43.545434" lon="39.910873">
    <ele>250</ele>
    <time>2014-12-07T12:43:11Z</time>
    <speed>6.0</speed>
  </trkpt>
  <trkpt lat="43.545400" lon="39.911032">
    <ele>248</ele>
    <time>2014-12-07T12:43:13Z</time>
    <speed>6.5</speed>
  </trkpt>
  <trkpt lat="43.545365" lon="39.911158">
    <ele>246</ele>
    <time>2014-12-07T12:43:15Z</time>
    <speed>5.75</speed>
  </trkpt>
  <trkpt lat="43.545338" lon="39.911285">
    <ele>246</ele>
    <time>2014-12-07T12:43:17Z</time>
    <speed>5.0</speed>
  </trkpt>
  <trkpt lat="43.545287" lon="39.911418">
    <ele>245</ele>
    <time>2014-12-07T12:43:19Z</time>
    <speed>5.25</speed>
  </trkpt>
  <trkpt lat="43.545241" lon="39.911529">
    <ele>240</ele>
    <time>2014-12-07T12:43:21Z</time>
    <speed>5.25</speed>
  </trkpt>
  <trkpt lat="43.545191" lon="39.911643">
    <ele>239</ele>
    <time>2014-12-07T12:43:23Z</time>
    <speed>5.25</speed>
  </trkpt>
  <trkpt lat="43.545167" lon="39.911760">
    <ele>236</ele>
    <time>2014-12-07T12:43:25Z</time>
    <speed>5.25</speed>
  </trkpt>
  <trkpt lat="43.545125" lon="39.911880">
    <ele>237</ele>
    <time>2014-12-07T12:43:27Z</time>
    <speed>5.75</speed>
  </trkpt>
  <trkpt lat="43.545067" lon="39.911989">
    <ele>234</ele>
    <time>2014-12-07T12:43:29Z</time>
    <speed>5.0</speed>
  </trkpt>
  <trkpt lat="43.545006" lon="39.912086">
    <ele>233</ele>
    <time>2014-12-07T12:43:31Z</time>
    <speed>5.0</speed>
  </trkpt>
  <trkpt lat="43.544950" lon="39.912143">
    <ele>230</ele>
    <time>2014-12-07T12:43:33Z</time>
    <speed>3.5</speed>
  </trkpt>
  <trkpt lat="43.544898" lon="39.912182">
    <ele>229</ele>
    <time>2014-12-07T12:43:35Z</time>
    <speed>3.0</speed>
  </trkpt>
  <trkpt lat="43.544864" lon="39.912225">
    <ele>228</ele>
    <time>2014-12-07T12:43:37Z</time>
    <speed>2.5</speed>
  </trkpt>
  <trkpt lat="43.544833" lon="39.912282">
    <ele>229</ele>
    <time>2014-12-07T12:43:39Z</time>
    <speed>2.25</speed>
  </trkpt>
  <trkpt lat="43.544809" lon="39.912344">
    <ele>228</ele>
    <time>2014-12-07T12:43:41Z</time>
    <speed>2.5</speed>
  </trkpt>
  <trkpt lat="43.544796" lon="39.912415">
    <ele>225</ele>
    <time>2014-12-07T12:43:43Z</time>
    <speed>3.0</speed>
  </trkpt>
  <trkpt lat="43.544776" lon="39.912506">
    <ele>223</ele>
    <time>2014-12-07T12:43:45Z</time>
    <speed>3.75</speed>
  </trkpt>
  <trkpt lat="43.544758" lon="39.912608">
    <ele>220</ele>
    <time>2014-12-07T12:43:47Z</time>
    <speed>4.25</speed>
  </trkpt>
  <trkpt lat="43.544730" lon="39.912795">
    <ele>215</ele>
    <time>2014-12-07T12:43:49Z</time>
    <speed>7.75</speed>
  </trkpt>
  <trkpt lat="43.544681" lon="39.912995">
    <ele>214</ele>
    <time>2014-12-07T12:43:51Z</time>
    <speed>8.5</speed>
  </trkpt>
  <trkpt lat="43.544613" lon="39.913190">
    <ele>213</ele>
    <time>2014-12-07T12:43:53Z</time>
    <speed>8.25</speed>
  </trkpt>
  <trkpt lat="43.544578" lon="39.913383">
    <ele>211</ele>
    <time>2014-12-07T12:43:55Z</time>
    <speed>7.75</speed>
  </trkpt>
  <trkpt lat="43.544548" lon="39.913476">
    <ele>210</ele>
    <time>2014-12-07T12:43:57Z</time>
    <speed>4.0</speed>
  </trkpt>
  <trkpt lat="43.544522" lon="39.913562">
    <ele>210</ele>
    <time>2014-12-07T12:43:59Z</time>
    <speed>4.0</speed>
  </trkpt>
  <trkpt lat="43.544509" lon="39.913627">
    <ele>211</ele>
    <time>2014-12-07T12:44:01Z</time>
    <speed>3.0</speed>
  </trkpt>
  <trkpt lat="43.544459" lon="39.913677">
    <ele>211</ele>
    <time>2014-12-07T12:44:03Z</time>
    <speed>3.25</speed>
  </trkpt>
  <trkpt lat="43.544460" lon="39.913763">
    <ele>210</ele>
    <time>2014-12-07T12:44:05Z</time>
    <speed>4.0</speed>
  </trkpt>
  <trkpt lat="43.544402" lon="39.913922">
    <ele>213</ele>
    <time>2014-12-07T12:44:07Z</time>
    <speed>7.5</speed>
  </trkpt>
  <trkpt lat="43.544361" lon="39.914106">
    <ele>214</ele>
    <time>2014-12-07T12:44:09Z</time>
    <speed>6.0</speed>
  </trkpt>
  <trkpt lat="43.544319" lon="39.914215">
    <ele>213</ele>
    <time>2014-12-07T12:44:11Z</time>
    <speed>4.75</speed>
  </trkpt>
  <trkpt lat="43.544290" lon="39.914302">
    <ele>211</ele>
    <time>2014-12-07T12:44:13Z</time>
    <speed>5.0</speed>
  </trkpt>
  <trkpt lat="43.544240" lon="39.914429">
    <ele>209</ele>
    <time>2014-12-07T12:44:15Z</time>
    <speed>6.0</speed>
  </trkpt>
  <trkpt lat="43.544196" lon="39.914590">
    <ele>206</ele>
    <time>2014-12-07T12:44:17Z</time>
    <speed>7.0</speed>
  </trkpt>
  <trkpt lat="43.544092" lon="39.914731">
    <ele>205</ele>
    <time>2014-12-07T12:44:19Z</time>
    <speed>7.25</speed>
  </trkpt>
  <trkpt lat="43.544012" lon="39.914850">
    <ele>202</ele>
    <time>2014-12-07T12:44:21Z</time>
    <speed>6.25</speed>
  </trkpt>
  <trkpt lat="43.543933" lon="39.914956">
    <ele>201</ele>
    <time>2014-12-07T12:44:23Z</time>
    <speed>6.25</speed>
  </trkpt>
  <trkpt lat="43.543867" lon="39.915000">
    <ele>205</ele>
    <time>2014-12-07T12:44:25Z</time>
    <speed>4.5</speed>
  </trkpt>
  <trkpt lat="43.543832" lon="39.915055">
    <ele>204</ele>
    <time>2014-12-07T12:44:27Z</time>
    <speed>2.75</speed>
  </trkpt>
  <trkpt lat="43.543778" lon="39.915120">
    <ele>203</ele>
    <time>2014-12-07T12:44:29Z</time>
    <speed>3.25</speed>
  </trkpt>
  <trkpt lat="43.543833" lon="39.915073">
    <ele>206</ele>
    <time>2014-12-07T12:45:38Z</time>
    <speed>3.0</speed>
  </trkpt>
  <trkpt lat="43.543914" lon="39.914968">
    <ele>205</ele>
    <time>2014-12-07T12:45:40Z</time>
    <speed>5.0</speed>
  </trkpt>
  <trkpt lat="43.543983" lon="39.914842">
    <ele>204</ele>
    <time>2014-12-07T12:45:42Z</time>
    <speed>6.0</speed>
  </trkpt>
  <trkpt lat="43.544074" lon="39.914708">
    <ele>205</ele>
    <time>2014-12-07T12:45:44Z</time>
    <speed>7.0</speed>
  </trkpt>
  <trkpt lat="43.544191" lon="39.914506">
    <ele>206</ele>
    <time>2014-12-07T12:45:46Z</time>
    <speed>9.25</speed>
  </trkpt>
  <trkpt lat="43.544266" lon="39.914322">
    <ele>207</ele>
    <time>2014-12-07T12:45:48Z</time>
    <speed>8.0</speed>
  </trkpt>
  <trkpt lat="43.544319" lon="39.914138">
    <ele>211</ele>
    <time>2014-12-07T12:45:50Z</time>
    <speed>6.75</speed>
  </trkpt>
  <trkpt lat="43.544358" lon="39.914027">
    <ele>211</ele>
    <time>2014-12-07T12:45:52Z</time>
    <speed>4.75</speed>
  </trkpt>
  <trkpt lat="43.544410" lon="39.913883">
    <ele>207</ele>
    <time>2014-12-07T12:45:54Z</time>
    <speed>6.5</speed>
  </trkpt>
  <trkpt lat="43.544457" lon="39.913731">
    <ele>208</ele>
    <time>2014-12-07T12:45:56Z</time>
    <speed>7.0</speed>
  </trkpt>
  <trkpt lat="43.544506" lon="39.913581">
    <ele>209</ele>
    <time>2014-12-07T12:45:58Z</time>
    <speed>7.75</speed>
  </trkpt>
  <trkpt lat="43.544558" lon="39.913378">
    <ele>211</ele>
    <time>2014-12-07T12:46:00Z</time>
    <speed>8.75</speed>
  </trkpt>
  <trkpt lat="43.544633" lon="39.913165">
    <ele>215</ele>
    <time>2014-12-07T12:46:02Z</time>
    <speed>10.0</speed>
  </trkpt>
  <trkpt lat="43.544672" lon="39.912943">
    <ele>217</ele>
    <time>2014-12-07T12:46:04Z</time>
    <speed>10.0</speed>
  </trkpt>
  <trkpt lat="43.544745" lon="39.912686">
    <ele>217</ele>
    <time>2014-12-07T12:46:06Z</time>
    <speed>10.5</speed>
  </trkpt>
  <trkpt lat="43.544779" lon="39.912460">
    <ele>220</ele>
    <time>2014-12-07T12:46:08Z</time>
    <speed>8.25</speed>
  </trkpt>
  <trkpt lat="43.544832" lon="39.912256">
    <ele>225</ele>
    <time>2014-12-07T12:46:10Z</time>
    <speed>8.25</speed>
  </trkpt>
  <trkpt lat="43.544881" lon="39.912141">
    <ele>226</ele>
    <time>2014-12-07T12:46:12Z</time>
    <speed>5.0</speed>
  </trkpt>
  <trkpt lat="43.544942" lon="39.912106">
    <ele>229</ele>
    <time>2014-12-07T12:46:14Z</time>
    <speed>3.75</speed>
  </trkpt>
  <trkpt lat="43.545018" lon="39.912059">
    <ele>230</ele>
    <time>2014-12-07T12:46:16Z</time>
    <speed>4.25</speed>
  </trkpt>
  <trkpt lat="43.545089" lon="39.911906">
    <ele>231</ele>
    <time>2014-12-07T12:46:18Z</time>
    <speed>7.0</speed>
  </trkpt>
  <trkpt lat="43.545162" lon="39.911738">
    <ele>232</ele>
    <time>2014-12-07T12:46:20Z</time>
    <speed>7.25</speed>
  </trkpt>
  <trkpt lat="43.545226" lon="39.911558">
    <ele>237</ele>
    <time>2014-12-07T12:46:22Z</time>
    <speed>8.25</speed>
  </trkpt>
  <trkpt lat="43.545303" lon="39.911348">
    <ele>240</ele>
    <time>2014-12-07T12:46:24Z</time>
    <speed>8.75</speed>
  </trkpt>
  <trkpt lat="43.545368" lon="39.911079">
    <ele>239</ele>
    <time>2014-12-07T12:46:26Z</time>
    <speed>11.5</speed>
  </trkpt>
  <trkpt lat="43.545456" lon="39.910804">
    <ele>237</ele>
    <time>2014-12-07T12:46:28Z</time>
    <speed>11.5</speed>
  </trkpt>
  <trkpt lat="43.545520" lon="39.910548">
    <ele>240</ele>
    <time>2014-12-07T12:46:30Z</time>
    <speed>10.75</speed>
  </trkpt>
  <trkpt lat="43.545628" lon="39.910282">
    <ele>245</ele>
    <time>2014-12-07T12:46:32Z</time>
    <speed>11.25</speed>
  </trkpt>
  <trkpt lat="43.545722" lon="39.910042">
    <ele>245</ele>
    <time>2014-12-07T12:46:34Z</time>
    <speed>11.0</speed>
  </trkpt>
  <trkpt lat="43.545839" lon="39.909807">
    <ele>246</ele>
    <time>2014-12-07T12:46:36Z</time>
    <speed>11.75</speed>
  </trkpt>
  <trkpt lat="43.545912" lon="39.909599">
    <ele>247</ele>
    <time>2014-12-07T12:46:38Z</time>
    <speed>8.75</speed>
  </trkpt>
  <trkpt lat="43.545958" lon="39.909432">
    <ele>248</ele>
    <time>2014-12-07T12:46:40Z</time>
    <speed>7.5</speed>
  </trkpt>
  <trkpt lat="43.546004" lon="39.909270">
    <ele>249</ele>
    <time>2014-12-07T12:46:42Z</time>
    <speed>7.0</speed>
  </trkpt>
  <trkpt lat="43.545996" lon="39.909165">
    <ele>252</ele>
    <time>2014-12-07T12:46:44Z</time>
    <speed>4.75</speed>
  </trkpt>
  <trkpt lat="43.546006" lon="39.909064">
    <ele>253</ele>
    <time>2014-12-07T12:46:46Z</time>
    <speed>3.5</speed>
  </trkpt>
  <trkpt lat="43.546050" lon="39.909045">
    <ele>254</ele>
    <time>2014-12-07T12:46:48Z</time>
    <speed>3.25</speed>
  </trkpt>
  <trkpt lat="43.546105" lon="39.909007">
    <ele>257</ele>
    <time>2014-12-07T12:46:50Z</time>
    <speed>3.0</speed>
  </trkpt>
  <trkpt lat="43.546157" lon="39.908969">
    <ele>260</ele>
    <time>2014-12-07T12:46:52Z</time>
    <speed>1.75</speed>
  </trkpt>
  <trkpt lat="43.546188" lon="39.908913">
    <ele>268</ele>
    <time>2014-12-07T12:48:37Z</time>
    <speed>1.5</speed>
  </trkpt>
  <trkpt lat="43.546221" lon="39.908861">
    <ele>271</ele>
    <time>2014-12-07T12:48:39Z</time>
    <speed>2.25</speed>
  </trkpt>
  <trkpt lat="43.546140" lon="39.909011">
    <ele>268</ele>
    <time>2014-12-07T12:48:46Z</time>
    <speed>5.5</speed>
  </trkpt>
  <trkpt lat="43.546084" lon="39.909072">
    <ele>267</ele>
    <time>2014-12-07T12:48:48Z</time>
    <speed>3.5</speed>
  </trkpt>
  <trkpt lat="43.546042" lon="39.909126">
    <ele>267</ele>
    <time>2014-12-07T12:48:50Z</time>
    <speed>2.5</speed>
  </trkpt>
  <trkpt lat="43.546023" lon="39.909184">
    <ele>266</ele>
    <time>2014-12-07T12:48:52Z</time>
    <speed>1.75</speed>
  </trkpt>
  <trkpt lat="43.546075" lon="39.909187">
    <ele>265</ele>
    <time>2014-12-07T12:48:55Z</time>
    <speed>1.75</speed>
  </trkpt>
  <trkpt lat="43.546165" lon="39.909122">
    <ele>266</ele>
    <time>2014-12-07T12:48:57Z</time>
    <speed>4.0</speed>
  </trkpt>
  <trkpt lat="43.546256" lon="39.909070">
    <ele>267</ele>
    <time>2014-12-07T12:48:59Z</time>
    <speed>5.0</speed>
  </trkpt>
  <trkpt lat="43.546340" lon="39.909003">
    <ele>265</ele>
    <time>2014-12-07T12:49:01Z</time>
    <speed>4.5</speed>
  </trkpt>
  <trkpt lat="43.546373" lon="39.908956">
    <ele>265</ele>
    <time>2014-12-07T12:49:03Z</time>
    <speed>3.25</speed>
  </trkpt>
  <trkpt lat="43.546440" lon="39.908913">
    <ele>264</ele>
    <time>2014-12-07T12:49:05Z</time>
    <speed>3.25</speed>
  </trkpt>
  <trkpt lat="43.546487" lon="39.908888">
    <ele>270</ele>
    <time>2014-12-07T12:50:06Z</time>
    <speed>2.25</speed>
  </trkpt>
  <trkpt lat="43.546612" lon="39.908811">
    <ele>267</ele>
    <time>2014-12-07T12:50:08Z</time>
    <speed>5.0</speed>
  </trkpt>
  <trkpt lat="43.546694" lon="39.908760">
    <ele>265</ele>
    <time>2014-12-07T12:50:10Z</time>
    <speed>4.25</speed>
  </trkpt>
  <trkpt lat="43.546803" lon="39.908701">
    <ele>265</ele>
    <time>2014-12-07T12:50:12Z</time>
    <speed>4.75</speed>
  </trkpt>
  <trkpt lat="43.546858" lon="39.908641">
    <ele>265</ele>
    <time>2014-12-07T12:50:14Z</time>
    <speed>4.75</speed>
  </trkpt>
  <trkpt lat="43.546947" lon="39.908586">
    <ele>267</ele>
    <time>2014-12-07T12:50:16Z</time>
    <speed>5.0</speed>
  </trkpt>
  <trkpt lat="43.547038" lon="39.908482">
    <ele>268</ele>
    <time>2014-12-07T12:50:18Z</time>
    <speed>5.5</speed>
  </trkpt>
  <trkpt lat="43.547212" lon="39.908266">
    <ele>267</ele>
    <time>2014-12-07T12:50:20Z</time>
    <speed>9.25</speed>
  </trkpt>
  <trkpt lat="43.547257" lon="39.908012">
    <ele>267</ele>
    <time>2014-12-07T12:50:22Z</time>
    <speed>9.75</speed>
  </trkpt>
  <trkpt lat="43.547183" lon="39.907879">
    <ele>271</ele>
    <time>2014-12-07T12:50:24Z</time>
    <speed>6.5</speed>
  </trkpt>
  <trkpt lat="43.547182" lon="39.907760">
    <ele>275</ele>
    <time>2014-12-07T12:50:26Z</time>
    <speed>6.5</speed>
  </trkpt>
  <trkpt lat="43.547211" lon="39.907622">
    <ele>275</ele>
    <time>2014-12-07T12:50:28Z</time>
    <speed>5.25</speed>
  </trkpt>
  <trkpt lat="43.547314" lon="39.907475">
    <ele>279</ele>
    <time>2014-12-07T12:50:30Z</time>
    <speed>5.5</speed>
  </trkpt>
  <trkpt lat="43.547390" lon="39.907400">
    <ele>282</ele>
    <time>2014-12-07T12:50:32Z</time>
    <speed>5.0</speed>
  </trkpt>
  <trkpt lat="43.547470" lon="39.907321">
    <ele>285</ele>
    <time>2014-12-07T12:50:34Z</time>
    <speed>5.5</speed>
  </trkpt>
  <trkpt lat="43.547501" lon="39.907208">
    <ele>285</ele>
    <time>2014-12-07T12:50:36Z</time>
    <speed>5.25</speed>
  </trkpt>
  <trkpt lat="43.547543" lon="39.907154">
    <ele>286</ele>
    <time>2014-12-07T12:50:38Z</time>
    <speed>3.0</speed>
  </trkpt>
  <trkpt lat="43.547580" lon="39.907103">
    <ele>287</ele>
    <time>2014-12-07T12:50:40Z</time>
    <speed>2.0</speed>
  </trkpt>
  <trkpt lat="43.547628" lon="39.907126">
    <ele>287</ele>
    <time>2014-12-07T12:50:46Z</time>
    <speed>0.0</speed>
  </trkpt>
  <trkpt lat="43.547688" lon="39.907120">
    <ele>283</ele>
    <time>2014-12-07T12:51:07Z</time>
    <speed>0.3188444</speed>
  </trkpt>
  <trkpt lat="43.547745" lon="39.907128">
    <ele>282</ele>
    <time>2014-12-07T12:51:10Z</time>
    <speed>2.25</speed>
  </trkpt>
  <trkpt lat="43.547803" lon="39.907127">
    <ele>280</ele>
    <time>2014-12-07T12:51:12Z</time>
    <speed>3.0</speed>
  </trkpt>
  <trkpt lat="43.547866" lon="39.907127">
    <ele>277</ele>
    <time>2014-12-07T12:51:14Z</time>
    <speed>3.0</speed>
  </trkpt>
  <trkpt lat="43.547922" lon="39.907124">
    <ele>275</ele>
    <time>2014-12-07T12:51:16Z</time>
    <speed>2.75</speed>
  </trkpt>
  <trkpt lat="43.547983" lon="39.907112">
    <ele>276</ele>
    <time>2014-12-07T12:51:18Z</time>
    <speed>3.0</speed>
  </trkpt>
  <trkpt lat="43.548061" lon="39.907101">
    <ele>278</ele>
    <time>2014-12-07T12:51:20Z</time>
    <speed>3.75</speed>
  </trkpt>
  <trkpt lat="43.548143" lon="39.907081">
    <ele>279</ele>
    <time>2014-12-07T12:51:22Z</time>
    <speed>4.0</speed>
  </trkpt>
  <trkpt lat="43.548269" lon="39.907074">
    <ele>280</ele>
    <time>2014-12-07T12:51:24Z</time>
    <speed>4.5</speed>
  </trkpt>
  <trkpt lat="43.548342" lon="39.907102">
    <ele>278</ele>
    <time>2014-12-07T12:51:26Z</time>
    <speed>4.25</speed>
  </trkpt>
  <trkpt lat="43.548439" lon="39.907157">
    <ele>277</ele>
    <time>2014-12-07T12:51:28Z</time>
    <speed>4.75</speed>
  </trkpt>
  <trkpt lat="43.548514" lon="39.907193">
    <ele>276</ele>
    <time>2014-12-07T12:51:30Z</time>
    <speed>3.5</speed>
  </trkpt>
  <trkpt lat="43.548543" lon="39.907255">
    <ele>278</ele>
    <time>2014-12-07T12:51:46Z</time>
    <speed>2.75</speed>
  </trkpt>
  <trkpt lat="43.548576" lon="39.907302">
    <ele>278</ele>
    <time>2014-12-07T12:51:48Z</time>
    <speed>2.5</speed>
  </trkpt>
  <trkpt lat="43.548608" lon="39.907346">
    <ele>278</ele>
    <time>2014-12-07T12:51:50Z</time>
    <speed>2.25</speed>
  </trkpt>
  <trkpt lat="43.548653" lon="39.907394">
    <ele>277</ele>
    <time>2014-12-07T12:51:52Z</time>
    <speed>2.5</speed>
  </trkpt>
  <trkpt lat="43.548695" lon="39.907457">
    <ele>276</ele>
    <time>2014-12-07T12:51:54Z</time>
    <speed>2.5</speed>
  </trkpt>
  <trkpt lat="43.548728" lon="39.907533">
    <ele>277</ele>
    <time>2014-12-07T12:51:56Z</time>
    <speed>2.75</speed>
  </trkpt>
  <trkpt lat="43.548773" lon="39.907601">
    <ele>275</ele>
    <time>2014-12-07T12:51:58Z</time>
    <speed>2.75</speed>
  </trkpt>
  <trkpt lat="43.548824" lon="39.907655">
    <ele>275</ele>
    <time>2014-12-07T12:52:00Z</time>
    <speed>2.75</speed>
  </trkpt>
  <trkpt lat="43.548867" lon="39.907709">
    <ele>276</ele>
    <time>2014-12-07T12:52:02Z</time>
    <speed>2.75</speed>
  </trkpt>
  <trkpt lat="43.548901" lon="39.907755">
    <ele>276</ele>
    <time>2014-12-07T12:52:04Z</time>
    <speed>2.25</speed>
  </trkpt>
  <trkpt lat="43.548928" lon="39.907806">
    <ele>275</ele>
    <time>2014-12-07T12:52:06Z</time>
    <speed>2.25</speed>
  </trkpt>
  <trkpt lat="43.548969" lon="39.907864">
    <ele>275</ele>
    <time>2014-12-07T12:52:09Z</time>
    <speed>1.75</speed>
  </trkpt>
  <trkpt lat="43.549014" lon="39.907869">
    <ele>274</ele>
    <time>2014-12-07T12:52:13Z</time>
    <speed>1.0</speed>
  </trkpt>
  <trkpt lat="43.549062" lon="39.907894">
    <ele>275</ele>
    <time>2014-12-07T12:52:18Z</time>
    <speed>1.25</speed>
  </trkpt>
  <trkpt lat="43.549105" lon="39.907915">
    <ele>273</ele>
    <time>2014-12-07T12:52:20Z</time>
    <speed>2.5</speed>
  </trkpt>
  <trkpt lat="43.549161" lon="39.907942">
    <ele>274</ele>
    <time>2014-12-07T12:52:22Z</time>
    <speed>2.75</speed>
  </trkpt>
  <trkpt lat="43.549224" lon="39.907964">
    <ele>272</ele>
    <time>2014-12-07T12:52:24Z</time>
    <speed>3.0</speed>
  </trkpt>
  <trkpt lat="43.549308" lon="39.907980">
    <ele>272</ele>
    <time>2014-12-07T12:52:26Z</time>
    <speed>4.25</speed>
  </trkpt>
  <trkpt lat="43.549402" lon="39.907975">
    <ele>270</ele>
    <time>2014-12-07T12:52:28Z</time>
    <speed>4.5</speed>
  </trkpt>
  <trkpt lat="43.549563" lon="39.907845">
    <ele>269</ele>
    <time>2014-12-07T12:52:30Z</time>
    <speed>6.25</speed>
  </trkpt>
  <trkpt lat="43.549685" lon="39.907766">
    <ele>269</ele>
    <time>2014-12-07T12:52:32Z</time>
    <speed>7.0</speed>
  </trkpt>
  <trkpt lat="43.549834" lon="39.907772">
    <ele>268</ele>
    <time>2014-12-07T12:52:34Z</time>
    <speed>6.5</speed>
  </trkpt>
  <trkpt lat="43.549935" lon="39.907764">
    <ele>268</ele>
    <time>2014-12-07T12:52:36Z</time>
    <speed>6.0</speed>
  </trkpt>
  <trkpt lat="43.550019" lon="39.907775">
    <ele>268</ele>
    <time>2014-12-07T12:52:38Z</time>
    <speed>5.0</speed>
  </trkpt>
  <trkpt lat="43.550084" lon="39.907791">
    <ele>263</ele>
    <time>2014-12-07T12:52:41Z</time>
    <speed>2.75</speed>
  </trkpt>
  <trkpt lat="43.550138" lon="39.907808">
    <ele>265</ele>
    <time>2014-12-07T12:52:44Z</time>
    <speed>2.75</speed>
  </trkpt>
  <trkpt lat="43.550204" lon="39.907819">
    <ele>262</ele>
    <time>2014-12-07T12:52:46Z</time>
    <speed>3.25</speed>
  </trkpt>
  <trkpt lat="43.550308" lon="39.907819">
    <ele>256</ele>
    <time>2014-12-07T12:52:48Z</time>
    <speed>4.5</speed>
  </trkpt>
  <trkpt lat="43.550385" lon="39.907785">
    <ele>251</ele>
    <time>2014-12-07T12:52:50Z</time>
    <speed>4.5</speed>
  </trkpt>
  <trkpt lat="43.550449" lon="39.907748">
    <ele>249</ele>
    <time>2014-12-07T12:52:52Z</time>
    <speed>4.0</speed>
  </trkpt>
  <trkpt lat="43.550506" lon="39.907698">
    <ele>246</ele>
    <time>2014-12-07T12:52:54Z</time>
    <speed>4.0</speed>
  </trkpt>
  <trkpt lat="43.550577" lon="39.907663">
    <ele>242</ele>
    <time>2014-12-07T12:52:56Z</time>
    <speed>4.0</speed>
  </trkpt>
  <trkpt lat="43.550656" lon="39.907655">
    <ele>238</ele>
    <time>2014-12-07T12:52:58Z</time>
    <speed>4.0</speed>
  </trkpt>
  <trkpt lat="43.550740" lon="39.907688">
    <ele>237</ele>
    <time>2014-12-07T12:53:00Z</time>
    <speed>4.0</speed>
  </trkpt>
  <trkpt lat="43.550818" lon="39.907748">
    <ele>238</ele>
    <time>2014-12-07T12:53:02Z</time>
    <speed>4.0</speed>
  </trkpt>
  <trkpt lat="43.550897" lon="39.907778">
    <ele>240</ele>
    <time>2014-12-07T12:53:04Z</time>
    <speed>4.0</speed>
  </trkpt>
  <trkpt lat="43.550960" lon="39.907731">
    <ele>237</ele>
    <time>2014-12-07T12:53:06Z</time>
    <speed>3.0</speed>
  </trkpt>
  <trkpt lat="43.550995" lon="39.907656">
    <ele>237</ele>
    <time>2014-12-07T12:53:08Z</time>
    <speed>3.0</speed>
  </trkpt>
  <trkpt lat="43.550880" lon="39.907130">
    <ele>236</ele>
    <time>2014-12-07T12:53:10Z</time>
    <speed>13.25</speed>
  </trkpt>
  <trkpt lat="43.550794" lon="39.906781">
    <ele>232</ele>
    <time>2014-12-07T12:53:12Z</time>
    <speed>14.25</speed>
  </trkpt>
  <trkpt lat="43.550671" lon="39.906550">
    <ele>232</ele>
    <time>2014-12-07T12:53:14Z</time>
    <speed>12.0</speed>
  </trkpt>
  <trkpt lat="43.550586" lon="39.906267">
    <ele>231</ele>
    <time>2014-12-07T12:53:16Z</time>
    <speed>11.5</speed>
  </trkpt>
  <trkpt lat="43.550528" lon="39.906061">
    <ele>232</ele>
    <time>2014-12-07T12:53:18Z</time>
    <speed>10.0</speed>
  </trkpt>
  <trkpt lat="43.550405" lon="39.905868">
    <ele>232</ele>
    <time>2014-12-07T12:53:20Z</time>
    <speed>10.25</speed>
  </trkpt>
  <trkpt lat="43.550192" lon="39.905783">
    <ele>232</ele>
    <time>2014-12-07T12:53:22Z</time>
    <speed>11.5</speed>
  </trkpt>
  <trkpt lat="43.549893" lon="39.905632">
    <ele>231</ele>
    <time>2014-12-07T12:53:24Z</time>
    <speed>16.25</speed>
  </trkpt>
  <trkpt lat="43.549618" lon="39.905426">
    <ele>232</ele>
    <time>2014-12-07T12:53:26Z</time>
    <speed>16.0</speed>
  </trkpt>
  <trkpt lat="43.549382" lon="39.905190">
    <ele>231</ele>
    <time>2014-12-07T12:53:28Z</time>
    <speed>15.75</speed>
  </trkpt>
  <trkpt lat="43.549248" lon="39.904904">
    <ele>228</ele>
    <time>2014-12-07T12:53:30Z</time>
    <speed>14.0</speed>
  </trkpt>
  <trkpt lat="43.549176" lon="39.904700">
    <ele>227</ele>
    <time>2014-12-07T12:53:32Z</time>
    <speed>11.0</speed>
  </trkpt>
  <trkpt lat="43.549021" lon="39.904654">
    <ele>227</ele>
    <time>2014-12-07T12:53:34Z</time>
    <speed>8.25</speed>
  </trkpt>
  <trkpt lat="43.548859" lon="39.904721">
    <ele>227</ele>
    <time>2014-12-07T12:53:36Z</time>
    <speed>10.25</speed>
  </trkpt>
  <trkpt lat="43.548648" lon="39.904791">
    <ele>225</ele>
    <time>2014-12-07T12:53:38Z</time>
    <speed>11.5</speed>
  </trkpt>
  <trkpt lat="43.548380" lon="39.904764">
    <ele>224</ele>
    <time>2014-12-07T12:53:40Z</time>
    <speed>15.5</speed>
  </trkpt>
  <trkpt lat="43.548107" lon="39.904707">
    <ele>223</ele>
    <time>2014-12-07T12:53:42Z</time>
    <speed>15.25</speed>
  </trkpt>
  <trkpt lat="43.547899" lon="39.904751">
    <ele>222</ele>
    <time>2014-12-07T12:53:44Z</time>
    <speed>11.5</speed>
  </trkpt>
  <trkpt lat="43.547750" lon="39.904926">
    <ele>222</ele>
    <time>2014-12-07T12:53:46Z</time>
    <speed>11.0</speed>
  </trkpt>
  <trkpt lat="43.547628" lon="39.905141">
    <ele>222</ele>
    <time>2014-12-07T12:53:48Z</time>
    <speed>10.75</speed>
  </trkpt>
  <trkpt lat="43.547500" lon="39.905306">
    <ele>221</ele>
    <time>2014-12-07T12:53:50Z</time>
    <speed>9.25</speed>
  </trkpt>
  <trkpt lat="43.547402" lon="39.905397">
    <ele>221</ele>
    <time>2014-12-07T12:53:52Z</time>
    <speed>7.25</speed>
  </trkpt>
  <trkpt lat="43.547299" lon="39.905311">
    <ele>221</ele>
    <time>2014-12-07T12:53:54Z</time>
    <speed>5.0</speed>
  </trkpt>
  <trkpt lat="43.547246" lon="39.905234">
    <ele>221</ele>
    <time>2014-12-07T12:53:56Z</time>
    <speed>4.75</speed>
  </trkpt>
  <trkpt lat="43.547220" lon="39.904959">
    <ele>223</ele>
    <time>2014-12-07T12:53:58Z</time>
    <speed>8.5</speed>
  </trkpt>
  <trkpt lat="43.547208" lon="39.904526">
    <ele>223</ele>
    <time>2014-12-07T12:54:00Z</time>
    <speed>14.75</speed>
  </trkpt>
  <trkpt lat="43.547187" lon="39.904183">
    <ele>223</ele>
    <time>2014-12-07T12:54:02Z</time>
    <speed>12.75</speed>
  </trkpt>
  <trkpt lat="43.547183" lon="39.903916">
    <ele>222</ele>
    <time>2014-12-07T12:54:04Z</time>
    <speed>10.5</speed>
  </trkpt>
  <trkpt lat="43.547156" lon="39.903651">
    <ele>220</ele>
    <time>2014-12-07T12:54:06Z</time>
    <speed>10.5</speed>
  </trkpt>
  <trkpt lat="43.547072" lon="39.903401">
    <ele>219</ele>
    <time>2014-12-07T12:54:08Z</time>
    <speed>10.75</speed>
  </trkpt>
  <trkpt lat="43.546957" lon="39.903236">
    <ele>218</ele>
    <time>2014-12-07T12:54:10Z</time>
    <speed>8.75</speed>
  </trkpt>
  <trkpt lat="43.546844" lon="39.903065">
    <ele>218</ele>
    <time>2014-12-07T12:54:12Z</time>
    <speed>9.75</speed>
  </trkpt>
  <trkpt lat="43.546783" lon="39.902846">
    <ele>216</ele>
    <time>2014-12-07T12:54:14Z</time>
    <speed>8.75</speed>
  </trkpt>
  <trkpt lat="43.546765" lon="39.902608">
    <ele>216</ele>
    <time>2014-12-07T12:54:16Z</time>
    <speed>9.75</speed>
  </trkpt>
  <trkpt lat="43.546826" lon="39.902380">
    <ele>214</ele>
    <time>2014-12-07T12:54:18Z</time>
    <speed>9.25</speed>
  </trkpt>
  <trkpt lat="43.546895" lon="39.902215">
    <ele>214</ele>
    <time>2014-12-07T12:54:20Z</time>
    <speed>8.25</speed>
  </trkpt>
  <trkpt lat="43.546951" lon="39.902026">
    <ele>213</ele>
    <time>2014-12-07T12:54:22Z</time>
    <speed>8.0</speed>
  </trkpt>
  <trkpt lat="43.546909" lon="39.901854">
    <ele>212</ele>
    <time>2014-12-07T12:54:24Z</time>
    <speed>7.25</speed>
  </trkpt>
  <trkpt lat="43.546822" lon="39.901673">
    <ele>211</ele>
    <time>2014-12-07T12:54:26Z</time>
    <speed>9.0</speed>
  </trkpt>
  <trkpt lat="43.546735" lon="39.901526">
    <ele>211</ele>
    <time>2014-12-07T12:54:28Z</time>
    <speed>7.5</speed>
  </trkpt>
  <trkpt lat="43.546728" lon="39.901372">
    <ele>211</ele>
    <time>2014-12-07T12:54:30Z</time>
    <speed>5.5</speed>
  </trkpt>
  <trkpt lat="43.546862" lon="39.901214">
    <ele>212</ele>
    <time>2014-12-07T12:54:32Z</time>
    <speed>8.25</speed>
  </trkpt>
  <trkpt lat="43.547049" lon="39.901113">
    <ele>212</ele>
    <time>2014-12-07T12:54:34Z</time>
    <speed>11.5</speed>
  </trkpt>
  <trkpt lat="43.547258" lon="39.901039">
    <ele>212</ele>
    <time>2014-12-07T12:54:36Z</time>
    <speed>11.25</speed>
  </trkpt>
  <trkpt lat="43.547468" lon="39.901061">
    <ele>211</ele>
    <time>2014-12-07T12:54:38Z</time>
    <speed>11.0</speed>
  </trkpt>
  <trkpt lat="43.547666" lon="39.901019">
    <ele>209</ele>
    <time>2014-12-07T12:54:40Z</time>
    <speed>11.25</speed>
  </trkpt>
  <trkpt lat="43.547836" lon="39.900907">
    <ele>207</ele>
    <time>2014-12-07T12:54:42Z</time>
    <speed>11.5</speed>
  </trkpt>
  <trkpt lat="43.547998" lon="39.900709">
    <ele>203</ele>
    <time>2014-12-07T12:54:44Z</time>
    <speed>11.5</speed>
  </trkpt>
  <trkpt lat="43.548120" lon="39.900496">
    <ele>203</ele>
    <time>2014-12-07T12:54:46Z</time>
    <speed>11.0</speed>
  </trkpt>
  <trkpt lat="43.548180" lon="39.900252">
    <ele>203</ele>
    <time>2014-12-07T12:54:48Z</time>
    <speed>10.25</speed>
  </trkpt>
  <trkpt lat="43.548166" lon="39.900009">
    <ele>201</ele>
    <time>2014-12-07T12:54:50Z</time>
    <speed>10.0</speed>
  </trkpt>
  <trkpt lat="43.548088" lon="39.899774">
    <ele>200</ele>
    <time>2014-12-07T12:54:52Z</time>
    <speed>10.5</speed>
  </trkpt>
  <trkpt lat="43.547932" lon="39.899566">
    <ele>201</ele>
    <time>2014-12-07T12:54:54Z</time>
    <speed>12.0</speed>
  </trkpt>
  <trkpt lat="43.547748" lon="39.899346">
    <ele>200</ele>
    <time>2014-12-07T12:54:56Z</time>
    <speed>13.25</speed>
  </trkpt>
  <trkpt lat="43.547596" lon="39.899080">
    <ele>201</ele>
    <time>2014-12-07T12:54:58Z</time>
    <speed>13.5</speed>
  </trkpt>
  <trkpt lat="43.547443" lon="39.898889">
    <ele>203</ele>
    <time>2014-12-07T12:55:00Z</time>
    <speed>12.0</speed>
  </trkpt>
  <trkpt lat="43.547225" lon="39.898901">
    <ele>200</ele>
    <time>2014-12-07T12:55:02Z</time>
    <speed>11.25</speed>
  </trkpt>
  <trkpt lat="43.546968" lon="39.898853">
    <ele>201</ele>
    <time>2014-12-07T12:55:04Z</time>
    <speed>14.75</speed>
  </trkpt>
  <trkpt lat="43.546760" lon="39.898744">
    <ele>201</ele>
    <time>2014-12-07T12:55:06Z</time>
    <speed>11.5</speed>
  </trkpt>
  <trkpt lat="43.546570" lon="39.898674">
    <ele>201</ele>
    <time>2014-12-07T12:55:08Z</time>
    <speed>11.25</speed>
  </trkpt>
  <trkpt lat="43.546373" lon="39.898729">
    <ele>200</ele>
    <time>2014-12-07T12:55:10Z</time>
    <speed>11.25</speed>
  </trkpt>
  <trkpt lat="43.546178" lon="39.898739">
    <ele>198</ele>
    <time>2014-12-07T12:55:12Z</time>
    <speed>10.25</speed>
  </trkpt>
  <trkpt lat="43.546037" lon="39.898712">
    <ele>198</ele>
    <time>2014-12-07T12:55:14Z</time>
    <speed>7.75</speed>
  </trkpt>
  <trkpt lat="43.545937" lon="39.898628">
    <ele>198</ele>
    <time>2014-12-07T12:55:16Z</time>
    <speed>6.25</speed>
  </trkpt>
  <trkpt lat="43.545883" lon="39.898512">
    <ele>199</ele>
    <time>2014-12-07T12:55:18Z</time>
    <speed>6.0</speed>
  </trkpt>
  <trkpt lat="43.545926" lon="39.898394">
    <ele>198</ele>
    <time>2014-12-07T12:55:20Z</time>
    <speed>5.75</speed>
  </trkpt>
  <trkpt lat="43.546045" lon="39.898258">
    <ele>198</ele>
    <time>2014-12-07T12:55:22Z</time>
    <speed>9.25</speed>
  </trkpt>
  <trkpt lat="43.546190" lon="39.898055">
    <ele>198</ele>
    <time>2014-12-07T12:55:24Z</time>
    <speed>12.5</speed>
  </trkpt>
  <trkpt lat="43.546354" lon="39.897923">
    <ele>196</ele>
    <time>2014-12-07T12:55:26Z</time>
    <speed>11.0</speed>
  </trkpt>
  <trkpt lat="43.546500" lon="39.897762">
    <ele>197</ele>
    <time>2014-12-07T12:55:28Z</time>
    <speed>10.25</speed>
  </trkpt>
  <trkpt lat="43.546590" lon="39.897577">
    <ele>195</ele>
    <time>2014-12-07T12:55:30Z</time>
    <speed>8.5</speed>
  </trkpt>
  <trkpt lat="43.546588" lon="39.897363">
    <ele>194</ele>
    <time>2014-12-07T12:55:32Z</time>
    <speed>8.75</speed>
  </trkpt>
  <trkpt lat="43.546465" lon="39.897195">
    <ele>193</ele>
    <time>2014-12-07T12:55:34Z</time>
    <speed>9.0</speed>
  </trkpt>
  <trkpt lat="43.546339" lon="39.897090">
    <ele>190</ele>
    <time>2014-12-07T12:55:36Z</time>
    <speed>7.75</speed>
  </trkpt>
  <trkpt lat="43.546282" lon="39.896905">
    <ele>192</ele>
    <time>2014-12-07T12:55:38Z</time>
    <speed>7.75</speed>
  </trkpt>
  <trkpt lat="43.546382" lon="39.896759">
    <ele>188</ele>
    <time>2014-12-07T12:55:40Z</time>
    <speed>8.25</speed>
  </trkpt>
  <trkpt lat="43.546393" lon="39.896512">
    <ele>189</ele>
    <time>2014-12-07T12:55:42Z</time>
    <speed>9.25</speed>
  </trkpt>
  <trkpt lat="43.546341" lon="39.896285">
    <ele>188</ele>
    <time>2014-12-07T12:55:44Z</time>
    <speed>9.5</speed>
  </trkpt>
  <trkpt lat="43.546298" lon="39.896039">
    <ele>189</ele>
    <time>2014-12-07T12:55:46Z</time>
    <speed>9.0</speed>
  </trkpt>
  <trkpt lat="43.546413" lon="39.895888">
    <ele>191</ele>
    <time>2014-12-07T12:55:48Z</time>
    <speed>7.75</speed>
  </trkpt>
  <trkpt lat="43.546568" lon="39.895732">
    <ele>190</ele>
    <time>2014-12-07T12:55:50Z</time>
    <speed>10.75</speed>
  </trkpt>
  <trkpt lat="43.546740" lon="39.895550">
    <ele>191</ele>
    <time>2014-12-07T12:55:52Z</time>
    <speed>12.75</speed>
  </trkpt>
  <trkpt lat="43.546943" lon="39.895344">
    <ele>193</ele>
    <time>2014-12-07T12:55:54Z</time>
    <speed>12.0</speed>
  </trkpt>
  <trkpt lat="43.547094" lon="39.895140">
    <ele>192</ele>
    <time>2014-12-07T12:55:56Z</time>
    <speed>11.5</speed>
  </trkpt>
  <trkpt lat="43.547139" lon="39.894980">
    <ele>192</ele>
    <time>2014-12-07T12:55:58Z</time>
    <speed>9.25</speed>
  </trkpt>
  <trkpt lat="43.547062" lon="39.894761">
    <ele>192</ele>
    <time>2014-12-07T12:56:00Z</time>
    <speed>8.75</speed>
  </trkpt>
  <trkpt lat="43.546820" lon="39.894584">
    <ele>190</ele>
    <time>2014-12-07T12:56:02Z</time>
    <speed>10.75</speed>
  </trkpt>
  <trkpt lat="43.546622" lon="39.894433">
    <ele>190</ele>
    <time>2014-12-07T12:56:04Z</time>
    <speed>11.75</speed>
  </trkpt>
  <trkpt lat="43.546478" lon="39.894452">
    <ele>192</ele>
    <time>2014-12-07T12:56:06Z</time>
    <speed>10.25</speed>
  </trkpt>
  <trkpt lat="43.546308" lon="39.894423">
    <ele>192</ele>
    <time>2014-12-07T12:56:08Z</time>
    <speed>8.75</speed>
  </trkpt>
  <trkpt lat="43.546192" lon="39.894306">
    <ele>193</ele>
    <time>2014-12-07T12:56:10Z</time>
    <speed>7.25</speed>
  </trkpt>
  <trkpt lat="43.546166" lon="39.894112">
    <ele>191</ele>
    <time>2014-12-07T12:56:12Z</time>
    <speed>7.5</speed>
  </trkpt>
  <trkpt lat="43.546193" lon="39.893915">
    <ele>190</ele>
    <time>2014-12-07T12:56:14Z</time>
    <speed>7.75</speed>
  </trkpt>
  <trkpt lat="43.546345" lon="39.893672">
    <ele>191</ele>
    <time>2014-12-07T12:56:16Z</time>
    <speed>11.25</speed>
  </trkpt>
  <trkpt lat="43.546518" lon="39.893428">
    <ele>194</ele>
    <time>2014-12-07T12:56:18Z</time>
    <speed>12.5</speed>
  </trkpt>
  <trkpt lat="43.546618" lon="39.893249">
    <ele>193</ele>
    <time>2014-12-07T12:56:20Z</time>
    <speed>9.5</speed>
  </trkpt>
  <trkpt lat="43.546665" lon="39.893046">
    <ele>193</ele>
    <time>2014-12-07T12:56:22Z</time>
    <speed>8.75</speed>
  </trkpt>
  <trkpt lat="43.546611" lon="39.892853">
    <ele>190</ele>
    <time>2014-12-07T12:56:24Z</time>
    <speed>7.5</speed>
  </trkpt>
  <trkpt lat="43.546565" lon="39.892712">
    <ele>188</ele>
    <time>2014-12-07T12:56:26Z</time>
    <speed>6.25</speed>
  </trkpt>
  <trkpt lat="43.546550" lon="39.892560">
    <ele>191</ele>
    <time>2014-12-07T12:56:28Z</time>
    <speed>6.25</speed>
  </trkpt>
  <trkpt lat="43.546603" lon="39.892376">
    <ele>190</ele>
    <time>2014-12-07T12:56:30Z</time>
    <speed>8.25</speed>
  </trkpt>
  <trkpt lat="43.546725" lon="39.892177">
    <ele>189</ele>
    <time>2014-12-07T12:56:32Z</time>
    <speed>10.25</speed>
  </trkpt>
  <trkpt lat="43.546812" lon="39.891992">
    <ele>190</ele>
    <time>2014-12-07T12:56:34Z</time>
    <speed>8.5</speed>
  </trkpt>
  <trkpt lat="43.546781" lon="39.891837">
    <ele>190</ele>
    <time>2014-12-07T12:56:36Z</time>
    <speed>7.0</speed>
  </trkpt>
  <trkpt lat="43.546686" lon="39.891734">
    <ele>189</ele>
    <time>2014-12-07T12:56:38Z</time>
    <speed>8.0</speed>
  </trkpt>
  <trkpt lat="43.546532" lon="39.891687">
    <ele>189</ele>
    <time>2014-12-07T12:56:40Z</time>
    <speed>9.0</speed>
  </trkpt>
  <trkpt lat="43.546373" lon="39.891647">
    <ele>187</ele>
    <time>2014-12-07T12:56:42Z</time>
    <speed>9.25</speed>
  </trkpt>
  <trkpt lat="43.546227" lon="39.891561">
    <ele>186</ele>
    <time>2014-12-07T12:56:44Z</time>
    <speed>8.5</speed>
  </trkpt>
  <trkpt lat="43.546114" lon="39.891426">
    <ele>187</ele>
    <time>2014-12-07T12:56:46Z</time>
    <speed>8.25</speed>
  </trkpt>
  <trkpt lat="43.546085" lon="39.891208">
    <ele>187</ele>
    <time>2014-12-07T12:56:48Z</time>
    <speed>8.0</speed>
  </trkpt>
  <trkpt lat="43.546175" lon="39.890994">
    <ele>190</ele>
    <time>2014-12-07T12:56:50Z</time>
    <speed>9.75</speed>
  </trkpt>
  <trkpt lat="43.546216" lon="39.890770">
    <ele>191</ele>
    <time>2014-12-07T12:56:52Z</time>
    <speed>8.75</speed>
  </trkpt>
  <trkpt lat="43.546179" lon="39.890567">
    <ele>191</ele>
    <time>2014-12-07T12:56:54Z</time>
    <speed>8.0</speed>
  </trkpt>
  <trkpt lat="43.546053" lon="39.890404">
    <ele>190</ele>
    <time>2014-12-07T12:56:56Z</time>
    <speed>9.25</speed>
  </trkpt>
  <trkpt lat="43.545902" lon="39.890251">
    <ele>187</ele>
    <time>2014-12-07T12:56:58Z</time>
    <speed>9.75</speed>
  </trkpt>
  <trkpt lat="43.545816" lon="39.890058">
    <ele>187</ele>
    <time>2014-12-07T12:57:00Z</time>
    <speed>9.5</speed>
  </trkpt>
  <trkpt lat="43.545775" lon="39.889790">
    <ele>186</ele>
    <time>2014-12-07T12:57:02Z</time>
    <speed>11.25</speed>
  </trkpt>
  <trkpt lat="43.545696" lon="39.889499">
    <ele>185</ele>
    <time>2014-12-07T12:57:04Z</time>
    <speed>12.0</speed>
  </trkpt>
  <trkpt lat="43.545552" lon="39.889240">
    <ele>188</ele>
    <time>2014-12-07T12:57:06Z</time>
    <speed>12.75</speed>
  </trkpt>
  <trkpt lat="43.545417" lon="39.889035">
    <ele>188</ele>
    <time>2014-12-07T12:57:08Z</time>
    <speed>12.25</speed>
  </trkpt>
  <trkpt lat="43.545271" lon="39.888820">
    <ele>186</ele>
    <time>2014-12-07T12:57:10Z</time>
    <speed>11.25</speed>
  </trkpt>
  <trkpt lat="43.545174" lon="39.888608">
    <ele>186</ele>
    <time>2014-12-07T12:57:12Z</time>
    <speed>10.5</speed>
  </trkpt>
  <trkpt lat="43.545121" lon="39.888335">
    <ele>185</ele>
    <time>2014-12-07T12:57:14Z</time>
    <speed>11.5</speed>
  </trkpt>
  <trkpt lat="43.545096" lon="39.888061">
    <ele>183</ele>
    <time>2014-12-07T12:57:16Z</time>
    <speed>11.75</speed>
  </trkpt>
  <trkpt lat="43.545124" lon="39.887764">
    <ele>184</ele>
    <time>2014-12-07T12:57:18Z</time>
    <speed>11.0</speed>
  </trkpt>
  <trkpt lat="43.545205" lon="39.887552">
    <ele>184</ele>
    <time>2014-12-07T12:57:20Z</time>
    <speed>9.5</speed>
  </trkpt>
  <trkpt lat="43.545169" lon="39.887342">
    <ele>182</ele>
    <time>2014-12-07T12:57:22Z</time>
    <speed>9.0</speed>
  </trkpt>
  <trkpt lat="43.545077" lon="39.887167">
    <ele>181</ele>
    <time>2014-12-07T12:57:24Z</time>
    <speed>8.75</speed>
  </trkpt>
  <trkpt lat="43.545016" lon="39.886941">
    <ele>181</ele>
    <time>2014-12-07T12:57:26Z</time>
    <speed>9.0</speed>
  </trkpt>
  <trkpt lat="43.545002" lon="39.886724">
    <ele>181</ele>
    <time>2014-12-07T12:57:28Z</time>
    <speed>9.25</speed>
  </trkpt>
  <trkpt lat="43.545051" lon="39.886528">
    <ele>181</ele>
    <time>2014-12-07T12:57:30Z</time>
    <speed>9.0</speed>
  </trkpt>
  <trkpt lat="43.545122" lon="39.886275">
    <ele>183</ele>
    <time>2014-12-07T12:57:32Z</time>
    <speed>9.75</speed>
  </trkpt>
  <trkpt lat="43.545149" lon="39.886070">
    <ele>185</ele>
    <time>2014-12-07T12:57:34Z</time>
    <speed>8.0</speed>
  </trkpt>
  <trkpt lat="43.545107" lon="39.885869">
    <ele>183</ele>
    <time>2014-12-07T12:57:36Z</time>
    <speed>8.75</speed>
  </trkpt>
  <trkpt lat="43.545034" lon="39.885670">
    <ele>183</ele>
    <time>2014-12-07T12:57:38Z</time>
    <speed>8.75</speed>
  </trkpt>
  <trkpt lat="43.544894" lon="39.885490">
    <ele>181</ele>
    <time>2014-12-07T12:57:40Z</time>
    <speed>11.0</speed>
  </trkpt>
  <trkpt lat="43.544746" lon="39.885310">
    <ele>183</ele>
    <time>2014-12-07T12:57:42Z</time>
    <speed>11.0</speed>
  </trkpt>
  <trkpt lat="43.544589" lon="39.885144">
    <ele>182</ele>
    <time>2014-12-07T12:57:44Z</time>
    <speed>10.25</speed>
  </trkpt>
  <trkpt lat="43.544450" lon="39.885008">
    <ele>180</ele>
    <time>2014-12-07T12:57:46Z</time>
    <speed>9.75</speed>
  </trkpt>
  <trkpt lat="43.544360" lon="39.884828">
    <ele>180</ele>
    <time>2014-12-07T12:57:48Z</time>
    <speed>8.0</speed>
  </trkpt>
  <trkpt lat="43.544336" lon="39.884593">
    <ele>181</ele>
    <time>2014-12-07T12:57:50Z</time>
    <speed>8.5</speed>
  </trkpt>
  <trkpt lat="43.544301" lon="39.884374">
    <ele>182</ele>
    <time>2014-12-07T12:57:52Z</time>
    <speed>9.0</speed>
  </trkpt>
  <trkpt lat="43.544200" lon="39.884192">
    <ele>181</ele>
    <time>2014-12-07T12:57:54Z</time>
    <speed>9.75</speed>
  </trkpt>
  <trkpt lat="43.544065" lon="39.884070">
    <ele>179</ele>
    <time>2014-12-07T12:57:56Z</time>
    <speed>9.25</speed>
  </trkpt>
  <trkpt lat="43.543912" lon="39.884075">
    <ele>178</ele>
    <time>2014-12-07T12:57:58Z</time>
    <speed>8.75</speed>
  </trkpt>
  <trkpt lat="43.543759" lon="39.884159">
    <ele>176</ele>
    <time>2014-12-07T12:58:00Z</time>
    <speed>9.25</speed>
  </trkpt>
  <trkpt lat="43.543602" lon="39.884264">
    <ele>173</ele>
    <time>2014-12-07T12:58:02Z</time>
    <speed>9.5</speed>
  </trkpt>
  <trkpt lat="43.543444" lon="39.884355">
    <ele>174</ele>
    <time>2014-12-07T12:58:04Z</time>
    <speed>8.75</speed>
  </trkpt>
  <trkpt lat="43.543320" lon="39.884509">
    <ele>174</ele>
    <time>2014-12-07T12:58:06Z</time>
    <speed>8.75</speed>
  </trkpt>
  <trkpt lat="43.543259" lon="39.884730">
    <ele>174</ele>
    <time>2014-12-07T12:58:08Z</time>
    <speed>9.75</speed>
  </trkpt>
  <trkpt lat="43.543241" lon="39.884957">
    <ele>173</ele>
    <time>2014-12-07T12:58:10Z</time>
    <speed>8.25</speed>
  </trkpt>
  <trkpt lat="43.543215" lon="39.885174">
    <ele>173</ele>
    <time>2014-12-07T12:58:12Z</time>
    <speed>9.0</speed>
  </trkpt>
  <trkpt lat="43.543229" lon="39.885297">
    <ele>171</ele>
    <time>2014-12-07T12:58:14Z</time>
    <speed>6.0</speed>
  </trkpt>
  <trkpt lat="43.543189" lon="39.885255">
    <ele>170</ele>
    <time>2014-12-07T12:58:16Z</time>
    <speed>2.5</speed>
  </trkpt>
  <trkpt lat="43.543054" lon="39.885109">
    <ele>171</ele>
    <time>2014-12-07T12:58:18Z</time>
    <speed>7.5</speed>
  </trkpt>
  <trkpt lat="43.542947" lon="39.884887">
    <ele>171</ele>
    <time>2014-12-07T12:58:20Z</time>
    <speed>8.5</speed>
  </trkpt>
  <trkpt lat="43.542896" lon="39.884703">
    <ele>171</ele>
    <time>2014-12-07T12:58:22Z</time>
    <speed>7.75</speed>
  </trkpt>
  <trkpt lat="43.542896" lon="39.884307">
    <ele>171</ele>
    <time>2014-12-07T12:58:24Z</time>
    <speed>12.25</speed>
  </trkpt>
  <trkpt lat="43.542839" lon="39.883932">
    <ele>172</ele>
    <time>2014-12-07T12:58:26Z</time>
    <speed>11.75</speed>
  </trkpt>
  <trkpt lat="43.542772" lon="39.883740">
    <ele>171</ele>
    <time>2014-12-07T12:58:28Z</time>
    <speed>9.5</speed>
  </trkpt>
  <trkpt lat="43.542759" lon="39.883499">
    <ele>170</ele>
    <time>2014-12-07T12:58:30Z</time>
    <speed>9.25</speed>
  </trkpt>
  <trkpt lat="43.542618" lon="39.883297">
    <ele>169</ele>
    <time>2014-12-07T12:58:32Z</time>
    <speed>11.25</speed>
  </trkpt>
  <trkpt lat="43.542481" lon="39.883076">
    <ele>169</ele>
    <time>2014-12-07T12:58:34Z</time>
    <speed>11.0</speed>
  </trkpt>
  <trkpt lat="43.542389" lon="39.882902">
    <ele>169</ele>
    <time>2014-12-07T12:58:36Z</time>
    <speed>9.0</speed>
  </trkpt>
  <trkpt lat="43.542242" lon="39.882938">
    <ele>170</ele>
    <time>2014-12-07T12:58:38Z</time>
    <speed>7.0</speed>
  </trkpt>
  <trkpt lat="43.542103" lon="39.883052">
    <ele>164</ele>
    <time>2014-12-07T12:58:40Z</time>
    <speed>9.25</speed>
  </trkpt>
  <trkpt lat="43.541955" lon="39.883212">
    <ele>161</ele>
    <time>2014-12-07T12:58:42Z</time>
    <speed>10.25</speed>
  </trkpt>
  <trkpt lat="43.541812" lon="39.883323">
    <ele>162</ele>
    <time>2014-12-07T12:58:44Z</time>
    <speed>9.5</speed>
  </trkpt>
  <trkpt lat="43.541646" lon="39.883439">
    <ele>162</ele>
    <time>2014-12-07T12:58:46Z</time>
    <speed>9.75</speed>
  </trkpt>
  <trkpt lat="43.541473" lon="39.883569">
    <ele>162</ele>
    <time>2014-12-07T12:58:48Z</time>
    <speed>10.25</speed>
  </trkpt>
  <trkpt lat="43.541317" lon="39.883678">
    <ele>161</ele>
    <time>2014-12-07T12:58:50Z</time>
    <speed>10.0</speed>
  </trkpt>
  <trkpt lat="43.541188" lon="39.883783">
    <ele>159</ele>
    <time>2014-12-07T12:58:52Z</time>
    <speed>8.75</speed>
  </trkpt>
  <trkpt lat="43.541070" lon="39.883863">
    <ele>158</ele>
    <time>2014-12-07T12:58:54Z</time>
    <speed>6.75</speed>
  </trkpt>
  <trkpt lat="43.540940" lon="39.883915">
    <ele>158</ele>
    <time>2014-12-07T12:58:56Z</time>
    <speed>7.75</speed>
  </trkpt>
  <trkpt lat="43.540792" lon="39.884013">
    <ele>159</ele>
    <time>2014-12-07T12:58:58Z</time>
    <speed>10.0</speed>
  </trkpt>
  <trkpt lat="43.540630" lon="39.884160">
    <ele>159</ele>
    <time>2014-12-07T12:59:00Z</time>
    <speed>10.75</speed>
  </trkpt>
  <trkpt lat="43.540459" lon="39.884228">
    <ele>158</ele>
    <time>2014-12-07T12:59:02Z</time>
    <speed>9.0</speed>
  </trkpt>
  <trkpt lat="43.540311" lon="39.884187">
    <ele>157</ele>
    <time>2014-12-07T12:59:04Z</time>
    <speed>8.75</speed>
  </trkpt>
  <trkpt lat="43.540242" lon="39.883956">
    <ele>157</ele>
    <time>2014-12-07T12:59:06Z</time>
    <speed>9.75</speed>
  </trkpt>
  <trkpt lat="43.540174" lon="39.883591">
    <ele>157</ele>
    <time>2014-12-07T12:59:08Z</time>
    <speed>15.0</speed>
  </trkpt>
  <trkpt lat="43.540089" lon="39.883300">
    <ele>156</ele>
    <time>2014-12-07T12:59:10Z</time>
    <speed>12.75</speed>
  </trkpt>
  <trkpt lat="43.539957" lon="39.883114">
    <ele>156</ele>
    <time>2014-12-07T12:59:12Z</time>
    <speed>11.75</speed>
  </trkpt>
  <trkpt lat="43.539747" lon="39.882997">
    <ele>155</ele>
    <time>2014-12-07T12:59:14Z</time>
    <speed>12.5</speed>
  </trkpt>
  <trkpt lat="43.539506" lon="39.882913">
    <ele>156</ele>
    <time>2014-12-07T12:59:16Z</time>
    <speed>14.5</speed>
  </trkpt>
  <trkpt lat="43.539270" lon="39.882869">
    <ele>157</ele>
    <time>2014-12-07T12:59:18Z</time>
    <speed>12.25</speed>
  </trkpt>
  <trkpt lat="43.539074" lon="39.882908">
    <ele>154</ele>
    <time>2014-12-07T12:59:20Z</time>
    <speed>10.75</speed>
  </trkpt>
  <trkpt lat="43.538893" lon="39.883047">
    <ele>152</ele>
    <time>2014-12-07T12:59:22Z</time>
    <speed>12.0</speed>
  </trkpt>
  <trkpt lat="43.538714" lon="39.883303">
    <ele>152</ele>
    <time>2014-12-07T12:59:24Z</time>
    <speed>15.5</speed>
  </trkpt>
  <trkpt lat="43.538547" lon="39.883676">
    <ele>155</ele>
    <time>2014-12-07T12:59:26Z</time>
    <speed>17.25</speed>
  </trkpt>
  <trkpt lat="43.538365" lon="39.883994">
    <ele>154</ele>
    <time>2014-12-07T12:59:28Z</time>
    <speed>16.25</speed>
  </trkpt>
  <trkpt lat="43.538140" lon="39.884218">
    <ele>153</ele>
    <time>2014-12-07T12:59:30Z</time>
    <speed>16.0</speed>
  </trkpt>
  <trkpt lat="43.537949" lon="39.884464">
    <ele>153</ele>
    <time>2014-12-07T12:59:32Z</time>
    <speed>14.25</speed>
  </trkpt>
  <trkpt lat="43.537796" lon="39.884650">
    <ele>153</ele>
    <time>2014-12-07T12:59:34Z</time>
    <speed>10.75</speed>
  </trkpt>
  <trkpt lat="43.537637" lon="39.884708">
    <ele>152</ele>
    <time>2014-12-07T12:59:36Z</time>
    <speed>8.5</speed>
  </trkpt>
  <trkpt lat="43.537475" lon="39.884603">
    <ele>151</ele>
    <time>2014-12-07T12:59:38Z</time>
    <speed>10.0</speed>
  </trkpt>
  <trkpt lat="43.537276" lon="39.884427">
    <ele>151</ele>
    <time>2014-12-07T12:59:40Z</time>
    <speed>12.75</speed>
  </trkpt>
  <trkpt lat="43.537095" lon="39.884213">
    <ele>151</ele>
    <time>2014-12-07T12:59:42Z</time>
    <speed>13.0</speed>
  </trkpt>
  <trkpt lat="43.537041" lon="39.883953">
    <ele>151</ele>
    <time>2014-12-07T12:59:44Z</time>
    <speed>10.75</speed>
  </trkpt>
  <trkpt lat="43.537046" lon="39.883673">
    <ele>154</ele>
    <time>2014-12-07T12:59:46Z</time>
    <speed>11.5</speed>
  </trkpt>
  <trkpt lat="43.536985" lon="39.883394">
    <ele>159</ele>
    <time>2014-12-07T12:59:48Z</time>
    <speed>12.0</speed>
  </trkpt>
  <trkpt lat="43.536842" lon="39.883137">
    <ele>164</ele>
    <time>2014-12-07T12:59:50Z</time>
    <speed>12.25</speed>
  </trkpt>
  <trkpt lat="43.536638" lon="39.882940">
    <ele>166</ele>
    <time>2014-12-07T12:59:52Z</time>
    <speed>14.5</speed>
  </trkpt>
  <trkpt lat="43.536349" lon="39.882773">
    <ele>168</ele>
    <time>2014-12-07T12:59:54Z</time>
    <speed>17.75</speed>
  </trkpt>
  <trkpt lat="43.536014" lon="39.882677">
    <ele>169</ele>
    <time>2014-12-07T12:59:56Z</time>
    <speed>19.5</speed>
  </trkpt>
  <trkpt lat="43.535642" lon="39.882595">
    <ele>169</ele>
    <time>2014-12-07T12:59:58Z</time>
    <speed>21.25</speed>
  </trkpt>
  <trkpt lat="43.535299" lon="39.882516">
    <ele>171</ele>
    <time>2014-12-07T13:00:00Z</time>
    <speed>18.5</speed>
  </trkpt>
  <trkpt lat="43.535007" lon="39.882442">
    <ele>173</ele>
    <time>2014-12-07T13:00:02Z</time>
    <speed>16.5</speed>
  </trkpt>
  <trkpt lat="43.534754" lon="39.882367">
    <ele>173</ele>
    <time>2014-12-07T13:00:04Z</time>
    <speed>13.5</speed>
  </trkpt>
  <trkpt lat="43.534567" lon="39.882317">
    <ele>175</ele>
    <time>2014-12-07T13:00:06Z</time>
    <speed>10.0</speed>
  </trkpt>
  <trkpt lat="43.534419" lon="39.882298">
    <ele>174</ele>
    <time>2014-12-07T13:00:08Z</time>
    <speed>7.5</speed>
  </trkpt>
  <trkpt lat="43.534315" lon="39.882331">
    <ele>175</ele>
    <time>2014-12-07T13:00:10Z</time>
    <speed>5.75</speed>
  </trkpt>
  <trkpt lat="43.534230" lon="39.882401">
    <ele>178</ele>
    <time>2014-12-07T13:00:12Z</time>
    <speed>5.25</speed>
  </trkpt>
  <trkpt lat="43.534164" lon="39.882418">
    <ele>178</ele>
    <time>2014-12-07T13:00:14Z</time>
    <speed>3.25</speed>
  </trkpt>
  <trkpt lat="43.534106" lon="39.882384">
    <ele>179</ele>
    <time>2014-12-07T13:00:16Z</time>
    <speed>2.75</speed>
  </trkpt>
  <trkpt lat="43.534060" lon="39.882411">
    <ele>178</ele>
    <time>2014-12-07T13:00:18Z</time>
    <speed>2.5</speed>
  </trkpt>
  <trkpt lat="43.534040" lon="39.882493">
    <ele>182</ele>
    <time>2014-12-07T13:00:21Z</time>
    <speed>2.5</speed>
  </trkpt>
  <trkpt lat="43.534083" lon="39.882568">
    <ele>176</ele>
    <time>2014-12-07T13:00:28Z</time>
    <speed>3.0</speed>
  </trkpt>
  <trkpt lat="43.534223" lon="39.882449">
    <ele>180</ele>
    <time>2014-12-07T13:00:30Z</time>
    <speed>7.25</speed>
  </trkpt>
  <trkpt lat="43.534353" lon="39.882354">
    <ele>181</ele>
    <time>2014-12-07T13:00:32Z</time>
    <speed>7.75</speed>
  </trkpt>
  <trkpt lat="43.534467" lon="39.882342">
    <ele>184</ele>
    <time>2014-12-07T13:00:34Z</time>
    <speed>6.5</speed>
  </trkpt>
  <trkpt lat="43.534595" lon="39.882321">
    <ele>184</ele>
    <time>2014-12-07T13:00:36Z</time>
    <speed>6.25</speed>
  </trkpt>
  <trkpt lat="43.534697" lon="39.882358">
    <ele>185</ele>
    <time>2014-12-07T13:00:38Z</time>
    <speed>5.75</speed>
  </trkpt>
  <trkpt lat="43.534785" lon="39.882415">
    <ele>185</ele>
    <time>2014-12-07T13:00:40Z</time>
    <speed>4.25</speed>
  </trkpt>
  <trkpt lat="43.534841" lon="39.882446">
    <ele>185</ele>
    <time>2014-12-07T13:00:42Z</time>
    <speed>3.0</speed>
  </trkpt>
  <trkpt lat="43.534873" lon="39.882529">
    <ele>187</ele>
    <time>2014-12-07T13:02:59Z</time>
    <speed>2.5</speed>
  </trkpt>
  <trkpt lat="43.534959" lon="39.882539">
    <ele>186</ele>
    <time>2014-12-07T13:03:01Z</time>
    <speed>3.75</speed>
  </trkpt>
  <trkpt lat="43.535049" lon="39.882538">
    <ele>187</ele>
    <time>2014-12-07T13:03:03Z</time>
    <speed>4.75</speed>
  </trkpt>
  <trkpt lat="43.535150" lon="39.882564">
    <ele>186</ele>
    <time>2014-12-07T13:03:05Z</time>
    <speed>4.75</speed>
  </trkpt>
  <trkpt lat="43.535261" lon="39.882631">
    <ele>186</ele>
    <time>2014-12-07T13:03:07Z</time>
    <speed>5.0</speed>
  </trkpt>
  <trkpt lat="43.535371" lon="39.882653">
    <ele>186</ele>
    <time>2014-12-07T13:03:09Z</time>
    <speed>5.5</speed>
  </trkpt>
  <trkpt lat="43.535511" lon="39.882716">
    <ele>187</ele>
    <time>2014-12-07T13:03:11Z</time>
    <speed>6.75</speed>
  </trkpt>
  <trkpt lat="43.535673" lon="39.882700">
    <ele>187</ele>
    <time>2014-12-07T13:03:13Z</time>
    <speed>7.75</speed>
  </trkpt>
  <trkpt lat="43.535842" lon="39.882735">
    <ele>188</ele>
    <time>2014-12-07T13:03:15Z</time>
    <speed>9.0</speed>
  </trkpt>
  <trkpt lat="43.536005" lon="39.882772">
    <ele>185</ele>
    <time>2014-12-07T13:03:17Z</time>
    <speed>8.25</speed>
  </trkpt>
  <trkpt lat="43.536029" lon="39.882841">
    <ele>180</ele>
    <time>2014-12-07T13:03:21Z</time>
    <speed>1.5</speed>
  </trkpt>
  <trkpt lat="43.536067" lon="39.882884">
    <ele>181</ele>
    <time>2014-12-07T13:03:24Z</time>
    <speed>1.75</speed>
  </trkpt>
  <trkpt lat="43.536123" lon="39.882879">
    <ele>178</ele>
    <time>2014-12-07T13:03:27Z</time>
    <speed>1.25</speed>
  </trkpt>
  <trkpt lat="43.536138" lon="39.882816">
    <ele>186</ele>
    <time>2014-12-07T13:03:32Z</time>
    <speed>1.0</speed>
  </trkpt>
  <trkpt lat="43.536100" lon="39.882750">
    <ele>184</ele>
    <time>2014-12-07T13:03:34Z</time>
    <speed>3.25</speed>
  </trkpt>
  <trkpt lat="43.536010" lon="39.882673">
    <ele>183</ele>
    <time>2014-12-07T13:03:36Z</time>
    <speed>4.75</speed>
  </trkpt>
  <trkpt lat="43.535719" lon="39.882690">
    <ele>183</ele>
    <time>2014-12-07T13:03:38Z</time>
    <speed>9.25</speed>
  </trkpt>
  <trkpt lat="43.535529" lon="39.882684">
    <ele>181</ele>
    <time>2014-12-07T13:03:40Z</time>
    <speed>10.5</speed>
  </trkpt>
  <trkpt lat="43.535141" lon="39.882665">
    <ele>177</ele>
    <time>2014-12-07T13:03:42Z</time>
    <speed>16.0</speed>
  </trkpt>
  <trkpt lat="43.534790" lon="39.882459">
    <ele>182</ele>
    <time>2014-12-07T13:03:44Z</time>
    <speed>15.75</speed>
  </trkpt>
  <trkpt lat="43.534547" lon="39.882360">
    <ele>183</ele>
    <time>2014-12-07T13:03:46Z</time>
    <speed>11.75</speed>
  </trkpt>
  <trkpt lat="43.534349" lon="39.882382">
    <ele>184</ele>
    <time>2014-12-07T13:03:48Z</time>
    <speed>10.25</speed>
  </trkpt>
  <trkpt lat="43.534157" lon="39.882498">
    <ele>189</ele>
    <time>2014-12-07T13:03:50Z</time>
    <speed>11.0</speed>
  </trkpt>
  <trkpt lat="43.533986" lon="39.882688">
    <ele>190</ele>
    <time>2014-12-07T13:03:52Z</time>
    <speed>12.5</speed>
  </trkpt>
  <trkpt lat="43.533817" lon="39.882870">
    <ele>191</ele>
    <time>2014-12-07T13:03:54Z</time>
    <speed>11.75</speed>
  </trkpt>
  <trkpt lat="43.533668" lon="39.883025">
    <ele>191</ele>
    <time>2014-12-07T13:03:56Z</time>
    <speed>10.25</speed>
  </trkpt>
  <trkpt lat="43.533498" lon="39.883064">
    <ele>189</ele>
    <time>2014-12-07T13:03:58Z</time>
    <speed>9.75</speed>
  </trkpt>
  <trkpt lat="43.533323" lon="39.882993">
    <ele>186</ele>
    <time>2014-12-07T13:04:00Z</time>
    <speed>10.5</speed>
  </trkpt>
  <trkpt lat="43.533119" lon="39.882796">
    <ele>188</ele>
    <time>2014-12-07T13:04:02Z</time>
    <speed>14.5</speed>
  </trkpt>
  <trkpt lat="43.532861" lon="39.882527">
    <ele>185</ele>
    <time>2014-12-07T13:04:04Z</time>
    <speed>18.25</speed>
  </trkpt>
  <trkpt lat="43.532645" lon="39.882251">
    <ele>183</ele>
    <time>2014-12-07T13:04:06Z</time>
    <speed>16.0</speed>
  </trkpt>
  <trkpt lat="43.532459" lon="39.882001">
    <ele>181</ele>
    <time>2014-12-07T13:04:08Z</time>
    <speed>14.25</speed>
  </trkpt>
  <trkpt lat="43.532274" lon="39.881816">
    <ele>178</ele>
    <time>2014-12-07T13:04:10Z</time>
    <speed>12.75</speed>
  </trkpt>
  <trkpt lat="43.532090" lon="39.881647">
    <ele>175</ele>
    <time>2014-12-07T13:04:12Z</time>
    <speed>11.75</speed>
  </trkpt>
  <trkpt lat="43.531881" lon="39.881642">
    <ele>171</ele>
    <time>2014-12-07T13:04:14Z</time>
    <speed>11.75</speed>
  </trkpt>
  <trkpt lat="43.531686" lon="39.881733">
    <ele>168</ele>
    <time>2014-12-07T13:04:16Z</time>
    <speed>12.0</speed>
  </trkpt>
  <trkpt lat="43.531446" lon="39.881969">
    <ele>168</ele>
    <time>2014-12-07T13:04:18Z</time>
    <speed>17.75</speed>
  </trkpt>
  <trkpt lat="43.531188" lon="39.882225">
    <ele>167</ele>
    <time>2014-12-07T13:04:20Z</time>
    <speed>17.75</speed>
  </trkpt>
  <trkpt lat="43.530935" lon="39.882508">
    <ele>165</ele>
    <time>2014-12-07T13:04:22Z</time>
    <speed>18.25</speed>
  </trkpt>
  <trkpt lat="43.530691" lon="39.882710">
    <ele>161</ele>
    <time>2014-12-07T13:04:24Z</time>
    <speed>14.5</speed>
  </trkpt>
  <trkpt lat="43.530450" lon="39.882856">
    <ele>157</ele>
    <time>2014-12-07T13:04:26Z</time>
    <speed>14.25</speed>
  </trkpt>
  <trkpt lat="43.530177" lon="39.882899">
    <ele>153</ele>
    <time>2014-12-07T13:04:28Z</time>
    <speed>15.0</speed>
  </trkpt>
  <trkpt lat="43.529905" lon="39.882884">
    <ele>149</ele>
    <time>2014-12-07T13:04:30Z</time>
    <speed>14.75</speed>
  </trkpt>
  <trkpt lat="43.529676" lon="39.882873">
    <ele>142</ele>
    <time>2014-12-07T13:04:32Z</time>
    <speed>13.5</speed>
  </trkpt>
  <trkpt lat="43.529413" lon="39.882950">
    <ele>139</ele>
    <time>2014-12-07T13:04:34Z</time>
    <speed>13.25</speed>
  </trkpt>
  <trkpt lat="43.529209" lon="39.883092">
    <ele>137</ele>
    <time>2014-12-07T13:04:36Z</time>
    <speed>12.75</speed>
  </trkpt>
  <trkpt lat="43.529048" lon="39.883346">
    <ele>153</ele>
    <time>2014-12-07T13:04:38Z</time>
    <speed>14.0</speed>
  </trkpt>
  <trkpt lat="43.528877" lon="39.883564">
    <ele>145</ele>
    <time>2014-12-07T13:04:40Z</time>
    <speed>13.25</speed>
  </trkpt>
  <trkpt lat="43.528649" lon="39.883651">
    <ele>138</ele>
    <time>2014-12-07T13:04:42Z</time>
    <speed>13.25</speed>
  </trkpt>
  <trkpt lat="43.528412" lon="39.883669">
    <ele>132</ele>
    <time>2014-12-07T13:04:44Z</time>
    <speed>11.5</speed>
  </trkpt>
  <trkpt lat="43.528243" lon="39.883605">
    <ele>136</ele>
    <time>2014-12-07T13:04:46Z</time>
    <speed>10.0</speed>
  </trkpt>
  <trkpt lat="43.528125" lon="39.883420">
    <ele>135</ele>
    <time>2014-12-07T13:04:48Z</time>
    <speed>10.5</speed>
  </trkpt>
  <trkpt lat="43.528047" lon="39.883091">
    <ele>133</ele>
    <time>2014-12-07T13:04:50Z</time>
    <speed>15.0</speed>
  </trkpt>
  <trkpt lat="43.527950" lon="39.882753">
    <ele>127</ele>
    <time>2014-12-07T13:04:52Z</time>
    <speed>14.75</speed>
  </trkpt>
  <trkpt lat="43.527796" lon="39.882400">
    <ele>126</ele>
    <time>2014-12-07T13:04:54Z</time>
    <speed>16.25</speed>
  </trkpt>
  <trkpt lat="43.527675" lon="39.882062">
    <ele>122</ele>
    <time>2014-12-07T13:04:56Z</time>
    <speed>15.25</speed>
  </trkpt>
  <trkpt lat="43.527549" lon="39.881725">
    <ele>119</ele>
    <time>2014-12-07T13:04:58Z</time>
    <speed>15.5</speed>
  </trkpt>
  <trkpt lat="43.527415" lon="39.881417">
    <ele>117</ele>
    <time>2014-12-07T13:05:00Z</time>
    <speed>16.0</speed>
  </trkpt>
  <trkpt lat="43.527226" lon="39.881133">
    <ele>115</ele>
    <time>2014-12-07T13:05:02Z</time>
    <speed>15.5</speed>
  </trkpt>
  <trkpt lat="43.526982" lon="39.880936">
    <ele>111</ele>
    <time>2014-12-07T13:05:04Z</time>
    <speed>16.25</speed>
  </trkpt>
  <trkpt lat="43.526662" lon="39.880712">
    <ele>105</ele>
    <time>2014-12-07T13:05:06Z</time>
    <speed>19.75</speed>
  </trkpt>
  <trkpt lat="43.526352" lon="39.880406">
    <ele>104</ele>
    <time>2014-12-07T13:05:08Z</time>
    <speed>20.75</speed>
  </trkpt>
  <trkpt lat="43.526075" lon="39.880045">
    <ele>98</ele>
    <time>2014-12-07T13:05:10Z</time>
    <speed>21.0</speed>
  </trkpt>
  <trkpt lat="43.525863" lon="39.879745">
    <ele>89</ele>
    <time>2014-12-07T13:05:12Z</time>
    <speed>17.75</speed>
  </trkpt>
  <trkpt lat="43.525683" lon="39.879585">
    <ele>91</ele>
    <time>2014-12-07T13:05:14Z</time>
    <speed>11.75</speed>
  </trkpt>
  <trkpt lat="43.525587" lon="39.879353">
    <ele>91</ele>
    <time>2014-12-07T13:05:16Z</time>
    <speed>10.0</speed>
  </trkpt>
  <trkpt lat="43.525507" lon="39.879093">
    <ele>125</ele>
    <time>2014-12-07T13:05:18Z</time>
    <speed>11.25</speed>
  </trkpt>
  <trkpt lat="43.525509" lon="39.878793">
    <ele>114</ele>
    <time>2014-12-07T13:05:20Z</time>
    <speed>11.5</speed>
  </trkpt>
  <trkpt lat="43.525499" lon="39.878529">
    <ele>106</ele>
    <time>2014-12-07T13:05:22Z</time>
    <speed>10.25</speed>
  </trkpt>
  <trkpt lat="43.525424" lon="39.878304">
    <ele>101</ele>
    <time>2014-12-07T13:05:24Z</time>
    <speed>9.25</speed>
  </trkpt>
  <trkpt lat="43.525239" lon="39.878160">
    <ele>94</ele>
    <time>2014-12-07T13:05:26Z</time>
    <speed>10.75</speed>
  </trkpt>
  <trkpt lat="43.525031" lon="39.878175">
    <ele>90</ele>
    <time>2014-12-07T13:05:28Z</time>
    <speed>11.0</speed>
  </trkpt>
  <trkpt lat="43.524861" lon="39.878112">
    <ele>87</ele>
    <time>2014-12-07T13:05:30Z</time>
    <speed>9.75</speed>
  </trkpt>
  <trkpt lat="43.524715" lon="39.877993">
    <ele>87</ele>
    <time>2014-12-07T13:05:32Z</time>
    <speed>8.75</speed>
  </trkpt>
  <trkpt lat="43.524597" lon="39.878009">
    <ele>84</ele>
    <time>2014-12-07T13:05:34Z</time>
    <speed>6.75</speed>
  </trkpt>
  <trkpt lat="43.524535" lon="39.878123">
    <ele>85</ele>
    <time>2014-12-07T13:05:36Z</time>
    <speed>6.0</speed>
  </trkpt>
  <trkpt lat="43.524523" lon="39.878331">
    <ele>85</ele>
    <time>2014-12-07T13:05:38Z</time>
    <speed>8.0</speed>
  </trkpt>
  <trkpt lat="43.524488" lon="39.878529">
    <ele>84</ele>
    <time>2014-12-07T13:05:40Z</time>
    <speed>7.25</speed>
  </trkpt>
  <trkpt lat="43.524380" lon="39.878647">
    <ele>84</ele>
    <time>2014-12-07T13:05:42Z</time>
    <speed>7.25</speed>
  </trkpt>
  <trkpt lat="43.524243" lon="39.878575">
    <ele>84</ele>
    <time>2014-12-07T13:05:44Z</time>
    <speed>10.0</speed>
  </trkpt>
  <trkpt lat="43.524079" lon="39.878576">
    <ele>84</ele>
    <time>2014-12-07T13:05:46Z</time>
    <speed>9.25</speed>
  </trkpt>
  <trkpt lat="43.523928" lon="39.878675">
    <ele>85</ele>
    <time>2014-12-07T13:05:48Z</time>
    <speed>9.5</speed>
  </trkpt>
  <trkpt lat="43.523775" lon="39.878745">
    <ele>84</ele>
    <time>2014-12-07T13:05:50Z</time>
    <speed>8.5</speed>
  </trkpt>
  <trkpt lat="43.523608" lon="39.878758">
    <ele>82</ele>
    <time>2014-12-07T13:05:52Z</time>
    <speed>9.0</speed>
  </trkpt>
  <trkpt lat="43.523405" lon="39.878669">
    <ele>80</ele>
    <time>2014-12-07T13:05:54Z</time>
    <speed>11.25</speed>
  </trkpt>
  <trkpt lat="43.523219" lon="39.878533">
    <ele>80</ele>
    <time>2014-12-07T13:05:56Z</time>
    <speed>11.25</speed>
  </trkpt>
  <trkpt lat="43.523018" lon="39.878317">
    <ele>79</ele>
    <time>2014-12-07T13:05:58Z</time>
    <speed>12.5</speed>
  </trkpt>
  <trkpt lat="43.522845" lon="39.878022">
    <ele>80</ele>
    <time>2014-12-07T13:06:00Z</time>
    <speed>12.0</speed>
  </trkpt>
  <trkpt lat="43.522639" lon="39.877748">
    <ele>81</ele>
    <time>2014-12-07T13:06:02Z</time>
    <speed>14.75</speed>
  </trkpt>
  <trkpt lat="43.522469" lon="39.877520">
    <ele>83</ele>
    <time>2014-12-07T13:06:04Z</time>
    <speed>12.0</speed>
  </trkpt>
  <trkpt lat="43.522305" lon="39.877304">
    <ele>79</ele>
    <time>2014-12-07T13:06:06Z</time>
    <speed>11.75</speed>
  </trkpt>
  <trkpt lat="43.522160" lon="39.877071">
    <ele>79</ele>
    <time>2014-12-07T13:06:08Z</time>
    <speed>12.0</speed>
  </trkpt>
  <trkpt lat="43.522013" lon="39.876876">
    <ele>79</ele>
    <time>2014-12-07T13:06:10Z</time>
    <speed>10.75</speed>
  </trkpt>
  <trkpt lat="43.521885" lon="39.876705">
    <ele>74</ele>
    <time>2014-12-07T13:06:12Z</time>
    <speed>10.0</speed>
  </trkpt>
  <trkpt lat="43.521759" lon="39.876536">
    <ele>72</ele>
    <time>2014-12-07T13:06:14Z</time>
    <speed>9.75</speed>
  </trkpt>
  <trkpt lat="43.521624" lon="39.876364">
    <ele>72</ele>
    <time>2014-12-07T13:06:16Z</time>
    <speed>10.25</speed>
  </trkpt>
  <trkpt lat="43.521473" lon="39.876178">
    <ele>70</ele>
    <time>2014-12-07T13:06:18Z</time>
    <speed>11.25</speed>
  </trkpt>
  <trkpt lat="43.521278" lon="39.875998">
    <ele>69</ele>
    <time>2014-12-07T13:06:20Z</time>
    <speed>13.0</speed>
  </trkpt>
  <trkpt lat="43.521082" lon="39.875852">
    <ele>67</ele>
    <time>2014-12-07T13:06:22Z</time>
    <speed>11.5</speed>
  </trkpt>
  <trkpt lat="43.520901" lon="39.875691">
    <ele>66</ele>
    <time>2014-12-07T13:06:24Z</time>
    <speed>11.5</speed>
  </trkpt>
  <trkpt lat="43.520745" lon="39.875539">
    <ele>66</ele>
    <time>2014-12-07T13:06:26Z</time>
    <speed>10.0</speed>
  </trkpt>
  <trkpt lat="43.520611" lon="39.875453">
    <ele>64</ele>
    <time>2014-12-07T13:06:28Z</time>
    <speed>8.5</speed>
  </trkpt>
  <trkpt lat="43.520521" lon="39.875317">
    <ele>63</ele>
    <time>2014-12-07T13:06:30Z</time>
    <speed>7.0</speed>
  </trkpt>
  <trkpt lat="43.520467" lon="39.875142">
    <ele>63</ele>
    <time>2014-12-07T13:06:32Z</time>
    <speed>7.25</speed>
  </trkpt>
  <trkpt lat="43.520462" lon="39.874923">
    <ele>63</ele>
    <time>2014-12-07T13:06:34Z</time>
    <speed>8.25</speed>
  </trkpt>
  <trkpt lat="43.520455" lon="39.874720">
    <ele>62</ele>
    <time>2014-12-07T13:06:36Z</time>
    <speed>7.75</speed>
  </trkpt>
  <trkpt lat="43.520365" lon="39.874517">
    <ele>61</ele>
    <time>2014-12-07T13:06:38Z</time>
    <speed>9.0</speed>
  </trkpt>
  <trkpt lat="43.520264" lon="39.874388">
    <ele>59</ele>
    <time>2014-12-07T13:06:40Z</time>
    <speed>7.5</speed>
  </trkpt>
  <trkpt lat="43.520167" lon="39.874247">
    <ele>57</ele>
    <time>2014-12-07T13:06:42Z</time>
    <speed>7.75</speed>
  </trkpt>
  <trkpt lat="43.520029" lon="39.874138">
    <ele>57</ele>
    <time>2014-12-07T13:06:44Z</time>
    <speed>8.25</speed>
  </trkpt>
  <trkpt lat="43.519889" lon="39.874084">
    <ele>54</ele>
    <time>2014-12-07T13:06:46Z</time>
    <speed>9.0</speed>
  </trkpt>
  <trkpt lat="43.519755" lon="39.874079">
    <ele>53</ele>
    <time>2014-12-07T13:06:48Z</time>
    <speed>7.75</speed>
  </trkpt>
  <trkpt lat="43.519655" lon="39.874081">
    <ele>52</ele>
    <time>2014-12-07T13:06:50Z</time>
    <speed>5.0</speed>
  </trkpt>
  <trkpt lat="43.519608" lon="39.874058">
    <ele>54</ele>
    <time>2014-12-07T13:06:53Z</time>
    <speed>2.25</speed>
  </trkpt>
  <trkpt lat="43.519517" lon="39.874086">
    <ele>55</ele>
    <time>2014-12-07T13:06:55Z</time>
    <speed>4.75</speed>
  </trkpt>
  <trkpt lat="43.519437" lon="39.874014">
    <ele>56</ele>
    <time>2014-12-07T13:06:57Z</time>
    <speed>5.75</speed>
  </trkpt>
  <trkpt lat="43.519326" lon="39.873933">
    <ele>52</ele>
    <time>2014-12-07T13:06:59Z</time>
    <speed>5.75</speed>
  </trkpt>
  <trkpt lat="43.519220" lon="39.873762">
    <ele>55</ele>
    <time>2014-12-07T13:07:01Z</time>
    <speed>8.25</speed>
  </trkpt>
  <trkpt lat="43.519116" lon="39.873667">
    <ele>51</ele>
    <time>2014-12-07T13:07:03Z</time>
    <speed>6.25</speed>
  </trkpt>
  <trkpt lat="43.519035" lon="39.873525">
    <ele>50</ele>
    <time>2014-12-07T13:07:05Z</time>
    <speed>7.25</speed>
  </trkpt>
  <trkpt lat="43.518979" lon="39.873360">
    <ele>53</ele>
    <time>2014-12-07T13:07:07Z</time>
    <speed>7.0</speed>
  </trkpt>
  <trkpt lat="43.518889" lon="39.873261">
    <ele>51</ele>
    <time>2014-12-07T13:07:09Z</time>
    <speed>6.5</speed>
  </trkpt>
  <trkpt lat="43.518793" lon="39.873184">
    <ele>48</ele>
    <time>2014-12-07T13:07:11Z</time>
    <speed>6.5</speed>
  </trkpt>
  <trkpt lat="43.518669" lon="39.873083">
    <ele>47</ele>
    <time>2014-12-07T13:07:13Z</time>
    <speed>6.5</speed>
  </trkpt>
  <trkpt lat="43.518555" lon="39.873032">
    <ele>49</ele>
    <time>2014-12-07T13:07:15Z</time>
    <speed>6.5</speed>
  </trkpt>
  <trkpt lat="43.518454" lon="39.872988">
    <ele>49</ele>
    <time>2014-12-07T13:07:17Z</time>
    <speed>6.0</speed>
  </trkpt>
  <trkpt lat="43.518368" lon="39.872926">
    <ele>46</ele>
    <time>2014-12-07T13:07:19Z</time>
    <speed>4.25</speed>
  </trkpt>
  <trkpt lat="43.518283" lon="39.872868">
    <ele>46</ele>
    <time>2014-12-07T13:07:21Z</time>
    <speed>5.0</speed>
  </trkpt>
  <trkpt lat="43.518185" lon="39.872781">
    <ele>46</ele>
    <time>2014-12-07T13:07:23Z</time>
    <speed>6.25</speed>
  </trkpt>
  <trkpt lat="43.518058" lon="39.872744">
    <ele>45</ele>
    <time>2014-12-07T13:07:25Z</time>
    <speed>6.25</speed>
  </trkpt>
  <trkpt lat="43.517916" lon="39.872706">
    <ele>43</ele>
    <time>2014-12-07T13:07:27Z</time>
    <speed>7.5</speed>
  </trkpt>
  <trkpt lat="43.517667" lon="39.872740">
    <ele>44</ele>
    <time>2014-12-07T13:07:29Z</time>
    <speed>11.0</speed>
  </trkpt>
  <trkpt lat="43.517434" lon="39.872855">
    <ele>42</ele>
    <time>2014-12-07T13:07:31Z</time>
    <speed>11.0</speed>
  </trkpt>
  <trkpt lat="43.517259" lon="39.872909">
    <ele>41</ele>
    <time>2014-12-07T13:07:33Z</time>
    <speed>9.75</speed>
  </trkpt>
  <trkpt lat="43.517114" lon="39.872949">
    <ele>41</ele>
    <time>2014-12-07T13:07:35Z</time>
    <speed>9.0</speed>
  </trkpt>
  <trkpt lat="43.516954" lon="39.872963">
    <ele>41</ele>
    <time>2014-12-07T13:07:37Z</time>
    <speed>8.5</speed>
  </trkpt>
  <trkpt lat="43.516813" lon="39.872947">
    <ele>39</ele>
    <time>2014-12-07T13:07:39Z</time>
    <speed>7.0</speed>
  </trkpt>
  <trkpt lat="43.516757" lon="39.872931">
    <ele>38</ele>
    <time>2014-12-07T13:07:41Z</time>
    <speed>3.5</speed>
  </trkpt>
  <trkpt lat="43.516724" lon="39.872978">
    <ele>38</ele>
    <time>2014-12-07T13:07:43Z</time>
    <speed>2.75</speed>
  </trkpt>
  <trkpt lat="43.516739" lon="39.873063">
    <ele>38</ele>
    <time>2014-12-07T13:07:45Z</time>
    <speed>4.0</speed>
  </trkpt>
  <trkpt lat="43.516829" lon="39.873132">
    <ele>36</ele>
    <time>2014-12-07T13:07:47Z</time>
    <speed>4.5</speed>
  </trkpt>
  <trkpt lat="43.516889" lon="39.873149">
    <ele>36</ele>
    <time>2014-12-07T13:07:49Z</time>
    <speed>3.75</speed>
  </trkpt>
  <trkpt lat="43.516842" lon="39.873133">
    <ele>36</ele>
    <time>2014-12-07T13:07:56Z</time>
    <speed>0.0</speed>
  </trkpt>
  <trkpt lat="43.516796" lon="39.873163">
    <ele>36</ele>
    <time>2014-12-07T13:07:58Z</time>
    <speed>2.8380835</speed>
  </trkpt>
  <trkpt lat="43.516776" lon="39.873231">
    <ele>37</ele>
    <time>2014-12-07T13:08:03Z</time>
    <speed>0.0</speed>
  </trkpt>
  <trkpt lat="43.516836" lon="39.873204">
    <ele>36</ele>
    <time>2014-12-07T13:10:17Z</time>
    <speed>0.05211456</speed>
  </trkpt>
  <trkpt lat="43.516880" lon="39.873176">
    <ele>34</ele>
    <time>2014-12-07T13:10:19Z</time>
    <speed>0.0</speed>
  </trkpt>
 </trkseg>
</trk>
</gpx>
